| time (UTC) | temp F | wind direction | speed MPH | gust MPH | rain 1hr in | rain 24hr in | rain mn in | humidity % | barometer mb |
| 20260905185717 | 98 | 178 | 2.0 | 5.0 | 0.00 | 0.00 | 0.00 | 32 | 1013.5 |
| 20260905185618 | 98 | 178 | 3.0 | 5.0 | 0.00 | 0.00 | 0.00 | 31 | 1013.6 |
| 20260905185529 | 98 | 178 | 3.0 | 5.0 | 0.00 | 0.00 | 0.00 | 31 | 1013.6 |
| 20260905185451 | 99 | 177 | 3.0 | 5.0 | 0.00 | 0.00 | 0.00 | 31 | 1013.6 |
| 20260905185317 | 99 | 176 | 2.0 | 5.0 | 0.00 | 0.00 | 0.00 | 32 | 1013.6 |
| 20260905185226 | 98 | 176 | 1.0 | 5.0 | 0.00 | 0.00 | 0.00 | 32 | 1013.6 |
| 20260905185129 | 98 | 177 | 2.0 | 5.0 | 0.00 | 0.00 | 0.00 | 32 | 1013.7 |
| 20260905185037 | 98 | 177 | 3.0 | 5.0 | 0.00 | 0.00 | 0.00 | 31 | 1013.8 |
| 20260905184919 | 98 | 178 | 1.0 | 5.0 | 0.00 | 0.00 | 0.00 | 33 | 1013.7 |
| 20260905184822 | 97 | 197 | 0.0 | 5.0 | 0.00 | 0.00 | 0.00 | 33 | 1013.7 |
| 20260905184736 | 97 | 198 | 0.0 | 5.0 | 0.00 | 0.00 | 0.00 | 32 | 1013.7 |
| 20260905184639 | 97 | 198 | 2.0 | 5.0 | 0.00 | 0.00 | 0.00 | 33 | 1013.8 |
| 20260905184518 | 97 | 198 | 2.0 | 5.0 | 0.00 | 0.00 | 0.00 | 32 | 1013.7 |
| 20260905184429 | 97 | 198 | 2.0 | 5.0 | 0.00 | 0.00 | 0.00 | 33 | 1013.7 |
| 20260905184350 | 97 | 197 | 2.0 | 5.0 | 0.00 | 0.00 | 0.00 | 32 | 1013.7 |
| 20260905184238 | 98 | 197 | 1.0 | 4.0 | 0.00 | 0.00 | 0.00 | 33 | 1013.8 |
| 20260905184118 | 98 | 197 | 2.0 | 4.0 | 0.00 | 0.00 | 0.00 | 33 | 1013.8 |
| 20260905184024 | 98 | 207 | 3.0 | 4.0 | 0.00 | 0.00 | 0.00 | 35 | 1013.7 |
| 20260905183934 | 97 | 207 | 2.0 | 4.0 | 0.00 | 0.00 | 0.00 | 32 | 1013.7 |
| 20260905183837 | 97 | 207 | 1.0 | 4.0 | 0.00 | 0.00 | 0.00 | 33 | 1013.7 |
| 20260905183717 | 97 | 207 | 1.0 | 4.0 | 0.00 | 0.00 | 0.00 | 33 | 1013.7 |
| 20260905183626 | 97 | 207 | 1.0 | 4.0 | 0.00 | 0.00 | 0.00 | 33 | 1013.7 |
| 20260905183529 | 97 | 207 | 1.0 | 4.0 | 0.00 | 0.00 | 0.00 | 33 | 1013.7 |
| 20260905183422 | 97 | 207 | 0.0 | 3.0 | 0.00 | 0.00 | 0.00 | 34 | 1013.7 |
| 20260905183343 | 96 | 207 | 0.0 | 3.0 | 0.00 | 0.00 | 0.00 | 34 | 1013.7 |
| 20260905183233 | 97 | 207 | 1.0 | 3.0 | 0.00 | 0.00 | 0.00 | 33 | 1013.7 |
| 20260905183135 | 97 | 207 | 1.0 | 3.0 | 0.00 | 0.00 | 0.00 | 33 | 1013.7 |
| 20260905183017 | 97 | 209 | 1.0 | 3.0 | 0.00 | 0.00 | 0.00 | 33 | 1013.7 |
| 20260905182919 | 97 | 209 | 0.0 | 3.0 | 0.00 | 0.00 | 0.00 | 34 | 1013.7 |
| 20260905182827 | 97 | 209 | 1.0 | 5.0 | 0.00 | 0.00 | 0.00 | 34 | 1013.8 |
| 20260905182733 | 97 | 209 | 1.0 | 6.0 | 0.00 | 0.00 | 0.00 | 33 | 1013.8 |
| 20260905182642 | 97 | 210 | 1.0 | 6.0 | 0.00 | 0.00 | 0.00 | 36 | 1013.8 |
| 20260905182543 | 96 | 210 | 1.0 | 6.0 | 0.00 | 0.00 | 0.00 | 34 | 1013.9 |
| 20260905182431 | 96 | 210 | 1.0 | 6.0 | 0.00 | 0.00 | 0.00 | 33 | 1013.9 |
| 20260905182332 | 96 | 210 | 1.0 | 6.0 | 0.00 | 0.00 | 0.00 | 34 | 1013.9 |
| 20260905182301 | 96 | 210 | 1.0 | 6.0 | 0.00 | 0.00 | 0.00 | 33 | 1013.9 |
| 20260905182142 | 96 | 210 | 2.0 | 6.0 | 0.00 | 0.00 | 0.00 | 34 | 1013.9 |
| 20260905182052 | 96 | 211 | 2.0 | 6.0 | 0.00 | 0.00 | 0.00 | 34 | 1013.9 |
| 20260905181939 | 96 | 211 | 3.0 | 6.0 | 0.00 | 0.00 | 0.00 | 34 | 1013.9 |
| 20260905181822 | 96 | 216 | 3.0 | 6.0 | 0.00 | 0.00 | 0.00 | 33 | 1014.0 |
| 20260905181724 | 96 | 217 | 2.0 | 5.0 | 0.00 | 0.00 | 0.00 | 33 | 1014.0 |
| 20260905181653 | 96 | 217 | 2.0 | 4.0 | 0.00 | 0.00 | 0.00 | 33 | 1014.0 |
| 20260905181535 | 96 | 217 | 2.0 | 4.0 | 0.00 | 0.00 | 0.00 | 33 | 1013.9 |
| 20260905181417 | 96 | 207 | 2.0 | 4.0 | 0.00 | 0.00 | 0.00 | 33 | 1013.9 |
| 20260905181345 | 96 | 207 | 2.0 | 4.0 | 0.00 | 0.00 | 0.00 | 34 | 1014.0 |
| 20260905181227 | 96 | 207 | 2.0 | 4.0 | 0.00 | 0.00 | 0.00 | 34 | 1014.0 |
| 20260905181141 | 96 | 207 | 1.0 | 4.0 | 0.00 | 0.00 | 0.00 | 35 | 1014.0 |
| 20260905181040 | 95 | 207 | 1.0 | 5.0 | 0.00 | 0.00 | 0.00 | 35 | 1013.9 |
| 20260905180921 | 95 | 207 | 1.0 | 5.0 | 0.00 | 0.00 | 0.00 | 34 | 1013.9 |
| 20260905180830 | 95 | 207 | 2.0 | 5.0 | 0.00 | 0.00 | 0.00 | 34 | 1013.9 |
| 20260905180733 | 95 | 207 | 2.0 | 5.0 | 0.00 | 0.00 | 0.00 | 35 | 1013.9 |
| 20260905180642 | 95 | 208 | 1.0 | 5.0 | 0.00 | 0.00 | 0.00 | 34 | 1013.9 |
| 20260905180526 | 95 | 208 | 1.0 | 5.0 | 0.00 | 0.00 | 0.00 | 35 | 1014.0 |
| 20260905180429 | 95 | 208 | 1.0 | 5.0 | 0.00 | 0.00 | 0.00 | 35 | 1014.0 |
| 20260905180331 | 95 | 208 | 1.0 | 5.0 | 0.00 | 0.00 | 0.00 | 35 | 1014.0 |
| 20260905180241 | 95 | 208 | 0.0 | 4.0 | 0.00 | 0.00 | 0.00 | 36 | 1014.0 |
| 20260905180123 | 95 | 208 | 0.0 | 4.0 | 0.00 | 0.00 | 0.00 | 36 | 1014.1 |
| 20260905180038 | 95 | 208 | 0.0 | 4.0 | 0.00 | 0.00 | 0.00 | 36 | 1014.1 |
| 20260905175940 | 95 | 208 | 1.0 | 4.0 | 0.00 | 0.00 | 0.00 | 35 | 1014.1 |
| 20260905175819 | 95 | 208 | 2.0 | 4.0 | 0.00 | 0.00 | 0.00 | 36 | 1014.2 |
| 20260905175721 | 95 | 208 | 3.0 | 4.0 | 0.00 | 0.00 | 0.00 | 36 | 1014.1 |
| 20260905175651 | 95 | 208 | 3.0 | 4.0 | 0.00 | 0.00 | 0.00 | 36 | 1014.1 |
| 20260905175533 | 95 | 208 | 2.0 | 4.0 | 0.00 | 0.00 | 0.00 | 35 | 1014.2 |
| 20260905175414 | 95 | 208 | 1.0 | 4.0 | 0.00 | 0.00 | 0.00 | 35 | 1014.1 |
| 20260905175329 | 95 | 208 | 1.0 | 4.0 | 0.00 | 0.00 | 0.00 | 36 | 1014.1 |
| 20260905175231 | 95 | 208 | 1.0 | 4.0 | 0.00 | 0.00 | 0.00 | 36 | 1014.2 |
| 20260905175132 | 95 | 208 | 1.0 | 4.0 | 0.00 | 0.00 | 0.00 | 36 | 1014.1 |
| 20260905175037 | 95 | 208 | 1.0 | 4.0 | 0.00 | 0.00 | 0.00 | 37 | 1014.2 |
| 20260905174950 | 94 | 208 | 1.0 | 4.0 | 0.00 | 0.00 | 0.00 | 36 | 1014.2 |
| 20260905174837 | 94 | 208 | 1.0 | 4.0 | 0.00 | 0.00 | 0.00 | 37 | 1014.1 |
| 20260905174717 | 94 | 208 | 1.0 | 4.0 | 0.00 | 0.00 | 0.00 | 37 | 1014.1 |
| 20260905174647 | 94 | 208 | 1.0 | 4.0 | 0.00 | 0.00 | 0.00 | 37 | 1014.0 |
| 20260905174553 | 94 | 213 | 1.0 | 4.0 | 0.00 | 0.00 | 0.00 | 37 | 1014.0 |
| 20260905174440 | 94 | 213 | 2.0 | 4.0 | 0.00 | 0.00 | 0.00 | 37 | 1014.0 |
| 20260905174321 | 94 | 213 | 2.0 | 4.0 | 0.00 | 0.00 | 0.00 | 38 | 1014.0 |
| 20260905174252 | 94 | 213 | 2.0 | 4.0 | 0.00 | 0.00 | 0.00 | 37 | 1014.0 |
| 20260905174133 | 94 | 213 | 1.0 | 4.0 | 0.00 | 0.00 | 0.00 | 38 | 1014.1 |
| 20260905174042 | 93 | 213 | 1.0 | 4.0 | 0.00 | 0.00 | 0.00 | 38 | 1014.1 |
| 20260905173923 | 93 | 213 | 1.0 | 4.0 | 0.00 | 0.00 | 0.00 | 38 | 1014.0 |
| 20260905173832 | 93 | 213 | 2.0 | 4.0 | 0.00 | 0.00 | 0.00 | 38 | 1014.0 |
| 20260905173737 | 93 | 213 | 1.0 | 4.0 | 0.00 | 0.00 | 0.00 | 38 | 1014.1 |
| 20260905173646 | 93 | 213 | 1.0 | 4.0 | 0.00 | 0.00 | 0.00 | 38 | 1014.1 |
| 20260905173546 | 93 | 213 | 1.0 | 4.0 | 0.00 | 0.00 | 0.00 | 39 | 1014.1 |
| 20260905173435 | 93 | 213 | 1.0 | 3.0 | 0.00 | 0.00 | 0.00 | 39 | 1014.1 |
| 20260905173318 | 93 | 213 | 1.0 | 3.0 | 0.00 | 0.00 | 0.00 | 38 | 1014.1 |
| 20260905173220 | 93 | 213 | 1.0 | 3.0 | 0.00 | 0.00 | 0.00 | 38 | 1014.1 |
| 20260905173122 | 93 | 215 | 1.0 | 3.0 | 0.00 | 0.00 | 0.00 | 39 | 1014.1 |
| 20260905173017 | 93 | 215 | 1.0 | 3.0 | 0.00 | 0.00 | 0.00 | 38 | 1014.1 |
| 20260905172918 | 93 | 217 | 1.0 | 3.0 | 0.00 | 0.00 | 0.00 | 40 | 1014.0 |
| 20260905172820 | 92 | 231 | 1.0 | 3.0 | 0.00 | 0.00 | 0.00 | 40 | 1014.1 |
| 20260905172750 | 92 | 231 | 1.0 | 3.0 | 0.00 | 0.00 | 0.00 | 39 | 1014.1 |
| 20260905172658 | 92 | 231 | 1.0 | 3.0 | 0.00 | 0.00 | 0.00 | 39 | 1014.1 |
| 20260905172519 | 92 | 231 | 1.0 | 3.0 | 0.00 | 0.00 | 0.00 | 39 | 1014.1 |
| 20260905172426 | 92 | 231 | 1.0 | 3.0 | 0.00 | 0.00 | 0.00 | 39 | 1014.1 |
| 20260905172329 | 92 | 231 | 1.0 | 3.0 | 0.00 | 0.00 | 0.00 | 40 | 1014.1 |
| 20260905172237 | 92 | 231 | 1.0 | 3.0 | 0.00 | 0.00 | 0.00 | 40 | 1014.1 |
| 20260905172120 | 92 | 231 | 1.0 | 3.0 | 0.00 | 0.00 | 0.00 | 40 | 1014.0 |
| 20260905172022 | 92 | 231 | 0.0 | 3.0 | 0.00 | 0.00 | 0.00 | 39 | 1013.9 |
| 20260905171921 | 92 | 231 | 1.0 | 3.0 | 0.00 | 0.00 | 0.00 | 39 | 1014.0 |
| 20260905171835 | 92 | 231 | 1.0 | 3.0 | 0.00 | 0.00 | 0.00 | 40 | 1014.0 |
| 20260905171715 | 92 | 231 | 1.0 | 3.0 | 0.00 | 0.00 | 0.00 | 40 | 1014.0 |
| 20260905171618 | 92 | 231 | 1.0 | 3.0 | 0.00 | 0.00 | 0.00 | 40 | 1014.0 |
| 20260905171520 | 92 | 231 | 1.0 | 3.0 | 0.00 | 0.00 | 0.00 | 40 | 1014.0 |
| 20260905171451 | 92 | 246 | 0.0 | 2.0 | 0.00 | 0.00 | 0.00 | 40 | 1014.0 |
| 20260905171332 | 91 | 257 | 0.0 | 2.0 | 0.00 | 0.00 | 0.00 | 40 | 1014.1 |
| 20260905171226 | 92 | 257 | 0.0 | 2.0 | 0.00 | 0.00 | 0.00 | 40 | 1014.1 |
| 20260905171126 | 92 | 257 | 0.0 | 3.0 | 0.00 | 0.00 | 0.00 | 40 | 1014.1 |
| 20260905171028 | 92 | 257 | 0.0 | 3.0 | 0.00 | 0.00 | 0.00 | 40 | 1014.1 |
| 20260905170937 | 91 | 257 | 0.0 | 3.0 | 0.00 | 0.00 | 0.00 | 40 | 1014.1 |
| 20260905170819 | 91 | 257 | 0.0 | 3.0 | 0.00 | 0.00 | 0.00 | 40 | 1014.1 |
| 20260905170720 | 91 | 257 | 0.0 | 3.0 | 0.00 | 0.00 | 0.00 | 40 | 1014.0 |
| 20260905170651 | 91 | 257 | 0.0 | 3.0 | 0.00 | 0.00 | 0.00 | 40 | 1014.0 |
| 20260905170517 | 91 | 257 | 0.0 | 3.0 | 0.00 | 0.00 | 0.00 | 40 | 1014.0 |
| 20260905170419 | 91 | 257 | 1.0 | 3.0 | 0.00 | 0.00 | 0.00 | 40 | 1013.9 |
| 20260905170348 | 91 | 257 | 1.0 | 3.0 | 0.00 | 0.00 | 0.00 | 40 | 1013.9 |
| 20260905170250 | 91 | 257 | 0.0 | 2.0 | 0.00 | 0.00 | 0.00 | 40 | 1013.9 |
| 20260905170137 | 91 | 257 | 0.0 | 2.0 | 0.00 | 0.00 | 0.00 | 40 | 1014.0 |
| 20260905170030 | 91 | 257 | 1.0 | 2.0 | 0.00 | 0.00 | 0.00 | 41 | 1013.9 |
| 20260905165924 | 91 | 257 | 1.0 | 2.0 | 0.00 | 0.00 | 0.00 | 40 | 1013.9 |
| 20260905165854 | 91 | 257 | 1.0 | 2.0 | 0.00 | 0.00 | 0.00 | 40 | 1013.9 |
| 20260905165735 | 91 | 257 | 0.0 | 1.0 | 0.00 | 0.00 | 0.00 | 41 | 1013.9 |
| 20260905165617 | 91 | 257 | 0.0 | 1.0 | 0.00 | 0.00 | 0.00 | 41 | 1013.9 |
| 20260905165526 | 91 | 257 | 0.0 | 1.0 | 0.00 | 0.00 | 0.00 | 41 | 1013.8 |
| 20260905165445 | 91 | 257 | 0.0 | 1.0 | 0.00 | 0.00 | 0.00 | 41 | 1013.8 |
| 20260905165334 | 91 | 257 | 0.0 | 1.0 | 0.00 | 0.00 | 0.00 | 41 | 1013.8 |
| 20260905165220 | 91 | 257 | 0.0 | 1.0 | 0.00 | 0.00 | 0.00 | 40 | 1013.8 |
| 20260905165140 | 91 | 257 | 0.0 | 1.0 | 0.00 | 0.00 | 0.00 | 41 | 1013.8 |
| 20260905165029 | 91 | 257 | 0.0 | 1.0 | 0.00 | 0.00 | 0.00 | 41 | 1013.8 |
| 20260905164932 | 91 | 257 | 0.0 | 1.0 | 0.00 | 0.00 | 0.00 | 41 | 1013.8 |
| 20260905164833 | 91 | 257 | 0.0 | 2.0 | 0.00 | 0.00 | 0.00 | 41 | 1013.8 |
| 20260905164714 | 91 | 257 | 0.0 | 3.0 | 0.00 | 0.00 | 0.00 | 41 | 1013.8 |
| 20260905164630 | 91 | 257 | 0.0 | 3.0 | 0.00 | 0.00 | 0.00 | 41 | 1013.8 |
| 20260905164529 | 91 | 257 | 0.0 | 3.0 | 0.00 | 0.00 | 0.00 | 42 | 1013.9 |
| 20260905164439 | 90 | 257 | 0.0 | 3.0 | 0.00 | 0.00 | 0.00 | 41 | 1013.9 |
| 20260905164340 | 90 | 257 | 0.0 | 3.0 | 0.00 | 0.00 | 0.00 | 41 | 1014.0 |
| 20260905164223 | 90 | 257 | 0.0 | 3.0 | 0.00 | 0.00 | 0.00 | 41 | 1014.0 |
| 20260905164124 | 90 | 257 | 0.0 | 3.0 | 0.00 | 0.00 | 0.00 | 41 | 1014.0 |
| 20260905164038 | 90 | 257 | 1.0 | 3.0 | 0.00 | 0.00 | 0.00 | 42 | 1014.0 |
| 20260905163921 | 90 | 257 | 1.0 | 3.0 | 0.00 | 0.00 | 0.00 | 41 | 1014.0 |
| 20260905163824 | 90 | 257 | 1.0 | 2.0 | 0.00 | 0.00 | 0.00 | 41 | 1013.9 |
| 20260905163725 | 90 | 257 | 1.0 | 2.0 | 0.00 | 0.00 | 0.00 | 42 | 1014.0 |
| 20260905163635 | 90 | 257 | 1.0 | 2.0 | 0.00 | 0.00 | 0.00 | 42 | 1014.0 |
| 20260905163518 | 90 | 257 | 1.0 | 2.0 | 0.00 | 0.00 | 0.00 | 42 | 1013.9 |
| 20260905163424 | 90 | 257 | 1.0 | 2.0 | 0.00 | 0.00 | 0.00 | 42 | 1014.0 |
| 20260905163355 | 90 | 257 | 0.0 | 3.0 | 0.00 | 0.00 | 0.00 | 42 | 1014.0 |
| 20260905163215 | 90 | 257 | 0.0 | 3.0 | 0.00 | 0.00 | 0.00 | 42 | 1013.9 |
| 20260905163117 | 90 | 257 | 0.0 | 3.0 | 0.00 | 0.00 | 0.00 | 42 | 1013.8 |
| 20260905163046 | 90 | 257 | 0.0 | 3.0 | 0.00 | 0.00 | 0.00 | 43 | 1013.7 |
| 20260905162947 | 90 | 257 | 0.0 | 3.0 | 0.00 | 0.00 | 0.00 | 42 | 1013.8 |
| 20260905162835 | 89 | 257 | 1.0 | 3.0 | 0.00 | 0.00 | 0.00 | 43 | 1013.8 |
| 20260905162719 | 89 | 257 | 1.0 | 3.0 | 0.00 | 0.00 | 0.00 | 43 | 1013.8 |
| 20260905162621 | 89 | 257 | 1.0 | 3.0 | 0.00 | 0.00 | 0.00 | 43 | 1013.9 |
| 20260905162522 | 89 | 257 | 0.0 | 2.0 | 0.00 | 0.00 | 0.00 | 43 | 1013.9 |
| 20260905162433 | 89 | 257 | 0.0 | 3.0 | 0.00 | 0.00 | 0.00 | 43 | 1013.9 |
| 20260905162338 | 89 | 257 | 0.0 | 3.0 | 0.00 | 0.00 | 0.00 | 43 | 1013.9 |
| 20260905162240 | 89 | 257 | 0.0 | 3.0 | 0.00 | 0.00 | 0.00 | 43 | 1013.9 |
| 20260905162148 | 89 | 257 | 0.0 | 3.0 | 0.00 | 0.00 | 0.00 | 43 | 1014.0 |
| 20260905162033 | 89 | 257 | 0.0 | 3.0 | 0.00 | 0.00 | 0.00 | 43 | 1014.0 |
| 20260905161932 | 89 | 257 | 0.0 | 3.0 | 0.00 | 0.00 | 0.00 | 44 | 1014.0 |
| 20260905161840 | 89 | 257 | 0.0 | 3.0 | 0.00 | 0.00 | 0.00 | 43 | 1013.9 |
| 20260905161722 | 89 | 257 | 1.0 | 3.0 | 0.00 | 0.00 | 0.00 | 44 | 1014.0 |
| 20260905161624 | 89 | 257 | 0.0 | 3.0 | 0.00 | 0.00 | 0.00 | 44 | 1013.9 |
| 20260905161528 | 89 | 257 | 0.0 | 0.0 | 0.00 | 0.00 | 0.00 | 44 | 1013.9 |
| 20260905161441 | 89 | 257 | 0.0 | 0.0 | 0.00 | 0.00 | 0.00 | 44 | 1013.9 |
| 20260905161324 | 89 | 257 | 0.0 | 0.0 | 0.00 | 0.00 | 0.00 | 44 | 1013.9 |
| 20260905161227 | 89 | 257 | 0.0 | 0.0 | 0.00 | 0.00 | 0.00 | 44 | 1013.9 |
| 20260905161125 | 89 | 257 | 0.0 | 0.0 | 0.00 | 0.00 | 0.00 | 44 | 1013.8 |
| 20260905161035 | 89 | 257 | 0.0 | 0.0 | 0.00 | 0.00 | 0.00 | 44 | 1013.8 |
| 20260905160918 | 89 | 257 | 0.0 | 0.0 | 0.00 | 0.00 | 0.00 | 44 | 1013.8 |
| 20260905160824 | 89 | 257 | 0.0 | 0.0 | 0.00 | 0.00 | 0.00 | 44 | 1013.8 |
| 20260905160726 | 89 | 257 | 0.0 | 0.0 | 0.00 | 0.00 | 0.00 | 44 | 1013.8 |
| 20260905160635 | 89 | 257 | 0.0 | 0.0 | 0.00 | 0.00 | 0.00 | 45 | 1013.8 |
| 20260905160517 | 89 | 257 | 0.0 | 0.0 | 0.00 | 0.00 | 0.00 | 45 | 1013.8 |
| 20260905160439 | 89 | 257 | 0.0 | 0.0 | 0.00 | 0.00 | 0.00 | 45 | 1013.8 |
| 20260905160328 | 89 | 257 | 0.0 | 0.0 | 0.00 | 0.00 | 0.00 | 45 | 1013.8 |
| 20260905160257 | 89 | 257 | 0.0 | 0.0 | 0.00 | 0.00 | 0.00 | 45 | 1013.8 |
| 20260905160142 | 89 | 257 | 0.0 | 0.0 | 0.00 | 0.00 | 0.00 | 45 | 1013.7 |
| 20260905160034 | 89 | 257 | 0.0 | 0.0 | 0.00 | 0.00 | 0.00 | 44 | 1013.7 |
| 20260905155930 | 88 | 257 | 0.0 | 0.0 | 0.00 | 0.00 | 0.00 | 45 | 1013.7 |
| 20260905155830 | 88 | 257 | 0.0 | 0.0 | 0.00 | 0.00 | 0.00 | 45 | 1013.7 |
| 20260905155740 | 88 | 257 | 0.0 | 0.0 | 0.00 | 0.00 | 0.00 | 45 | 1013.7 |
| 20260905155620 | 88 | 257 | 0.0 | 0.0 | 0.00 | 0.00 | 0.00 | 45 | 1013.7 |
| 20260905155550 | 88 | 257 | 0.0 | 0.0 | 0.00 | 0.00 | 0.00 | 46 | 1013.7 |
| 20260905155415 | 88 | 257 | 0.0 | 0.0 | 0.00 | 0.00 | 0.00 | 46 | 1013.6 |
| 20260905155318 | 88 | 257 | 0.0 | 0.0 | 0.00 | 0.00 | 0.00 | 45 | 1013.7 |
| 20260905155229 | 88 | 257 | 0.0 | 0.0 | 0.00 | 0.00 | 0.00 | 46 | 1013.7 |
| 20260905155130 | 88 | 257 | 0.0 | 3.0 | 0.00 | 0.00 | 0.00 | 46 | 1013.7 |
| 20260905155033 | 88 | 257 | 0.0 | 3.0 | 0.00 | 0.00 | 0.00 | 46 | 1013.7 |
| 20260905154921 | 88 | 257 | 0.0 | 3.0 | 0.00 | 0.00 | 0.00 | 46 | 1013.7 |
| 20260905154826 | 88 | 257 | 0.0 | 3.0 | 0.00 | 0.00 | 0.00 | 46 | 1013.7 |
| 20260905154729 | 88 | 257 | 0.0 | 3.0 | 0.00 | 0.00 | 0.00 | 46 | 1013.7 |
| 20260905154638 | 87 | 257 | 0.0 | 3.0 | 0.00 | 0.00 | 0.00 | 46 | 1013.7 |
| 20260905154521 | 87 | 257 | 0.0 | 3.0 | 0.00 | 0.00 | 0.00 | 46 | 1013.5 |
| 20260905154443 | 87 | 257 | 0.0 | 3.0 | 0.00 | 0.00 | 0.00 | 46 | 1013.6 |
| 20260905154333 | 87 | 257 | 1.0 | 3.0 | 0.00 | 0.00 | 0.00 | 46 | 1013.6 |
| 20260905154219 | 87 | 257 | 1.0 | 3.0 | 0.00 | 0.00 | 0.00 | 46 | 1013.6 |
| 20260905154140 | 87 | 257 | 0.0 | 2.0 | 0.00 | 0.00 | 0.00 | 47 | 1013.5 |
| 20260905154047 | 87 | 257 | 0.0 | 1.0 | 0.00 | 0.00 | 0.00 | 47 | 1013.5 |
| 20260905153937 | 87 | 257 | 0.0 | 1.0 | 0.00 | 0.00 | 0.00 | 47 | 1013.5 |
| 20260905153837 | 87 | 257 | 0.0 | 2.0 | 0.00 | 0.00 | 0.00 | 47 | 1013.5 |
| 20260905153718 | 87 | 257 | 0.0 | 2.0 | 0.00 | 0.00 | 0.00 | 47 | 1013.5 |
| 20260905153620 | 87 | 257 | 0.0 | 2.0 | 0.00 | 0.00 | 0.00 | 47 | 1013.6 |
| 20260905153550 | 87 | 257 | 0.0 | 2.0 | 0.00 | 0.00 | 0.00 | 47 | 1013.6 |
| 20260905153436 | 87 | 257 | 0.0 | 2.0 | 0.00 | 0.00 | 0.00 | 46 | 1013.6 |
| 20260905153317 | 87 | 257 | 0.0 | 2.0 | 0.00 | 0.00 | 0.00 | 47 | 1013.5 |
| 20260905153226 | 87 | 257 | 0.0 | 2.0 | 0.00 | 0.00 | 0.00 | 47 | 1013.5 |
| 20260905153146 | 87 | 257 | 0.0 | 2.0 | 0.00 | 0.00 | 0.00 | 46 | 1013.5 |
| 20260905153055 | 87 | 257 | 0.0 | 2.0 | 0.00 | 0.00 | 0.00 | 46 | 1013.5 |
| 20260905152933 | 87 | 257 | 0.0 | 2.0 | 0.00 | 0.00 | 0.00 | 47 | 1013.5 |
| 20260905152842 | 87 | 257 | 0.0 | 2.0 | 0.00 | 0.00 | 0.00 | 47 | 1013.5 |
| 20260905152726 | 87 | 257 | 0.0 | 0.0 | 0.00 | 0.00 | 0.00 | 47 | 1013.5 |
| 20260905152656 | 87 | 257 | 0.0 | 0.0 | 0.00 | 0.00 | 0.00 | 47 | 1013.5 |
| 20260905152518 | 87 | 257 | 0.0 | 0.0 | 0.00 | 0.00 | 0.00 | 47 | 1013.6 |
| 20260905152419 | 86 | 257 | 0.0 | 0.0 | 0.00 | 0.00 | 0.00 | 47 | 1013.7 |
| 20260905152320 | 86 | 257 | 0.0 | 0.0 | 0.00 | 0.00 | 0.00 | 47 | 1013.7 |
| 20260905152228 | 86 | 257 | 0.0 | 0.0 | 0.00 | 0.00 | 0.00 | 48 | 1013.7 |
| 20260905152137 | 86 | 257 | 0.0 | 0.0 | 0.00 | 0.00 | 0.00 | 48 | 1013.6 |
| 20260905152021 | 86 | 257 | 0.0 | 0.0 | 0.00 | 0.00 | 0.00 | 47 | 1013.7 |
| 20260905151923 | 86 | 257 | 0.0 | 0.0 | 0.00 | 0.00 | 0.00 | 47 | 1013.6 |
| 20260905151825 | 86 | 257 | 0.0 | 0.0 | 0.00 | 0.00 | 0.00 | 49 | 1013.6 |
| 20260905151735 | 86 | 257 | 0.0 | 0.0 | 0.00 | 0.00 | 0.00 | 48 | 1013.6 |
| 20260905151618 | 86 | 257 | 0.0 | 1.0 | 0.00 | 0.00 | 0.00 | 48 | 1013.6 |
| 20260905151523 | 86 | 257 | 0.0 | 3.0 | 0.00 | 0.00 | 0.00 | 48 | 1013.6 |
| 20260905151424 | 86 | 257 | 0.0 | 3.0 | 0.00 | 0.00 | 0.00 | 48 | 1013.6 |
| 20260905151334 | 86 | 257 | 0.0 | 3.0 | 0.00 | 0.00 | 0.00 | 48 | 1013.6 |
| 20260905151237 | 86 | 257 | 0.0 | 3.0 | 0.00 | 0.00 | 0.00 | 48 | 1013.5 |
| 20260905151118 | 86 | 257 | 0.0 | 3.0 | 0.00 | 0.00 | 0.00 | 48 | 1013.5 |
| 20260905151029 | 86 | 257 | 0.0 | 3.0 | 0.00 | 0.00 | 0.00 | 48 | 1013.5 |
| 20260905150950 | 85 | 257 | 0.0 | 3.0 | 0.00 | 0.00 | 0.00 | 48 | 1013.5 |
| 20260905150841 | 85 | 257 | 0.0 | 3.0 | 0.00 | 0.00 | 0.00 | 48 | 1013.5 |
| 20260905150724 | 85 | 257 | 1.0 | 3.0 | 0.00 | 0.00 | 0.00 | 48 | 1013.3 |
| 20260905150625 | 85 | 257 | 0.0 | 2.0 | 0.00 | 0.00 | 0.00 | 48 | 1013.4 |
| 20260905150555 | 85 | 257 | 0.0 | 0.0 | 0.00 | 0.00 | 0.00 | 48 | 1013.4 |
| 20260905150415 | 85 | 257 | 0.0 | 0.0 | 0.00 | 0.00 | 0.00 | 49 | 1013.2 |
| 20260905150318 | 85 | 257 | 0.0 | 0.0 | 0.00 | 0.00 | 0.00 | 48 | 1013.4 |
| 20260905150224 | 85 | 257 | 0.0 | 0.0 | 0.00 | 0.00 | 0.00 | 48 | 1013.3 |
| 20260905150132 | 85 | 257 | 0.0 | 0.0 | 0.00 | 0.00 | 0.00 | 49 | 1013.3 |
| 20260905150052 | 85 | 257 | 0.0 | 0.0 | 0.00 | 0.00 | 0.00 | 49 | 1013.3 |
| 20260905145921 | 85 | 257 | 0.0 | 0.0 | 0.00 | 0.00 | 0.00 | 49 | 1013.3 |
| 20260905145821 | 85 | 257 | 0.0 | 0.0 | 0.00 | 0.00 | 0.00 | 48 | 1013.3 |
| 20260905145732 | 85 | 257 | 0.0 | 0.0 | 0.00 | 0.00 | 0.00 | 49 | 1013.3 |
| 20260905145653 | 85 | 257 | 0.0 | 0.0 | 0.00 | 0.00 | 0.00 | 49 | 1013.3 |
| 20260905145541 | 85 | 257 | 0.0 | 0.0 | 0.00 | 0.00 | 0.00 | 49 | 1013.4 |
| 20260905145426 | 84 | 257 | 0.0 | 0.0 | 0.00 | 0.00 | 0.00 | 49 | 1013.4 |
| 20260905145336 | 84 | 257 | 0.0 | 0.0 | 0.00 | 0.00 | 0.00 | 49 | 1013.4 |
| 20260905145216 | 84 | 257 | 0.0 | 0.0 | 0.00 | 0.00 | 0.00 | 49 | 1013.4 |
| 20260905145118 | 84 | 257 | 0.0 | 0.0 | 0.00 | 0.00 | 0.00 | 50 | 1013.4 |
| 20260905145020 | 84 | 257 | 0.0 | 0.0 | 0.00 | 0.00 | 0.00 | 50 | 1013.4 |
| 20260905144931 | 84 | 257 | 0.0 | 0.0 | 0.00 | 0.00 | 0.00 | 50 | 1013.4 |
| 20260905144837 | 84 | 257 | 0.0 | 0.0 | 0.00 | 0.00 | 0.00 | 51 | 1013.4 |
| 20260905144718 | 84 | 257 | 0.0 | 0.0 | 0.00 | 0.00 | 0.00 | 51 | 1013.4 |
| 20260905144628 | 84 | 257 | 0.0 | 0.0 | 0.00 | 0.00 | 0.00 | 51 | 1013.4 |
| 20260905144529 | 84 | 257 | 0.0 | 0.0 | 0.00 | 0.00 | 0.00 | 52 | 1013.4 |
| 20260905144432 | 84 | 257 | 0.0 | 0.0 | 0.00 | 0.00 | 0.00 | 52 | 1013.4 |
| 20260905144341 | 84 | 257 | 0.0 | 0.0 | 0.00 | 0.00 | 0.00 | 52 | 1013.4 |
| 20260905144228 | 83 | 257 | 0.0 | 0.0 | 0.00 | 0.00 | 0.00 | 51 | 1013.4 |
| 20260905144130 | 83 | 257 | 0.0 | 0.0 | 0.00 | 0.00 | 0.00 | 51 | 1013.5 |
| 20260905144033 | 83 | 257 | 0.0 | 0.0 | 0.00 | 0.00 | 0.00 | 51 | 1013.4 |
| 20260905143916 | 83 | 257 | 0.0 | 2.0 | 0.00 | 0.00 | 0.00 | 51 | 1013.4 |
| 20260905143845 | 83 | 257 | 0.0 | 3.0 | 0.00 | 0.00 | 0.00 | 51 | 1013.3 |
| 20260905143724 | 83 | 257 | 0.0 | 3.0 | 0.00 | 0.00 | 0.00 | 51 | 1013.3 |
| 20260905143638 | 83 | 257 | 0.0 | 3.0 | 0.00 | 0.00 | 0.00 | 51 | 1013.3 |
| 20260905143519 | 83 | 257 | 0.0 | 3.0 | 0.00 | 0.00 | 0.00 | 51 | 1013.3 |
| 20260905143428 | 83 | 257 | 0.0 | 3.0 | 0.00 | 0.00 | 0.00 | 51 | 1013.3 |
| 20260905143330 | 83 | 257 | 0.0 | 3.0 | 0.00 | 0.00 | 0.00 | 50 | 1013.4 |
| 20260905143231 | 83 | 257 | 0.0 | 3.0 | 0.00 | 0.00 | 0.00 | 50 | 1013.4 |
| 20260905143141 | 83 | 257 | 1.0 | 3.0 | 0.00 | 0.00 | 0.00 | 50 | 1013.4 |
| 20260905143021 | 83 | 257 | 1.0 | 3.0 | 0.00 | 0.00 | 0.00 | 50 | 1013.4 |
| 20260905142956 | 83 | 257 | 0.0 | 2.0 | 0.00 | 0.00 | 0.00 | 50 | 1013.4 |
| 20260905142736 | 83 | 257 | 0.0 | 2.0 | 0.00 | 0.00 | 0.00 | 50 | 1013.3 |
| 20260905142619 | 83 | 257 | 0.0 | 5.0 | 0.00 | 0.00 | 0.00 | 50 | 1013.4 |
| 20260905142542 | 83 | 257 | 0.0 | 5.0 | 0.00 | 0.00 | 0.00 | 50 | 1013.4 |
| 20260905142430 | 83 | 257 | 0.0 | 5.0 | 0.00 | 0.00 | 0.00 | 50 | 1013.4 |
| 20260905142319 | 83 | 257 | 0.0 | 5.0 | 0.00 | 0.00 | 0.00 | 51 | 1013.3 |
| 20260905142225 | 83 | 257 | 1.0 | 5.0 | 0.00 | 0.00 | 0.00 | 50 | 1013.2 |
| 20260905142135 | 83 | 257 | 1.0 | 5.0 | 0.00 | 0.00 | 0.00 | 50 | 1013.2 |
| 20260905142035 | 83 | 257 | 1.0 | 5.0 | 0.00 | 0.00 | 0.00 | 50 | 1013.3 |
| 20260905141916 | 83 | 257 | 1.0 | 5.0 | 0.00 | 0.00 | 0.00 | 50 | 1013.2 |
| 20260905141825 | 83 | 257 | 2.0 | 5.0 | 0.00 | 0.00 | 0.00 | 50 | 1013.2 |
| 20260905141728 | 83 | 257 | 2.0 | 4.0 | 0.00 | 0.00 | 0.00 | 49 | 1013.2 |
| 20260905141628 | 83 | 257 | 2.0 | 4.0 | 0.00 | 0.00 | 0.00 | 49 | 1013.2 |
| 20260905141521 | 83 | 257 | 1.0 | 4.0 | 0.00 | 0.00 | 0.00 | 50 | 1013.1 |
| 20260905141421 | 83 | 258 | 1.0 | 4.0 | 0.00 | 0.00 | 0.00 | 50 | 1013.1 |
| 20260905141332 | 83 | 258 | 1.0 | 4.0 | 0.00 | 0.00 | 0.00 | 50 | 1013.1 |
| 20260905141233 | 83 | 258 | 1.0 | 4.0 | 0.00 | 0.00 | 0.00 | 50 | 1013.0 |
| 20260905141143 | 83 | 258 | 0.0 | 2.0 | 0.00 | 0.00 | 0.00 | 50 | 1013.0 |
| 20260905141022 | 83 | 258 | 0.0 | 2.0 | 0.00 | 0.00 | 0.00 | 50 | 1013.0 |
| 20260905140945 | 83 | 258 | 0.0 | 2.0 | 0.00 | 0.00 | 0.00 | 50 | 1013.0 |
| 20260905140836 | 83 | 258 | 0.0 | 3.0 | 0.00 | 0.00 | 0.00 | 50 | 1013.0 |
| 20260905140739 | 83 | 258 | 0.0 | 3.0 | 0.00 | 0.00 | 0.00 | 51 | 1012.9 |
| 20260905140620 | 83 | 258 | 0.0 | 3.0 | 0.00 | 0.00 | 0.00 | 51 | 1013.0 |
| 20260905140530 | 83 | 258 | 0.0 | 3.0 | 0.00 | 0.00 | 0.00 | 52 | 1013.0 |
| 20260905140433 | 83 | 258 | 0.0 | 3.0 | 0.00 | 0.00 | 0.00 | 52 | 1012.9 |
| 20260905140335 | 83 | 258 | 0.0 | 3.0 | 0.00 | 0.00 | 0.00 | 52 | 1013.0 |
| 20260905140220 | 83 | 258 | 0.0 | 3.0 | 0.00 | 0.00 | 0.00 | 52 | 1012.9 |
| 20260905140132 | 83 | 258 | 1.0 | 3.0 | 0.00 | 0.00 | 0.00 | 52 | 1012.9 |
| 20260905140045 | 83 | 258 | 1.0 | 3.0 | 0.00 | 0.00 | 0.00 | 52 | 1012.9 |
| 20260905135916 | 83 | 258 | 0.0 | 1.0 | 0.00 | 0.00 | 0.00 | 52 | 1012.9 |
| 20260905135825 | 83 | 258 | 0.0 | 1.0 | 0.00 | 0.00 | 0.00 | 52 | 1012.9 |
| 20260905135729 | 83 | 258 | 0.0 | 1.0 | 0.00 | 0.00 | 0.00 | 52 | 1012.9 |
| 20260905135635 | 83 | 258 | 0.0 | 1.0 | 0.00 | 0.00 | 0.00 | 52 | 1012.9 |
| 20260905135518 | 83 | 258 | 0.0 | 1.0 | 0.00 | 0.00 | 0.00 | 52 | 1013.0 |
| 20260905135426 | 83 | 258 | 0.0 | 1.0 | 0.00 | 0.00 | 0.00 | 52 | 1012.8 |
| 20260905135328 | 82 | 258 | 0.0 | 1.0 | 0.00 | 0.00 | 0.00 | 52 | 1012.8 |
| 20260905135230 | 82 | 258 | 0.0 | 1.0 | 0.00 | 0.00 | 0.00 | 52 | 1012.8 |
| 20260905135116 | 82 | 258 | 0.0 | 1.0 | 0.00 | 0.00 | 0.00 | 52 | 1012.7 |
| 20260905135025 | 82 | 258 | 0.0 | 1.0 | 0.00 | 0.00 | 0.00 | 52 | 1012.8 |
| 20260905134929 | 82 | 258 | 0.0 | 1.0 | 0.00 | 0.00 | 0.00 | 52 | 1012.8 |
| 20260905134839 | 82 | 258 | 0.0 | 1.0 | 0.00 | 0.00 | 0.00 | 52 | 1012.8 |
| 20260905134732 | 82 | 258 | 0.0 | 0.0 | 0.00 | 0.00 | 0.00 | 52 | 1012.8 |
| 20260905134634 | 82 | 258 | 0.0 | 0.0 | 0.00 | 0.00 | 0.00 | 52 | 1012.9 |
| 20260905134520 | 82 | 258 | 0.0 | 1.0 | 0.00 | 0.00 | 0.00 | 52 | 1012.8 |
| 20260905134431 | 82 | 258 | 0.0 | 1.0 | 0.00 | 0.00 | 0.00 | 52 | 1012.8 |
| 20260905134330 | 82 | 258 | 0.0 | 1.0 | 0.00 | 0.00 | 0.00 | 52 | 1012.9 |
| 20260905134239 | 82 | 258 | 0.0 | 1.0 | 0.00 | 0.00 | 0.00 | 51 | 1012.9 |
| 20260905134121 | 82 | 258 | 0.0 | 1.0 | 0.00 | 0.00 | 0.00 | 51 | 1012.7 |
| 20260905134023 | 82 | 258 | 0.0 | 1.0 | 0.00 | 0.00 | 0.00 | 52 | 1012.7 |
| 20260905133953 | 82 | 258 | 0.0 | 1.0 | 0.00 | 0.00 | 0.00 | 52 | 1012.7 |
| 20260905133839 | 82 | 258 | 0.0 | 1.0 | 0.00 | 0.00 | 0.00 | 52 | 1012.7 |
| 20260905133726 | 82 | 258 | 0.0 | 1.0 | 0.00 | 0.00 | 0.00 | 52 | 1012.7 |
| 20260905133628 | 82 | 146 | 0.0 | 1.0 | 0.00 | 0.00 | 0.00 | 52 | 1012.7 |
| 20260905133529 | 82 | 146 | 0.0 | 1.0 | 0.00 | 0.00 | 0.00 | 52 | 1012.7 |
| 20260905133439 | 82 | 146 | 0.0 | 1.0 | 0.00 | 0.00 | 0.00 | 52 | 1012.7 |
| 20260905133320 | 82 | 146 | 0.0 | 1.0 | 0.00 | 0.00 | 0.00 | 52 | 1012.6 |
| 20260905133222 | 82 | 250 | 0.0 | 0.0 | 0.00 | 0.00 | 0.00 | 52 | 1012.6 |
| 20260905133137 | 82 | 250 | 0.0 | 0.0 | 0.00 | 0.00 | 0.00 | 52 | 1012.6 |
| 20260905133036 | 82 | 250 | 0.0 | 0.0 | 0.00 | 0.00 | 0.00 | 51 | 1012.6 |
| 20260905132918 | 82 | 250 | 0.0 | 0.0 | 0.00 | 0.00 | 0.00 | 51 | 1012.5 |
| 20260905132821 | 82 | 250 | 0.0 | 0.0 | 0.00 | 0.00 | 0.00 | 51 | 1012.5 |
| 20260905132729 | 82 | 250 | 0.0 | 0.0 | 0.00 | 0.00 | 0.00 | 51 | 1012.5 |
| 20260905132659 | 82 | 250 | 0.0 | 0.0 | 0.00 | 0.00 | 0.00 | 51 | 1012.5 |
| 20260905132524 | 82 | 250 | 0.0 | 0.0 | 0.00 | 0.00 | 0.00 | 51 | 1012.5 |
| 20260905132424 | 82 | 250 | 0.0 | 0.0 | 0.00 | 0.00 | 0.00 | 50 | 1012.5 |
| 20260905132334 | 82 | 250 | 0.0 | 0.0 | 0.00 | 0.00 | 0.00 | 50 | 1012.5 |
| 20260905132216 | 82 | 250 | 0.0 | 0.0 | 0.00 | 0.00 | 0.00 | 50 | 1012.5 |
| 20260905132119 | 82 | 250 | 0.0 | 0.0 | 0.00 | 0.00 | 0.00 | 50 | 1012.5 |
| 20260905132021 | 82 | 250 | 0.0 | 0.0 | 0.00 | 0.00 | 0.00 | 50 | 1012.6 |
| 20260905131952 | 82 | 250 | 0.0 | 0.0 | 0.00 | 0.00 | 0.00 | 50 | 1012.6 |
| 20260905131818 | 82 | 250 | 0.0 | 0.0 | 0.00 | 0.00 | 0.00 | 50 | 1012.4 |
| 20260905131746 | 83 | 250 | 0.0 | 0.0 | 0.00 | 0.00 | 0.00 | 49 | 1012.6 |
| 20260905131646 | 83 | 250 | 0.0 | 0.0 | 0.00 | 0.00 | 0.00 | 49 | 1012.5 |
| 20260905131554 | 83 | 250 | 0.0 | 0.0 | 0.00 | 0.00 | 0.00 | 49 | 1012.5 |
| 20260905131415 | 83 | 250 | 0.0 | 2.0 | 0.00 | 0.00 | 0.00 | 48 | 1012.5 |
| 20260905131325 | 83 | 250 | 0.0 | 2.0 | 0.00 | 0.00 | 0.00 | 48 | 1012.6 |
| 20260905131228 | 83 | 250 | 0.0 | 3.0 | 0.00 | 0.00 | 0.00 | 47 | 1012.6 |
| 20260905131133 | 83 | 250 | 0.0 | 3.0 | 0.00 | 0.00 | 0.00 | 47 | 1012.6 |
| 20260905131041 | 83 | 250 | 0.0 | 3.0 | 0.00 | 0.00 | 0.00 | 47 | 1012.5 |
| 20260905130923 | 83 | 250 | 0.0 | 3.0 | 0.00 | 0.00 | 0.00 | 47 | 1012.5 |
| 20260905130826 | 83 | 250 | 0.0 | 3.0 | 0.00 | 0.00 | 0.00 | 47 | 1012.5 |
| 20260905130729 | 83 | 250 | 0.0 | 3.0 | 0.00 | 0.00 | 0.00 | 47 | 1012.5 |
| 20260905130637 | 83 | 250 | 0.0 | 3.0 | 0.00 | 0.00 | 0.00 | 47 | 1012.5 |
| 20260905130523 | 83 | 250 | 1.0 | 4.0 | 0.00 | 0.00 | 0.00 | 47 | 1012.4 |
| 20260905130446 | 83 | 250 | 1.0 | 4.0 | 0.00 | 0.00 | 0.00 | 47 | 1012.4 |
| 20260905130228 | 83 | 250 | 1.0 | 4.0 | 0.00 | 0.00 | 0.00 | 47 | 1012.4 |
| 20260905130137 | 83 | 250 | 1.0 | 4.0 | 0.00 | 0.00 | 0.00 | 47 | 1012.4 |
| 20260905130029 | 83 | 250 | 1.0 | 4.0 | 0.00 | 0.00 | 0.00 | 47 | 1012.4 |
| 20260905125919 | 83 | 250 | 1.0 | 4.0 | 0.00 | 0.00 | 0.00 | 47 | 1012.4 |
| 20260905125854 | 83 | 250 | 1.0 | 4.0 | 0.00 | 0.00 | 0.00 | 47 | 1012.4 |
| 20260905125733 | 83 | 250 | 2.0 | 4.0 | 0.00 | 0.00 | 0.00 | 47 | 1012.4 |
| 20260905125643 | 83 | 250 | 2.0 | 3.0 | 0.00 | 0.00 | 0.00 | 47 | 1012.3 |
| 20260905125523 | 83 | 250 | 1.0 | 3.0 | 0.00 | 0.00 | 0.00 | 47 | 1012.2 |
| 20260905125454 | 83 | 250 | 1.0 | 3.0 | 0.00 | 0.00 | 0.00 | 47 | 1012.2 |
| 20260905125334 | 83 | 250 | 1.0 | 3.0 | 0.00 | 0.00 | 0.00 | 47 | 1012.4 |
| 20260905125215 | 83 | 250 | 0.0 | 2.0 | 0.00 | 0.00 | 0.00 | 47 | 1012.3 |
| 20260905125129 | 83 | 250 | 0.0 | 2.0 | 0.00 | 0.00 | 0.00 | 47 | 1012.3 |
| 20260905125050 | 83 | 250 | 0.0 | 2.0 | 0.00 | 0.00 | 0.00 | 47 | 1012.2 |
| 20260905124939 | 83 | 250 | 0.0 | 2.0 | 0.00 | 0.00 | 0.00 | 47 | 1012.2 |
| 20260905124821 | 83 | 250 | 0.0 | 3.0 | 0.00 | 0.00 | 0.00 | 47 | 1012.1 |
| 20260905124724 | 83 | 250 | 1.0 | 3.0 | 0.00 | 0.00 | 0.00 | 47 | 1012.1 |
| 20260905124625 | 83 | 250 | 1.0 | 3.0 | 0.00 | 0.00 | 0.00 | 47 | 1012.2 |
| 20260905124535 | 83 | 250 | 1.0 | 3.0 | 0.00 | 0.00 | 0.00 | 47 | 1012.2 |
| 20260905124421 | 83 | 250 | 0.0 | 3.0 | 0.00 | 0.00 | 0.00 | 47 | 1012.1 |
| 20260905124323 | 83 | 250 | 0.0 | 3.0 | 0.00 | 0.00 | 0.00 | 47 | 1012.2 |
| 20260905124234 | 83 | 250 | 0.0 | 3.0 | 0.00 | 0.00 | 0.00 | 47 | 1012.2 |
| 20260905124135 | 83 | 250 | 0.0 | 3.0 | 0.00 | 0.00 | 0.00 | 47 | 1012.2 |
| 20260905124016 | 83 | 250 | 0.0 | 3.0 | 0.00 | 0.00 | 0.00 | 48 | 1012.2 |
| 20260905123921 | 83 | 250 | 0.0 | 0.0 | 0.00 | 0.00 | 0.00 | 47 | 1012.2 |
| 20260905123832 | 83 | 250 | 0.0 | 0.0 | 0.00 | 0.00 | 0.00 | 47 | 1012.2 |
| 20260905123733 | 83 | 250 | 0.0 | 0.0 | 0.00 | 0.00 | 0.00 | 47 | 1012.1 |
| 20260905123702 | 83 | 250 | 0.0 | 0.0 | 0.00 | 0.00 | 0.00 | 47 | 1012.2 |
| 20260905123522 | 83 | 250 | 0.0 | 0.0 | 0.00 | 0.00 | 0.00 | 47 | 1012.1 |
| 20260905123423 | 83 | 250 | 0.0 | 0.0 | 0.00 | 0.00 | 0.00 | 47 | 1012.1 |
| 20260905123334 | 83 | 250 | 0.0 | 0.0 | 0.00 | 0.00 | 0.00 | 47 | 1012.1 |
| 20260905123219 | 83 | 250 | 0.0 | 0.0 | 0.00 | 0.00 | 0.00 | 47 | 1012.1 |
| 20260905123121 | 83 | 250 | 0.0 | 0.0 | 0.00 | 0.00 | 0.00 | 47 | 1012.0 |
| 20260905123022 | 83 | 250 | 0.0 | 0.0 | 0.00 | 0.00 | 0.00 | 47 | 1012.0 |
| 20260905122933 | 83 | 250 | 0.0 | 0.0 | 0.00 | 0.00 | 0.00 | 47 | 1012.0 |
| 20260905122835 | 83 | 250 | 0.0 | 0.0 | 0.00 | 0.00 | 0.00 | 47 | 1011.9 |
| 20260905122717 | 83 | 250 | 0.0 | 0.0 | 0.00 | 0.00 | 0.00 | 47 | 1011.9 |
| 20260905122650 | 83 | 250 | 0.0 | 0.0 | 0.00 | 0.00 | 0.00 | 47 | 1011.9 |
| 20260905122530 | 83 | 250 | 0.0 | 0.0 | 0.00 | 0.00 | 0.00 | 47 | 1011.9 |
| 20260905122432 | 83 | 250 | 0.0 | 0.0 | 0.00 | 0.00 | 0.00 | 47 | 1011.9 |
| 20260905122341 | 83 | 250 | 0.0 | 0.0 | 0.00 | 0.00 | 0.00 | 46 | 1011.9 |
| 20260905122223 | 83 | 250 | 0.0 | 0.0 | 0.00 | 0.00 | 0.00 | 46 | 1012.0 |
| 20260905122125 | 83 | 250 | 0.0 | 0.0 | 0.00 | 0.00 | 0.00 | 47 | 1012.0 |
| 20260905122039 | 83 | 250 | 0.0 | 0.0 | 0.00 | 0.00 | 0.00 | 47 | 1012.0 |
| 20260905121919 | 83 | 250 | 0.0 | 0.0 | 0.00 | 0.00 | 0.00 | 46 | 1012.0 |
| 20260905121821 | 83 | 250 | 0.0 | 0.0 | 0.00 | 0.00 | 0.00 | 46 | 1012.0 |
| 20260905121732 | 83 | 250 | 0.0 | 0.0 | 0.00 | 0.00 | 0.00 | 46 | 1012.0 |
| 20260905121615 | 83 | 250 | 0.0 | 0.0 | 0.00 | 0.00 | 0.00 | 46 | 1012.2 |
| 20260905121518 | 83 | 250 | 0.0 | 0.0 | 0.00 | 0.00 | 0.00 | 46 | 1012.1 |
| 20260905121422 | 83 | 250 | 0.0 | 0.0 | 0.00 | 0.00 | 0.00 | 46 | 1012.0 |
| 20260905121340 | 83 | 250 | 0.0 | 0.0 | 0.00 | 0.00 | 0.00 | 46 | 1012.0 |
| 20260905121249 | 83 | 250 | 0.0 | 0.0 | 0.00 | 0.00 | 0.00 | 46 | 1012.0 |
| 20260905121129 | 83 | 250 | 0.0 | 0.0 | 0.00 | 0.00 | 0.00 | 45 | 1012.0 |
| 20260905121038 | 83 | 250 | 0.0 | 0.0 | 0.00 | 0.00 | 0.00 | 45 | 1012.1 |
| 20260905120919 | 83 | 250 | 0.0 | 0.0 | 0.00 | 0.00 | 0.00 | 46 | 1011.9 |
| 20260905120821 | 83 | 250 | 0.0 | 0.0 | 0.00 | 0.00 | 0.00 | 46 | 1011.9 |
| 20260905120752 | 83 | 250 | 0.0 | 0.0 | 0.00 | 0.00 | 0.00 | 45 | 1011.9 |
| 20260905120638 | 83 | 250 | 0.0 | 0.0 | 0.00 | 0.00 | 0.00 | 46 | 1011.9 |
| 20260905120543 | 83 | 250 | 0.0 | 0.0 | 0.00 | 0.00 | 0.00 | 46 | 1011.8 |
| 20260905120432 | 83 | 250 | 0.0 | 0.0 | 0.00 | 0.00 | 0.00 | 46 | 1011.8 |
| 20260905120334 | 83 | 250 | 0.0 | 0.0 | 0.00 | 0.00 | 0.00 | 46 | 1011.8 |
| 20260905120215 | 83 | 250 | 0.0 | 0.0 | 0.00 | 0.00 | 0.00 | 45 | 1011.8 |
| 20260905120117 | 84 | 250 | 0.0 | 0.0 | 0.00 | 0.00 | 0.00 | 45 | 1011.8 |
| 20260905120038 | 84 | 250 | 0.0 | 0.0 | 0.00 | 0.00 | 0.00 | 45 | 1011.8 |
| 20260905115933 | 84 | 250 | 0.0 | 0.0 | 0.00 | 0.00 | 0.00 | 45 | 1011.9 |
| 20260905115834 | 84 | 250 | 0.0 | 0.0 | 0.00 | 0.00 | 0.00 | 45 | 1011.9 |
| 20260905115715 | 84 | 250 | 0.0 | 0.0 | 0.00 | 0.00 | 0.00 | 45 | 1012.0 |
| 20260905115625 | 84 | 250 | 0.0 | 0.0 | 0.00 | 0.00 | 0.00 | 45 | 1011.9 |
| 20260905115528 | 84 | 250 | 0.0 | 0.0 | 0.00 | 0.00 | 0.00 | 44 | 1011.9 |
| 20260905115455 | 84 | 250 | 0.0 | 0.0 | 0.00 | 0.00 | 0.00 | 45 | 1012.0 |
| 20260905115318 | 84 | 250 | 0.0 | 0.0 | 0.00 | 0.00 | 0.00 | 45 | 1011.9 |
| 20260905115219 | 84 | 250 | 0.0 | 0.0 | 0.00 | 0.00 | 0.00 | 45 | 1011.9 |
| 20260905115130 | 84 | 250 | 0.0 | 0.0 | 0.00 | 0.00 | 0.00 | 45 | 1011.9 |
| 20260905115033 | 84 | 250 | 0.0 | 0.0 | 0.00 | 0.00 | 0.00 | 45 | 1011.8 |
| 20260905114915 | 84 | 250 | 0.0 | 0.0 | 0.00 | 0.00 | 0.00 | 45 | 1011.9 |
| 20260905114817 | 84 | 250 | 0.0 | 0.0 | 0.00 | 0.00 | 0.00 | 45 | 1011.9 |
| 20260905114732 | 84 | 250 | 0.0 | 0.0 | 0.00 | 0.00 | 0.00 | 45 | 1011.9 |
| 20260905114632 | 84 | 250 | 0.0 | 0.0 | 0.00 | 0.00 | 0.00 | 45 | 1011.8 |
| 20260905114535 | 84 | 250 | 0.0 | 0.0 | 0.00 | 0.00 | 0.00 | 45 | 1011.9 |
| 20260905114416 | 83 | 250 | 0.0 | 0.0 | 0.00 | 0.00 | 0.00 | 45 | 1011.8 |
| 20260905114325 | 83 | 250 | 0.0 | 0.0 | 0.00 | 0.00 | 0.00 | 45 | 1011.8 |
| 20260905114248 | 83 | 250 | 0.0 | 0.0 | 0.00 | 0.00 | 0.00 | 46 | 1011.8 |
| 20260905114032 | 83 | 250 | 0.0 | 0.0 | 0.00 | 0.00 | 0.00 | 46 | 1011.8 |
| 20260905113941 | 83 | 250 | 0.0 | 0.0 | 0.00 | 0.00 | 0.00 | 47 | 1011.8 |
| 20260905113819 | 83 | 250 | 0.0 | 0.0 | 0.00 | 0.00 | 0.00 | 47 | 1011.8 |
| 20260905113749 | 83 | 250 | 0.0 | 0.0 | 0.00 | 0.00 | 0.00 | 47 | 1011.8 |
| 20260905113649 | 83 | 250 | 0.0 | 0.0 | 0.00 | 0.00 | 0.00 | 47 | 1011.8 |
| 20260905113516 | 83 | 250 | 0.0 | 0.0 | 0.00 | 0.00 | 0.00 | 47 | 1011.8 |
| 20260905113447 | 83 | 250 | 0.0 | 0.0 | 0.00 | 0.00 | 0.00 | 46 | 1011.8 |
| 20260905113326 | 83 | 250 | 0.0 | 0.0 | 0.00 | 0.00 | 0.00 | 47 | 1011.8 |
| 20260905113254 | 83 | 250 | 0.0 | 0.0 | 0.00 | 0.00 | 0.00 | 47 | 1011.8 |
| 20260905113119 | 83 | 250 | 0.0 | 0.0 | 0.00 | 0.00 | 0.00 | 47 | 1011.8 |
| 20260905113049 | 83 | 250 | 0.0 | 0.0 | 0.00 | 0.00 | 0.00 | 47 | 1011.8 |
| 20260905112931 | 83 | 250 | 0.0 | 0.0 | 0.00 | 0.00 | 0.00 | 46 | 1011.8 |
| 20260905112832 | 83 | 250 | 0.0 | 0.0 | 0.00 | 0.00 | 0.00 | 46 | 1011.8 |
| 20260905112742 | 83 | 250 | 0.0 | 0.0 | 0.00 | 0.00 | 0.00 | 46 | 1011.8 |
| 20260905112623 | 83 | 250 | 0.0 | 0.0 | 0.00 | 0.00 | 0.00 | 46 | 1011.8 |
| 20260905112530 | 84 | 250 | 0.0 | 0.0 | 0.00 | 0.00 | 0.00 | 46 | 1011.8 |
| 20260905112433 | 84 | 250 | 0.0 | 0.0 | 0.00 | 0.00 | 0.00 | 46 | 1011.8 |
| 20260905112341 | 84 | 250 | 0.0 | 0.0 | 0.00 | 0.00 | 0.00 | 45 | 1011.8 |
| 20260905112223 | 84 | 250 | 0.0 | 0.0 | 0.00 | 0.00 | 0.00 | 45 | 1011.8 |
| 20260905112124 | 84 | 250 | 0.0 | 0.0 | 0.00 | 0.00 | 0.00 | 45 | 1011.9 |
| 20260905112025 | 84 | 250 | 0.0 | 0.0 | 0.00 | 0.00 | 0.00 | 45 | 1011.8 |
| 20260905111939 | 84 | 250 | 0.0 | 0.0 | 0.00 | 0.00 | 0.00 | 45 | 1011.8 |
| 20260905111820 | 84 | 250 | 0.0 | 0.0 | 0.00 | 0.00 | 0.00 | 45 | 1011.7 |
| 20260905111730 | 84 | 250 | 0.0 | 0.0 | 0.00 | 0.00 | 0.00 | 45 | 1011.7 |
| 20260905111632 | 84 | 250 | 0.0 | 0.0 | 0.00 | 0.00 | 0.00 | 45 | 1011.7 |
| 20260905111539 | 84 | 250 | 0.0 | 0.0 | 0.00 | 0.00 | 0.00 | 45 | 1011.7 |
| 20260905111421 | 84 | 250 | 0.0 | 0.0 | 0.00 | 0.00 | 0.00 | 45 | 1011.6 |
| 20260905111322 | 84 | 250 | 0.0 | 0.0 | 0.00 | 0.00 | 0.00 | 45 | 1011.7 |
| 20260905111257 | 84 | 250 | 0.0 | 0.0 | 0.00 | 0.00 | 0.00 | 45 | 1011.7 |
| 20260905111118 | 84 | 250 | 0.0 | 0.0 | 0.00 | 0.00 | 0.00 | 45 | 1011.7 |
| 20260905111019 | 85 | 250 | 0.0 | 0.0 | 0.00 | 0.00 | 0.00 | 45 | 1011.7 |
| 20260905110929 | 85 | 250 | 0.0 | 0.0 | 0.00 | 0.00 | 0.00 | 45 | 1011.7 |
| 20260905110852 | 85 | 250 | 0.0 | 0.0 | 0.00 | 0.00 | 0.00 | 45 | 1011.7 |
| 20260905110740 | 85 | 250 | 0.0 | 0.0 | 0.00 | 0.00 | 0.00 | 44 | 1011.7 |
| 20260905110641 | 85 | 250 | 0.0 | 0.0 | 0.00 | 0.00 | 0.00 | 44 | 1011.7 |
| 20260905110530 | 85 | 250 | 0.0 | 0.0 | 0.00 | 0.00 | 0.00 | 44 | 1011.7 |
| 20260905110441 | 85 | 250 | 0.0 | 0.0 | 0.00 | 0.00 | 0.00 | 44 | 1011.7 |
| 20260905110323 | 85 | 250 | 0.0 | 0.0 | 0.00 | 0.00 | 0.00 | 44 | 1011.7 |
| 20260905110224 | 85 | 250 | 0.0 | 0.0 | 0.00 | 0.00 | 0.00 | 44 | 1011.7 |
| 20260905110127 | 85 | 250 | 0.0 | 0.0 | 0.00 | 0.00 | 0.00 | 44 | 1011.7 |
| 20260905110048 | 85 | 250 | 0.0 | 0.0 | 0.00 | 0.00 | 0.00 | 44 | 1011.7 |
| 20260905105918 | 84 | 250 | 0.0 | 0.0 | 0.00 | 0.00 | 0.00 | 45 | 1011.7 |
| 20260905105823 | 84 | 250 | 0.0 | 0.0 | 0.00 | 0.00 | 0.00 | 44 | 1011.6 |
| 20260905105734 | 84 | 250 | 0.0 | 0.0 | 0.00 | 0.00 | 0.00 | 44 | 1011.6 |
| 20260905105615 | 84 | 250 | 0.0 | 0.0 | 0.00 | 0.00 | 0.00 | 44 | 1011.7 |
| 20260905105516 | 84 | 250 | 0.0 | 0.0 | 0.00 | 0.00 | 0.00 | 44 | 1011.6 |
| 20260905105417 | 84 | 250 | 0.0 | 0.0 | 0.00 | 0.00 | 0.00 | 45 | 1011.6 |
| 20260905105327 | 84 | 250 | 0.0 | 0.0 | 0.00 | 0.00 | 0.00 | 44 | 1011.6 |
| 20260905105232 | 84 | 250 | 0.0 | 0.0 | 0.00 | 0.00 | 0.00 | 45 | 1011.6 |
| 20260905105115 | 84 | 250 | 0.0 | 0.0 | 0.00 | 0.00 | 0.00 | 45 | 1011.7 |
| 20260905105017 | 84 | 250 | 0.0 | 0.0 | 0.00 | 0.00 | 0.00 | 44 | 1011.7 |
| 20260905104946 | 84 | 250 | 0.0 | 0.0 | 0.00 | 0.00 | 0.00 | 44 | 1011.7 |
| 20260905104825 | 84 | 250 | 0.0 | 0.0 | 0.00 | 0.00 | 0.00 | 44 | 1011.8 |
| 20260905104735 | 84 | 250 | 0.0 | 0.0 | 0.00 | 0.00 | 0.00 | 44 | 1011.8 |
| 20260905104622 | 84 | 250 | 0.0 | 0.0 | 0.00 | 0.00 | 0.00 | 45 | 1011.8 |
| 20260905104523 | 84 | 250 | 0.0 | 0.0 | 0.00 | 0.00 | 0.00 | 45 | 1011.8 |
| 20260905104453 | 84 | 250 | 0.0 | 0.0 | 0.00 | 0.00 | 0.00 | 44 | 1011.8 |
| 20260905104334 | 84 | 250 | 0.0 | 0.0 | 0.00 | 0.00 | 0.00 | 44 | 1011.7 |
| 20260905104216 | 84 | 250 | 0.0 | 0.0 | 0.00 | 0.00 | 0.00 | 44 | 1011.7 |
| 20260905104118 | 85 | 250 | 0.0 | 0.0 | 0.00 | 0.00 | 0.00 | 44 | 1011.6 |
| 20260905104046 | 85 | 250 | 0.0 | 0.0 | 0.00 | 0.00 | 0.00 | 44 | 1011.6 |
| 20260905103933 | 85 | 250 | 0.0 | 0.0 | 0.00 | 0.00 | 0.00 | 44 | 1011.6 |
| 20260905103815 | 85 | 250 | 0.0 | 0.0 | 0.00 | 0.00 | 0.00 | 44 | 1011.6 |
| 20260905103745 | 85 | 250 | 0.0 | 0.0 | 0.00 | 0.00 | 0.00 | 44 | 1011.6 |
| 20260905103626 | 85 | 250 | 0.0 | 0.0 | 0.00 | 0.00 | 0.00 | 44 | 1011.6 |
| 20260905103555 | 85 | 250 | 0.0 | 0.0 | 0.00 | 0.00 | 0.00 | 44 | 1011.6 |
| 20260905103443 | 85 | 250 | 0.0 | 0.0 | 0.00 | 0.00 | 0.00 | 43 | 1011.7 |
| 20260905103324 | 85 | 250 | 0.0 | 0.0 | 0.00 | 0.00 | 0.00 | 44 | 1011.7 |
| 20260905103258 | 85 | 250 | 0.0 | 0.0 | 0.00 | 0.00 | 0.00 | 44 | 1011.7 |
| 20260905103119 | 85 | 250 | 0.0 | 1.0 | 0.00 | 0.00 | 0.00 | 44 | 1011.7 |
| 20260905103020 | 85 | 250 | 0.0 | 2.0 | 0.00 | 0.00 | 0.00 | 44 | 1011.7 |
| 20260905102921 | 85 | 250 | 0.0 | 2.0 | 0.00 | 0.00 | 0.00 | 44 | 1011.7 |
| 20260905102832 | 85 | 250 | 0.0 | 2.0 | 0.00 | 0.00 | 0.00 | 43 | 1011.7 |
| 20260905102755 | 85 | 250 | 0.0 | 2.0 | 0.00 | 0.00 | 0.00 | 43 | 1011.7 |
| 20260905102618 | 85 | 250 | 0.0 | 2.0 | 0.00 | 0.00 | 0.00 | 43 | 1011.7 |
| 20260905102528 | 85 | 250 | 0.0 | 2.0 | 0.00 | 0.00 | 0.00 | 43 | 1011.7 |
| 20260905102428 | 85 | 250 | 0.0 | 2.0 | 0.00 | 0.00 | 0.00 | 43 | 1011.7 |
| 20260905102337 | 85 | 250 | 0.0 | 2.0 | 0.00 | 0.00 | 0.00 | 43 | 1011.6 |
| 20260905102219 | 85 | 250 | 0.0 | 2.0 | 0.00 | 0.00 | 0.00 | 43 | 1011.7 |
| 20260905102121 | 85 | 250 | 0.0 | 1.0 | 0.00 | 0.00 | 0.00 | 43 | 1011.7 |
| 20260905102051 | 85 | 250 | 0.0 | 1.0 | 0.00 | 0.00 | 0.00 | 43 | 1011.7 |
| 20260905101938 | 85 | 360 | 0.0 | 1.0 | 0.00 | 0.00 | 0.00 | 43 | 1011.7 |
| 20260905101823 | 86 | 360 | 0.0 | 1.0 | 0.00 | 0.00 | 0.00 | 43 | 1011.6 |
| 20260905101732 | 86 | 249 | 0.0 | 2.0 | 0.00 | 0.00 | 0.00 | 43 | 1011.6 |
| 20260905101615 | 86 | 250 | 0.0 | 2.0 | 0.00 | 0.00 | 0.00 | 43 | 1011.6 |
| 20260905101518 | 86 | 360 | 0.0 | 2.0 | 0.00 | 0.00 | 0.00 | 43 | 1011.6 |
| 20260905101420 | 86 | 250 | 0.0 | 2.0 | 0.00 | 0.00 | 0.00 | 42 | 1011.6 |
| 20260905101330 | 86 | 250 | 0.0 | 2.0 | 0.00 | 0.00 | 0.00 | 42 | 1011.6 |
| 20260905101216 | 86 | 250 | 0.0 | 2.0 | 0.00 | 0.00 | 0.00 | 42 | 1011.5 |
| 20260905101119 | 86 | 250 | 0.0 | 2.0 | 0.00 | 0.00 | 0.00 | 42 | 1011.5 |
| 20260905101020 | 86 | 250 | 0.0 | 2.0 | 0.00 | 0.00 | 0.00 | 42 | 1011.5 |
| 20260905100951 | 86 | 250 | 0.0 | 2.0 | 0.00 | 0.00 | 0.00 | 42 | 1011.5 |
| 20260905100832 | 86 | 250 | 0.0 | 2.0 | 0.00 | 0.00 | 0.00 | 42 | 1011.5 |
| 20260905100741 | 86 | 250 | 0.0 | 2.0 | 0.00 | 0.00 | 0.00 | 42 | 1011.6 |
| 20260905100628 | 86 | 250 | 0.0 | 2.0 | 0.00 | 0.00 | 0.00 | 42 | 1011.5 |
| 20260905100529 | 86 | 250 | 0.0 | 2.0 | 0.00 | 0.00 | 0.00 | 42 | 1011.4 |
| 20260905100431 | 86 | 250 | 0.0 | 2.0 | 0.00 | 0.00 | 0.00 | 42 | 1011.4 |
| 20260905100340 | 86 | 250 | 0.0 | 2.0 | 0.00 | 0.00 | 0.00 | 42 | 1011.4 |
| 20260905100222 | 86 | 250 | 1.0 | 2.0 | 0.00 | 0.00 | 0.00 | 42 | 1011.4 |
| 20260905100123 | 86 | 250 | 1.0 | 2.0 | 0.00 | 0.00 | 0.00 | 41 | 1011.4 |
| 20260905100106 | 87 | 250 | 1.0 | 2.0 | 0.00 | 0.00 | 0.00 | 41 | 1011.4 |
| 20260905095917 | 87 | 250 | 0.0 | 2.0 | 0.00 | 0.00 | 0.00 | 41 | 1011.3 |
| 20260905095828 | 87 | 250 | 0.0 | 3.0 | 0.00 | 0.00 | 0.00 | 41 | 1011.3 |
| 20260905095729 | 87 | 250 | 0.0 | 3.0 | 0.00 | 0.00 | 0.00 | 41 | 1011.4 |
| 20260905095631 | 87 | 250 | 0.0 | 3.0 | 0.00 | 0.00 | 0.00 | 41 | 1011.4 |
| 20260905095539 | 87 | 250 | 0.0 | 4.0 | 0.00 | 0.00 | 0.00 | 41 | 1011.4 |
| 20260905095421 | 87 | 250 | 0.0 | 4.0 | 0.00 | 0.00 | 0.00 | 41 | 1011.3 |
| 20260905095328 | 87 | 250 | 0.0 | 4.0 | 0.00 | 0.00 | 0.00 | 41 | 1011.3 |
| 20260905095239 | 87 | 250 | 0.0 | 4.0 | 0.00 | 0.00 | 0.00 | 41 | 1011.4 |
| 20260905095140 | 87 | 250 | 0.0 | 4.0 | 0.00 | 0.00 | 0.00 | 41 | 1011.5 |
| 20260905095041 | 87 | 250 | 1.0 | 4.0 | 0.00 | 0.00 | 0.00 | 41 | 1011.4 |
| 20260905094931 | 87 | 250 | 1.0 | 4.0 | 0.00 | 0.00 | 0.00 | 41 | 1011.4 |
| 20260905094833 | 87 | 250 | 1.0 | 4.0 | 0.00 | 0.00 | 0.00 | 41 | 1011.3 |
| 20260905094719 | 87 | 250 | 1.0 | 4.0 | 0.00 | 0.00 | 0.00 | 41 | 1011.5 |
| 20260905094621 | 87 | 250 | 0.0 | 3.0 | 0.00 | 0.00 | 0.00 | 41 | 1011.4 |
| 20260905094532 | 87 | 250 | 0.0 | 3.0 | 0.00 | 0.00 | 0.00 | 41 | 1011.4 |
| 20260905094433 | 87 | 250 | 0.0 | 3.0 | 0.00 | 0.00 | 0.00 | 41 | 1011.4 |
| 20260905094316 | 87 | 250 | 1.0 | 3.0 | 0.00 | 0.00 | 0.00 | 41 | 1011.4 |
| 20260905094218 | 87 | 250 | 1.0 | 3.0 | 0.00 | 0.00 | 0.00 | 41 | 1011.4 |
| 20260905094132 | 87 | 250 | 0.0 | 3.0 | 0.00 | 0.00 | 0.00 | 41 | 1011.4 |
| 20260905094053 | 87 | 250 | 0.0 | 2.0 | 0.00 | 0.00 | 0.00 | 41 | 1011.4 |
| 20260905093941 | 87 | 250 | 0.0 | 2.0 | 0.00 | 0.00 | 0.00 | 41 | 1011.6 |
| 20260905093820 | 87 | 250 | 0.0 | 3.0 | 0.00 | 0.00 | 0.00 | 41 | 1011.5 |
| 20260905093723 | 87 | 250 | 0.0 | 3.0 | 0.00 | 0.00 | 0.00 | 41 | 1011.6 |
| 20260905093632 | 87 | 250 | 1.0 | 3.0 | 0.00 | 0.00 | 0.00 | 41 | 1011.6 |
| 20260905093517 | 87 | 250 | 1.0 | 3.0 | 0.00 | 0.00 | 0.00 | 41 | 1011.6 |
| 20260905093420 | 87 | 250 | 1.0 | 3.0 | 0.00 | 0.00 | 0.00 | 41 | 1011.6 |
| 20260905093321 | 87 | 250 | 0.0 | 3.0 | 0.00 | 0.00 | 0.00 | 41 | 1011.5 |
| 20260905093231 | 87 | 250 | 0.0 | 3.0 | 0.00 | 0.00 | 0.00 | 41 | 1011.5 |
| 20260905093139 | 87 | 250 | 1.0 | 3.0 | 0.00 | 0.00 | 0.00 | 41 | 1011.6 |
| 20260905093040 | 87 | 250 | 1.0 | 3.0 | 0.00 | 0.00 | 0.00 | 41 | 1011.5 |
| 20260905092950 | 87 | 250 | 1.0 | 3.0 | 0.00 | 0.00 | 0.00 | 41 | 1011.5 |
| 20260905092815 | 87 | 250 | 1.0 | 3.0 | 0.00 | 0.00 | 0.00 | 41 | 1011.6 |
| 20260905092737 | 87 | 250 | 1.0 | 3.0 | 0.00 | 0.00 | 0.00 | 41 | 1011.6 |
| 20260905092645 | 87 | 250 | 0.0 | 3.0 | 0.00 | 0.00 | 0.00 | 41 | 1011.5 |
| 20260905092528 | 87 | 250 | 0.0 | 3.0 | 0.00 | 0.00 | 0.00 | 41 | 1011.5 |
| 20260905092416 | 87 | 250 | 0.0 | 3.0 | 0.00 | 0.00 | 0.00 | 41 | 1011.6 |
| 20260905092319 | 87 | 250 | 0.0 | 3.0 | 0.00 | 0.00 | 0.00 | 41 | 1011.6 |
| 20260905092220 | 87 | 250 | 0.0 | 2.0 | 0.00 | 0.00 | 0.00 | 41 | 1011.6 |
| 20260905092131 | 87 | 250 | 0.0 | 2.0 | 0.00 | 0.00 | 0.00 | 41 | 1011.6 |
| 20260905092017 | 87 | 250 | 0.0 | 2.0 | 0.00 | 0.00 | 0.00 | 41 | 1011.6 |
| 20260905091919 | 87 | 360 | 0.0 | 2.0 | 0.00 | 0.00 | 0.00 | 41 | 1011.5 |
| 20260905091849 | 87 | 360 | 0.0 | 2.0 | 0.00 | 0.00 | 0.00 | 41 | 1011.5 |
| 20260905091729 | 87 | 360 | 0.0 | 2.0 | 0.00 | 0.00 | 0.00 | 41 | 1011.4 |
| 20260905091640 | 87 | 360 | 0.0 | 3.0 | 0.00 | 0.00 | 0.00 | 41 | 1011.4 |
| 20260905091519 | 87 | 360 | 1.0 | 3.0 | 0.00 | 0.00 | 0.00 | 41 | 1011.4 |
| 20260905091427 | 87 | 360 | 0.0 | 3.0 | 0.00 | 0.00 | 0.00 | 41 | 1011.4 |
| 20260905091335 | 87 | 360 | 0.0 | 3.0 | 0.00 | 0.00 | 0.00 | 40 | 1011.4 |
| 20260905091218 | 87 | 360 | 0.0 | 3.0 | 0.00 | 0.00 | 0.00 | 41 | 1011.5 |
| 20260905091120 | 87 | 360 | 0.0 | 3.0 | 0.00 | 0.00 | 0.00 | 41 | 1011.5 |
| 20260905091029 | 87 | 360 | 0.0 | 3.0 | 0.00 | 0.00 | 0.00 | 41 | 1011.5 |
| 20260905090931 | 87 | 360 | 1.0 | 3.0 | 0.00 | 0.00 | 0.00 | 40 | 1011.5 |
| 20260905090839 | 87 | 360 | 1.0 | 3.0 | 0.00 | 0.00 | 0.00 | 40 | 1011.4 |
| 20260905090725 | 87 | 360 | 0.0 | 3.0 | 0.00 | 0.00 | 0.00 | 40 | 1011.4 |
| 20260905090628 | 87 | 360 | 1.0 | 2.0 | 0.00 | 0.00 | 0.00 | 40 | 1011.4 |
| 20260905090557 | 87 | 360 | 1.0 | 3.0 | 0.00 | 0.00 | 0.00 | 40 | 1011.4 |
| 20260905090419 | 87 | 360 | 0.0 | 3.0 | 0.00 | 0.00 | 0.00 | 40 | 1011.4 |
| 20260905090321 | 87 | 360 | 0.0 | 3.0 | 0.00 | 0.00 | 0.00 | 40 | 1011.4 |
| 20260905090223 | 87 | 360 | 0.0 | 3.0 | 0.00 | 0.00 | 0.00 | 40 | 1011.4 |
| 20260905090137 | 87 | 360 | 0.0 | 3.0 | 0.00 | 0.00 | 0.00 | 40 | 1011.4 |
| 20260905090030 | 87 | 360 | 0.0 | 3.0 | 0.00 | 0.00 | 0.00 | 40 | 1011.4 |
| 20260905085921 | 87 | 248 | 0.0 | 3.0 | 0.00 | 0.00 | 0.00 | 40 | 1011.4 |
| 20260905085851 | 87 | 248 | 1.0 | 3.0 | 0.00 | 0.00 | 0.00 | 40 | 1011.4 |
| 20260905085733 | 87 | 249 | 1.0 | 3.0 | 0.00 | 0.00 | 0.00 | 40 | 1011.4 |
| 20260905085614 | 87 | 249 | 1.0 | 3.0 | 0.00 | 0.00 | 0.00 | 40 | 1011.4 |
| 20260905085529 | 87 | 249 | 1.0 | 3.0 | 0.00 | 0.00 | 0.00 | 40 | 1011.4 |
| 20260905085432 | 87 | 249 | 1.0 | 3.0 | 0.00 | 0.00 | 0.00 | 40 | 1011.4 |
| 20260905085400 | 87 | 249 | 1.0 | 3.0 | 0.00 | 0.00 | 0.00 | 40 | 1011.4 |
| 20260905085222 | 87 | 249 | 1.0 | 3.0 | 0.00 | 0.00 | 0.00 | 40 | 1011.4 |
| 20260905085143 | 87 | 249 | 0.0 | 2.0 | 0.00 | 0.00 | 0.00 | 40 | 1011.4 |
| 20260905085032 | 87 | 250 | 0.0 | 2.0 | 0.00 | 0.00 | 0.00 | 40 | 1011.4 |
| 20260905084934 | 87 | 250 | 0.0 | 3.0 | 0.00 | 0.00 | 0.00 | 40 | 1011.5 |
| 20260905084846 | 88 | 250 | 0.0 | 4.0 | 0.00 | 0.00 | 0.00 | 40 | 1011.4 |
| 20260905084727 | 88 | 250 | 0.0 | 4.0 | 0.00 | 0.00 | 0.00 | 40 | 1011.4 |
| 20260905084629 | 88 | 250 | 0.0 | 4.0 | 0.00 | 0.00 | 0.00 | 40 | 1011.4 |
| 20260905084539 | 88 | 250 | 0.0 | 4.0 | 0.00 | 0.00 | 0.00 | 40 | 1011.4 |
| 20260905084439 | 88 | 250 | 0.0 | 4.0 | 0.00 | 0.00 | 0.00 | 40 | 1011.3 |
| 20260905084328 | 88 | 250 | 1.0 | 4.0 | 0.00 | 0.00 | 0.00 | 40 | 1011.3 |
| 20260905084230 | 88 | 250 | 1.0 | 4.0 | 0.00 | 0.00 | 0.00 | 40 | 1011.4 |
| 20260905084116 | 88 | 250 | 2.0 | 5.0 | 0.00 | 0.00 | 0.00 | 40 | 1011.4 |
| 20260905084017 | 88 | 250 | 2.0 | 6.0 | 0.00 | 0.00 | 0.00 | 40 | 1011.4 |
| 20260905083928 | 88 | 250 | 2.0 | 6.0 | 0.00 | 0.00 | 0.00 | 40 | 1011.4 |
| 20260905083850 | 88 | 250 | 2.0 | 6.0 | 0.00 | 0.00 | 0.00 | 40 | 1011.3 |
| 20260905083736 | 88 | 250 | 2.0 | 7.0 | 0.00 | 0.00 | 0.00 | 39 | 1011.3 |
| 20260905083617 | 88 | 250 | 2.0 | 7.0 | 0.00 | 0.00 | 0.00 | 39 | 1011.4 |
| 20260905083518 | 88 | 250 | 2.0 | 7.0 | 0.00 | 0.00 | 0.00 | 39 | 1011.3 |
| 20260905083433 | 88 | 250 | 2.0 | 7.0 | 0.00 | 0.00 | 0.00 | 39 | 1011.3 |
| 20260905083335 | 88 | 250 | 3.0 | 7.0 | 0.00 | 0.00 | 0.00 | 39 | 1011.4 |
| 20260905083217 | 88 | 250 | 2.0 | 7.0 | 0.00 | 0.00 | 0.00 | 39 | 1011.4 |
| 20260905083117 | 88 | 250 | 2.0 | 7.0 | 0.00 | 0.00 | 0.00 | 39 | 1011.4 |
| 20260905083028 | 88 | 250 | 4.0 | 7.0 | 0.00 | 0.00 | 0.00 | 39 | 1011.4 |
| 20260905082929 | 88 | 250 | 4.0 | 7.0 | 0.00 | 0.00 | 0.00 | 39 | 1011.3 |
| 20260905082843 | 88 | 250 | 3.0 | 7.0 | 0.00 | 0.00 | 0.00 | 40 | 1011.3 |
| 20260905082725 | 88 | 249 | 3.0 | 7.0 | 0.00 | 0.00 | 0.00 | 39 | 1011.3 |
| 20260905082646 | 88 | 249 | 3.0 | 7.0 | 0.00 | 0.00 | 0.00 | 39 | 1011.3 |
| 20260905082554 | 88 | 249 | 3.0 | 7.0 | 0.00 | 0.00 | 0.00 | 40 | 1011.3 |
| 20260905082501 | 88 | 249 | 3.0 | 7.0 | 0.00 | 0.00 | 0.00 | 40 | 1011.3 |
| 20260905082323 | 88 | 248 | 2.0 | 7.0 | 0.00 | 0.00 | 0.00 | 40 | 1011.3 |
| 20260905082225 | 88 | 248 | 2.0 | 7.0 | 0.00 | 0.00 | 0.00 | 40 | 1011.3 |
| 20260905082137 | 88 | 248 | 2.0 | 7.0 | 0.00 | 0.00 | 0.00 | 40 | 1011.3 |
| 20260905082019 | 88 | 248 | 3.0 | 7.0 | 0.00 | 0.00 | 0.00 | 40 | 1011.3 |
| 20260905081921 | 88 | 248 | 3.0 | 7.0 | 0.00 | 0.00 | 0.00 | 40 | 1011.3 |
| 20260905081824 | 88 | 248 | 3.0 | 7.0 | 0.00 | 0.00 | 0.00 | 40 | 1011.3 |
| 20260905081735 | 88 | 248 | 3.0 | 6.0 | 0.00 | 0.00 | 0.00 | 40 | 1011.3 |
| 20260905081654 | 88 | 248 | 2.0 | 6.0 | 0.00 | 0.00 | 0.00 | 40 | 1011.4 |
| 20260905081518 | 88 | 244 | 2.0 | 6.0 | 0.00 | 0.00 | 0.00 | 40 | 1011.4 |
| 20260905081429 | 88 | 244 | 1.0 | 6.0 | 0.00 | 0.00 | 0.00 | 40 | 1011.4 |
| 20260905081332 | 88 | 244 | 2.0 | 6.0 | 0.00 | 0.00 | 0.00 | 40 | 1011.5 |
| 20260905081235 | 88 | 243 | 3.0 | 6.0 | 0.00 | 0.00 | 0.00 | 40 | 1011.5 |
| 20260905081117 | 88 | 243 | 3.0 | 6.0 | 0.00 | 0.00 | 0.00 | 40 | 1011.4 |
| 20260905081047 | 88 | 243 | 2.0 | 5.0 | 0.00 | 0.00 | 0.00 | 40 | 1011.4 |
| 20260905080956 | 88 | 243 | 1.0 | 5.0 | 0.00 | 0.00 | 0.00 | 40 | 1011.4 |
| 20260905080821 | 88 | 243 | 1.0 | 5.0 | 0.00 | 0.00 | 0.00 | 40 | 1011.5 |
| 20260905080722 | 89 | 243 | 2.0 | 4.0 | 0.00 | 0.00 | 0.00 | 40 | 1011.5 |
| 20260905080633 | 89 | 243 | 2.0 | 4.0 | 0.00 | 0.00 | 0.00 | 39 | 1011.5 |
| 20260905080539 | 89 | 243 | 2.0 | 4.0 | 0.00 | 0.00 | 0.00 | 39 | 1011.5 |
| 20260905080421 | 89 | 243 | 1.0 | 5.0 | 0.00 | 0.00 | 0.00 | 39 | 1011.6 |
| 20260905080323 | 89 | 243 | 2.0 | 5.0 | 0.00 | 0.00 | 0.00 | 39 | 1011.5 |
| 20260905080225 | 89 | 243 | 1.0 | 5.0 | 0.00 | 0.00 | 0.00 | 39 | 1011.4 |
| 20260905080140 | 89 | 243 | 1.0 | 5.0 | 0.00 | 0.00 | 0.00 | 39 | 1011.4 |
| 20260905080034 | 89 | 243 | 1.0 | 5.0 | 0.00 | 0.00 | 0.00 | 39 | 1011.4 |
| 20260905075924 | 89 | 243 | 1.0 | 5.0 | 0.00 | 0.00 | 0.00 | 39 | 1011.4 |
| 20260905075833 | 89 | 243 | 1.0 | 5.0 | 0.00 | 0.00 | 0.00 | 39 | 1011.4 |
| 20260905075734 | 89 | 243 | 1.0 | 5.0 | 0.00 | 0.00 | 0.00 | 39 | 1011.5 |
| 20260905075621 | 89 | 243 | 1.0 | 5.0 | 0.00 | 0.00 | 0.00 | 39 | 1011.4 |
| 20260905075522 | 89 | 243 | 1.0 | 4.0 | 0.00 | 0.00 | 0.00 | 39 | 1011.5 |
| 20260905075432 | 89 | 243 | 2.0 | 4.0 | 0.00 | 0.00 | 0.00 | 39 | 1011.5 |
| 20260905075332 | 89 | 243 | 1.0 | 4.0 | 0.00 | 0.00 | 0.00 | 39 | 1011.4 |
| 20260905075234 | 89 | 243 | 1.0 | 3.0 | 0.00 | 0.00 | 0.00 | 39 | 1011.4 |
| 20260905075116 | 89 | 243 | 1.0 | 3.0 | 0.00 | 0.00 | 0.00 | 39 | 1011.4 |
| 20260905075031 | 89 | 242 | 1.0 | 3.0 | 0.00 | 0.00 | 0.00 | 39 | 1011.4 |
| 20260905074933 | 89 | 242 | 0.0 | 3.0 | 0.00 | 0.00 | 0.00 | 39 | 1011.4 |
| 20260905074816 | 89 | 242 | 1.0 | 3.0 | 0.00 | 0.00 | 0.00 | 39 | 1011.4 |
| 20260905074744 | 89 | 242 | 1.0 | 3.0 | 0.00 | 0.00 | 0.00 | 39 | 1011.4 |
| 20260905074627 | 89 | 241 | 1.0 | 3.0 | 0.00 | 0.00 | 0.00 | 39 | 1011.4 |
| 20260905074528 | 89 | 241 | 1.0 | 3.0 | 0.00 | 0.00 | 0.00 | 39 | 1011.3 |
| 20260905074437 | 89 | 241 | 1.0 | 3.0 | 0.00 | 0.00 | 0.00 | 39 | 1011.4 |
| 20260905074322 | 89 | 241 | 1.0 | 3.0 | 0.00 | 0.00 | 0.00 | 39 | 1011.4 |
| 20260905074222 | 89 | 241 | 0.0 | 3.0 | 0.00 | 0.00 | 0.00 | 39 | 1011.4 |
| 20260905074133 | 89 | 241 | 0.0 | 3.0 | 0.00 | 0.00 | 0.00 | 39 | 1011.4 |
| 20260905074015 | 89 | 241 | 0.0 | 1.0 | 0.00 | 0.00 | 0.00 | 39 | 1011.4 |
| 20260905073917 | 89 | 241 | 0.0 | 1.0 | 0.00 | 0.00 | 0.00 | 38 | 1011.4 |
| 20260905073828 | 89 | 241 | 0.0 | 1.0 | 0.00 | 0.00 | 0.00 | 38 | 1011.4 |
| 20260905073733 | 89 | 241 | 0.0 | 1.0 | 0.00 | 0.00 | 0.00 | 38 | 1011.4 |
| 20260905073616 | 90 | 241 | 0.0 | 1.0 | 0.00 | 0.00 | 0.00 | 38 | 1011.5 |
| 20260905073518 | 90 | 241 | 0.0 | 1.0 | 0.00 | 0.00 | 0.00 | 38 | 1011.4 |
| 20260905073428 | 90 | 241 | 0.0 | 1.0 | 0.00 | 0.00 | 0.00 | 38 | 1011.4 |
| 20260905073330 | 90 | 241 | 0.0 | 2.0 | 0.00 | 0.00 | 0.00 | 38 | 1011.4 |
| 20260905073217 | 90 | 241 | 0.0 | 2.0 | 0.00 | 0.00 | 0.00 | 38 | 1011.5 |
| 20260905073118 | 90 | 241 | 0.0 | 2.0 | 0.00 | 0.00 | 0.00 | 38 | 1011.5 |
| 20260905073028 | 90 | 241 | 0.0 | 2.0 | 0.00 | 0.00 | 0.00 | 38 | 1011.5 |
| 20260905072949 | 90 | 241 | 0.0 | 2.0 | 0.00 | 0.00 | 0.00 | 38 | 1011.5 |
| 20260905072837 | 90 | 241 | 0.0 | 2.0 | 0.00 | 0.00 | 0.00 | 38 | 1011.4 |
| 20260905072739 | 89 | 241 | 0.0 | 2.0 | 0.00 | 0.00 | 0.00 | 38 | 1011.4 |
| 20260905072620 | 90 | 241 | 0.0 | 2.0 | 0.00 | 0.00 | 0.00 | 38 | 1011.3 |
| 20260905072534 | 90 | 241 | 0.0 | 2.0 | 0.00 | 0.00 | 0.00 | 38 | 1011.3 |
| 20260905072456 | 90 | 241 | 0.0 | 2.0 | 0.00 | 0.00 | 0.00 | 38 | 1011.3 |
| 20260905072344 | 90 | 241 | 0.0 | 2.0 | 0.00 | 0.00 | 0.00 | 38 | 1011.3 |
| 20260905072254 | 90 | 241 | 0.0 | 2.0 | 0.00 | 0.00 | 0.00 | 38 | 1011.3 |
| 20260905072134 | 90 | 241 | 0.0 | 2.0 | 0.00 | 0.00 | 0.00 | 38 | 1011.3 |
| 20260905072016 | 90 | 241 | 1.0 | 2.0 | 0.00 | 0.00 | 0.00 | 38 | 1011.3 |
| 20260905071916 | 90 | 241 | 0.0 | 2.0 | 0.00 | 0.00 | 0.00 | 38 | 1011.3 |
| 20260905071829 | 90 | 241 | 0.0 | 2.0 | 0.00 | 0.00 | 0.00 | 38 | 1011.3 |
| 20260905071731 | 90 | 241 | 0.0 | 2.0 | 0.00 | 0.00 | 0.00 | 38 | 1011.3 |
| 20260905071634 | 90 | 241 | 0.0 | 2.0 | 0.00 | 0.00 | 0.00 | 38 | 1011.3 |
| 20260905071516 | 90 | 241 | 0.0 | 4.0 | 0.00 | 0.00 | 0.00 | 38 | 1011.3 |
| 20260905071425 | 90 | 241 | 0.0 | 4.0 | 0.00 | 0.00 | 0.00 | 38 | 1011.4 |
| 20260905071328 | 90 | 241 | 0.0 | 4.0 | 0.00 | 0.00 | 0.00 | 38 | 1011.4 |
| 20260905071234 | 90 | 241 | 0.0 | 4.0 | 0.00 | 0.00 | 0.00 | 38 | 1011.3 |
| 20260905071116 | 90 | 241 | 0.0 | 4.0 | 0.00 | 0.00 | 0.00 | 38 | 1011.3 |
| 20260905071025 | 90 | 241 | 1.0 | 5.0 | 0.00 | 0.00 | 0.00 | 38 | 1011.4 |
| 20260905070925 | 90 | 241 | 1.0 | 5.0 | 0.00 | 0.00 | 0.00 | 38 | 1011.4 |
| 20260905070834 | 90 | 241 | 1.0 | 5.0 | 0.00 | 0.00 | 0.00 | 38 | 1011.4 |
| 20260905070716 | 90 | 241 | 0.0 | 5.0 | 0.00 | 0.00 | 0.00 | 38 | 1011.4 |
| 20260905070621 | 91 | 241 | 0.0 | 5.0 | 0.00 | 0.00 | 0.00 | 38 | 1011.4 |
| 20260905070523 | 91 | 241 | 1.0 | 5.0 | 0.00 | 0.00 | 0.00 | 37 | 1011.3 |
| 20260905070433 | 91 | 241 | 1.0 | 5.0 | 0.00 | 0.00 | 0.00 | 37 | 1011.3 |
| 20260905070334 | 91 | 241 | 1.0 | 5.0 | 0.00 | 0.00 | 0.00 | 38 | 1011.3 |
| 20260905070217 | 91 | 241 | 2.0 | 5.0 | 0.00 | 0.00 | 0.00 | 37 | 1011.3 |
| 20260905070118 | 91 | 241 | 1.0 | 5.0 | 0.00 | 0.00 | 0.00 | 37 | 1011.3 |
| 20260905070100 | 91 | 240 | 1.0 | 4.0 | 0.00 | 0.00 | 0.00 | 37 | 1011.3 |
| 20260905065940 | 91 | 240 | 1.0 | 4.0 | 0.00 | 0.00 | 0.00 | 37 | 1011.3 |
| 20260905065823 | 91 | 240 | 1.0 | 5.0 | 0.00 | 0.00 | 0.00 | 37 | 1011.2 |
| 20260905065745 | 91 | 240 | 2.0 | 5.0 | 0.00 | 0.00 | 0.00 | 37 | 1011.2 |
| 20260905065633 | 91 | 240 | 1.0 | 5.0 | 0.00 | 0.00 | 0.00 | 37 | 1011.2 |
| 20260905065555 | 91 | 240 | 1.0 | 5.0 | 0.00 | 0.00 | 0.00 | 37 | 1011.2 |
| 20260905065415 | 91 | 240 | 2.0 | 5.0 | 0.00 | 0.00 | 0.00 | 37 | 1011.2 |
| 20260905065330 | 91 | 240 | 1.0 | 5.0 | 0.00 | 0.00 | 0.00 | 37 | 1011.2 |
| 20260905065233 | 91 | 240 | 2.0 | 5.0 | 0.00 | 0.00 | 0.00 | 37 | 1011.1 |
| 20260905065142 | 91 | 240 | 2.0 | 5.0 | 0.00 | 0.00 | 0.00 | 37 | 1011.1 |
| 20260905065016 | 91 | 240 | 1.0 | 5.0 | 0.00 | 0.00 | 0.00 | 37 | 1011.1 |
| 20260905064924 | 91 | 240 | 1.0 | 5.0 | 0.00 | 0.00 | 0.00 | 37 | 1011.1 |
| 20260905064828 | 91 | 240 | 1.0 | 5.0 | 0.00 | 0.00 | 0.00 | 37 | 1011.1 |
| 20260905064741 | 91 | 240 | 1.0 | 5.0 | 0.00 | 0.00 | 0.00 | 37 | 1011.0 |
| 20260905064623 | 91 | 240 | 2.0 | 5.0 | 0.00 | 0.00 | 0.00 | 37 | 1011.0 |
| 20260905064524 | 91 | 240 | 1.0 | 5.0 | 0.00 | 0.00 | 0.00 | 37 | 1011.1 |
| 20260905064428 | 91 | 242 | 1.0 | 4.0 | 0.00 | 0.00 | 0.00 | 37 | 1011.1 |
| 20260905064330 | 91 | 242 | 1.0 | 4.0 | 0.00 | 0.00 | 0.00 | 36 | 1011.0 |
| 20260905064234 | 91 | 242 | 1.0 | 4.0 | 0.00 | 0.00 | 0.00 | 36 | 1011.0 |
| 20260905064119 | 91 | 240 | 1.0 | 4.0 | 0.00 | 0.00 | 0.00 | 36 | 1011.1 |
| 20260905064049 | 91 | 240 | 0.0 | 4.0 | 0.00 | 0.00 | 0.00 | 36 | 1011.1 |
| 20260905063930 | 91 | 240 | 1.0 | 4.0 | 0.00 | 0.00 | 0.00 | 36 | 1011.1 |
| 20260905063837 | 91 | 240 | 1.0 | 4.0 | 0.00 | 0.00 | 0.00 | 36 | 1011.1 |
| 20260905063720 | 91 | 240 | 0.0 | 4.0 | 0.00 | 0.00 | 0.00 | 36 | 1011.1 |
| 20260905063622 | 91 | 239 | 0.0 | 4.0 | 0.00 | 0.00 | 0.00 | 36 | 1011.1 |
| 20260905063531 | 92 | 239 | 0.0 | 6.0 | 0.00 | 0.00 | 0.00 | 36 | 1011.1 |
| 20260905063416 | 92 | 360 | 0.0 | 6.0 | 0.00 | 0.00 | 0.00 | 35 | 1011.1 |
| 20260905063319 | 92 | 360 | 0.0 | 6.0 | 0.00 | 0.00 | 0.00 | 35 | 1011.1 |
| 20260905063220 | 92 | 360 | 1.0 | 6.0 | 0.00 | 0.00 | 0.00 | 35 | 1011.1 |
| 20260905063131 | 92 | 360 | 1.0 | 6.0 | 0.00 | 0.00 | 0.00 | 35 | 1011.1 |
| 20260905063033 | 92 | 360 | 1.0 | 6.0 | 0.00 | 0.00 | 0.00 | 35 | 1011.1 |
| 20260905062941 | 92 | 360 | 1.0 | 6.0 | 0.00 | 0.00 | 0.00 | 35 | 1011.1 |
| 20260905062843 | 92 | 360 | 1.0 | 6.0 | 0.00 | 0.00 | 0.00 | 35 | 1011.1 |
| 20260905062735 | 92 | 360 | 1.0 | 6.0 | 0.00 | 0.00 | 0.00 | 35 | 1011.1 |
| 20260905062617 | 92 | 360 | 1.0 | 5.0 | 0.00 | 0.00 | 0.00 | 35 | 1011.1 |
| 20260905062520 | 92 | 360 | 1.0 | 5.0 | 0.00 | 0.00 | 0.00 | 35 | 1011.1 |
| 20260905062422 | 92 | 360 | 1.0 | 5.0 | 0.00 | 0.00 | 0.00 | 35 | 1011.0 |
| 20260905062332 | 92 | 360 | 0.0 | 5.0 | 0.00 | 0.00 | 0.00 | 35 | 1011.0 |
| 20260905062219 | 92 | 360 | 1.0 | 5.0 | 0.00 | 0.00 | 0.00 | 35 | 1011.0 |
| 20260905062121 | 92 | 360 | 1.0 | 5.0 | 0.00 | 0.00 | 0.00 | 35 | 1010.8 |
| 20260905062023 | 92 | 360 | 1.0 | 5.0 | 0.00 | 0.00 | 0.00 | 35 | 1010.9 |
| 20260905061934 | 92 | 360 | 2.0 | 5.0 | 0.00 | 0.00 | 0.00 | 35 | 1010.9 |
| 20260905061816 | 92 | 360 | 3.0 | 5.0 | 0.00 | 0.00 | 0.00 | 35 | 1011.0 |
| 20260905061719 | 92 | 360 | 2.0 | 6.0 | 0.00 | 0.00 | 0.00 | 34 | 1011.0 |
| 20260905061627 | 92 | 360 | 1.0 | 6.0 | 0.00 | 0.00 | 0.00 | 35 | 1010.9 |
| 20260905061533 | 92 | 360 | 1.0 | 6.0 | 0.00 | 0.00 | 0.00 | 34 | 1010.9 |
| 20260905061416 | 92 | 360 | 0.0 | 6.0 | 0.00 | 0.00 | 0.00 | 34 | 1010.8 |
| 20260905061345 | 92 | 360 | 0.0 | 6.0 | 0.00 | 0.00 | 0.00 | 34 | 1010.9 |
| 20260905061226 | 92 | 360 | 0.0 | 7.0 | 0.00 | 0.00 | 0.00 | 34 | 1010.8 |
| 20260905061135 | 92 | 360 | 0.0 | 7.0 | 0.00 | 0.00 | 0.00 | 34 | 1010.8 |
| 20260905061037 | 93 | 360 | 2.0 | 8.0 | 0.00 | 0.00 | 0.00 | 34 | 1010.8 |
| 20260905060917 | 93 | 360 | 2.0 | 8.0 | 0.00 | 0.00 | 0.00 | 34 | 1010.8 |
| 20260905060831 | 93 | 360 | 2.0 | 8.0 | 0.00 | 0.00 | 0.00 | 33 | 1010.8 |
| 20260905060733 | 93 | 360 | 2.0 | 8.0 | 0.00 | 0.00 | 0.00 | 33 | 1010.8 |
| 20260905060642 | 93 | 360 | 2.0 | 8.0 | 0.00 | 0.00 | 0.00 | 33 | 1010.8 |
| 20260905060524 | 93 | 360 | 4.0 | 8.0 | 0.00 | 0.00 | 0.00 | 33 | 1010.8 |
| 20260905060426 | 93 | 360 | 4.0 | 8.0 | 0.00 | 0.00 | 0.00 | 33 | 1010.8 |
| 20260905060355 | 93 | 360 | 3.0 | 8.0 | 0.00 | 0.00 | 0.00 | 33 | 1010.8 |
| 20260905060219 | 93 | 360 | 3.0 | 10.0 | 0.00 | 0.00 | 0.00 | 33 | 1010.8 |
| 20260905060120 | 93 | 360 | 3.0 | 10.0 | 0.00 | 0.00 | 0.00 | 33 | 1010.8 |
| 20260905060035 | 93 | 360 | 4.0 | 10.0 | 0.00 | 0.00 | 0.00 | 33 | 1010.8 |
| 20260905055932 | 93 | 360 | 4.0 | 10.0 | 0.00 | 0.00 | 0.00 | 33 | 1010.8 |
| 20260905055834 | 93 | 360 | 3.0 | 10.0 | 0.00 | 0.00 | 0.00 | 33 | 1010.8 |
| 20260905055715 | 93 | 360 | 3.0 | 10.0 | 0.00 | 0.00 | 0.00 | 33 | 1010.9 |
| 20260905055649 | 93 | 360 | 3.0 | 10.0 | 0.00 | 0.00 | 0.00 | 33 | 1010.9 |
| 20260905055529 | 93 | 360 | 4.0 | 10.0 | 0.00 | 0.00 | 0.00 | 33 | 1010.9 |
| 20260905055439 | 93 | 360 | 3.0 | 10.0 | 0.00 | 0.00 | 0.00 | 33 | 1010.9 |
| 20260905055341 | 93 | 360 | 2.0 | 11.0 | 0.00 | 0.00 | 0.00 | 33 | 1010.9 |
| 20260905055229 | 93 | 360 | 2.0 | 11.0 | 0.00 | 0.00 | 0.00 | 33 | 1010.9 |
| 20260905055129 | 93 | 360 | 2.0 | 11.0 | 0.00 | 0.00 | 0.00 | 33 | 1010.9 |
| 20260905055038 | 93 | 360 | 2.0 | 11.0 | 0.00 | 0.00 | 0.00 | 33 | 1010.9 |
| 20260905054920 | 93 | 360 | 3.0 | 11.0 | 0.00 | 0.00 | 0.00 | 33 | 1010.9 |
| 20260905054823 | 93 | 360 | 4.0 | 11.0 | 0.00 | 0.00 | 0.00 | 33 | 1010.9 |
| 20260905054733 | 93 | 360 | 4.0 | 11.0 | 0.00 | 0.00 | 0.00 | 33 | 1010.9 |
| 20260905054616 | 93 | 360 | 5.0 | 11.0 | 0.00 | 0.00 | 0.00 | 32 | 1010.9 |
| 20260905054538 | 93 | 360 | 3.0 | 11.0 | 0.00 | 0.00 | 0.00 | 32 | 1011.0 |
| 20260905054425 | 93 | 360 | 3.0 | 8.0 | 0.00 | 0.00 | 0.00 | 32 | 1011.0 |
| 20260905054327 | 93 | 360 | 3.0 | 8.0 | 0.00 | 0.00 | 0.00 | 32 | 1010.8 |
| 20260905054220 | 93 | 360 | 4.0 | 7.0 | 0.00 | 0.00 | 0.00 | 32 | 1010.9 |
| 20260905054122 | 93 | 360 | 3.0 | 7.0 | 0.00 | 0.00 | 0.00 | 32 | 1010.8 |
| 20260905054022 | 93 | 360 | 3.0 | 7.0 | 0.00 | 0.00 | 0.00 | 32 | 1010.8 |
| 20260905053933 | 93 | 360 | 3.0 | 7.0 | 0.00 | 0.00 | 0.00 | 32 | 1010.8 |
| 20260905053834 | 93 | 360 | 3.0 | 7.0 | 0.00 | 0.00 | 0.00 | 32 | 1010.8 |
| 20260905053716 | 93 | 360 | 2.0 | 8.0 | 0.00 | 0.00 | 0.00 | 32 | 1010.8 |
| 20260905053622 | 93 | 360 | 2.0 | 8.0 | 0.00 | 0.00 | 0.00 | 32 | 1010.8 |
| 20260905053531 | 93 | 360 | 2.0 | 8.0 | 0.00 | 0.00 | 0.00 | 31 | 1010.8 |
| 20260905053433 | 93 | 360 | 3.0 | 8.0 | 0.00 | 0.00 | 0.00 | 31 | 1010.9 |
| 20260905053342 | 93 | 360 | 3.0 | 9.0 | 0.00 | 0.00 | 0.00 | 31 | 1010.8 |
| 20260905053224 | 93 | 360 | 3.0 | 10.0 | 0.00 | 0.00 | 0.00 | 31 | 1010.8 |
| 20260905053127 | 93 | 360 | 3.0 | 10.0 | 0.00 | 0.00 | 0.00 | 31 | 1010.8 |
| 20260905053029 | 93 | 360 | 2.0 | 10.0 | 0.00 | 0.00 | 0.00 | 31 | 1010.8 |
| 20260905052915 | 93 | 360 | 3.0 | 10.0 | 0.00 | 0.00 | 0.00 | 31 | 1010.7 |
| 20260905052824 | 93 | 360 | 3.0 | 10.0 | 0.00 | 0.00 | 0.00 | 31 | 1010.7 |
| 20260905052726 | 93 | 360 | 2.0 | 10.0 | 0.00 | 0.00 | 0.00 | 31 | 1010.7 |
| 20260905052636 | 93 | 360 | 3.0 | 10.0 | 0.00 | 0.00 | 0.00 | 31 | 1010.6 |
| 20260905052544 | 93 | 360 | 4.0 | 10.0 | 0.00 | 0.00 | 0.00 | 31 | 1010.7 |
| 20260905052444 | 93 | 360 | 3.0 | 7.0 | 0.00 | 0.00 | 0.00 | 31 | 1010.7 |
| 20260905052334 | 93 | 360 | 2.0 | 6.0 | 0.00 | 0.00 | 0.00 | 31 | 1010.7 |
| 20260905052219 | 93 | 360 | 2.0 | 6.0 | 0.00 | 0.00 | 0.00 | 31 | 1010.7 |
| 20260905052141 | 93 | 360 | 3.0 | 6.0 | 0.00 | 0.00 | 0.00 | 31 | 1010.7 |
| 20260905052028 | 93 | 360 | 3.0 | 6.0 | 0.00 | 0.00 | 0.00 | 31 | 1010.6 |
| 20260905051931 | 93 | 360 | 2.0 | 6.0 | 0.00 | 0.00 | 0.00 | 31 | 1010.6 |
| 20260905051833 | 93 | 360 | 2.0 | 6.0 | 0.00 | 0.00 | 0.00 | 31 | 1010.7 |
| 20260905051741 | 93 | 360 | 2.0 | 6.0 | 0.00 | 0.00 | 0.00 | 31 | 1010.7 |
| 20260905051628 | 93 | 360 | 2.0 | 6.0 | 0.00 | 0.00 | 0.00 | 31 | 1010.6 |
| 20260905051531 | 93 | 360 | 2.0 | 7.0 | 0.00 | 0.00 | 0.00 | 32 | 1010.6 |
| 20260905051432 | 93 | 360 | 2.0 | 7.0 | 0.00 | 0.00 | 0.00 | 31 | 1010.6 |
| 20260905051341 | 93 | 360 | 2.0 | 8.0 | 0.00 | 0.00 | 0.00 | 31 | 1010.6 |
| 20260905051222 | 93 | 360 | 2.0 | 8.0 | 0.00 | 0.00 | 0.00 | 31 | 1010.6 |
| 20260905051123 | 93 | 360 | 2.0 | 8.0 | 0.00 | 0.00 | 0.00 | 31 | 1010.6 |
| 20260905051033 | 93 | 360 | 2.0 | 8.0 | 0.00 | 0.00 | 0.00 | 31 | 1010.6 |
| 20260905050920 | 93 | 360 | 3.0 | 8.0 | 0.00 | 0.00 | 0.00 | 31 | 1010.7 |
| 20260905050821 | 93 | 360 | 3.0 | 8.0 | 0.00 | 0.00 | 0.00 | 31 | 1010.7 |
| 20260905050723 | 93 | 360 | 3.0 | 8.0 | 0.00 | 0.00 | 0.00 | 31 | 1010.7 |
| 20260905050653 | 93 | 360 | 2.0 | 8.0 | 0.00 | 0.00 | 0.00 | 31 | 1010.7 |
| 20260905050520 | 93 | 360 | 0.0 | 4.0 | 0.00 | 0.00 | 0.00 | 32 | 1010.6 |
| 20260905050422 | 93 | 360 | 1.0 | 4.0 | 0.00 | 0.00 | 0.00 | 31 | 1010.6 |
| 20260905050329 | 93 | 360 | 1.0 | 4.0 | 0.00 | 0.00 | 0.00 | 31 | 1010.7 |
| 20260905050238 | 93 | 360 | 1.0 | 5.0 | 0.00 | 0.00 | 0.00 | 31 | 1010.7 |
| 20260905050141 | 93 | 360 | 0.0 | 5.0 | 0.00 | 0.00 | 0.00 | 31 | 1010.7 |
| 20260905050041 | 93 | 360 | 1.0 | 5.0 | 0.00 | 0.00 | 0.00 | 31 | 1010.7 |
| 20260905045933 | 93 | 360 | 1.0 | 5.0 | 0.00 | 0.00 | 0.00 | 31 | 1010.8 |
| 20260905045835 | 93 | 360 | 1.0 | 5.0 | 0.00 | 0.00 | 0.00 | 31 | 1010.7 |
| 20260905045720 | 93 | 360 | 1.0 | 5.0 | 0.00 | 0.00 | 0.00 | 31 | 1010.6 |
| 20260905045631 | 93 | 360 | 1.0 | 5.0 | 0.00 | 0.00 | 0.00 | 31 | 1010.6 |
| 20260905045553 | 93 | 360 | 1.0 | 5.0 | 0.00 | 0.00 | 0.00 | 31 | 1010.7 |
| 20260905045440 | 93 | 360 | 1.0 | 5.0 | 0.00 | 0.00 | 0.00 | 31 | 1010.5 |
| 20260905045321 | 93 | 360 | 1.0 | 4.0 | 0.00 | 0.00 | 0.00 | 31 | 1010.6 |
| 20260905045223 | 94 | 360 | 1.0 | 4.0 | 0.00 | 0.00 | 0.00 | 31 | 1010.6 |
| 20260905045134 | 94 | 360 | 1.0 | 4.0 | 0.00 | 0.00 | 0.00 | 31 | 1010.6 |
| 20260905045020 | 94 | 360 | 1.0 | 5.0 | 0.00 | 0.00 | 0.00 | 31 | 1010.6 |
| 20260905044922 | 94 | 360 | 1.0 | 6.0 | 0.00 | 0.00 | 0.00 | 31 | 1010.5 |
| 20260905044824 | 94 | 360 | 1.0 | 6.0 | 0.00 | 0.00 | 0.00 | 31 | 1010.5 |
| 20260905044755 | 94 | 360 | 2.0 | 6.0 | 0.00 | 0.00 | 0.00 | 31 | 1010.5 |
| 20260905044616 | 94 | 360 | 2.0 | 6.0 | 0.00 | 0.00 | 0.00 | 31 | 1010.5 |
| 20260905044524 | 94 | 360 | 1.0 | 6.0 | 0.00 | 0.00 | 0.00 | 31 | 1010.5 |
| 20260905044426 | 94 | 360 | 2.0 | 6.0 | 0.00 | 0.00 | 0.00 | 31 | 1010.5 |
| 20260905044340 | 94 | 360 | 2.0 | 6.0 | 0.00 | 0.00 | 0.00 | 31 | 1010.5 |
| 20260905044221 | 94 | 360 | 3.0 | 6.0 | 0.00 | 0.00 | 0.00 | 31 | 1010.6 |
| 20260905044122 | 94 | 360 | 3.0 | 6.0 | 0.00 | 0.00 | 0.00 | 30 | 1010.5 |
| 20260905044053 | 94 | 360 | 2.0 | 6.0 | 0.00 | 0.00 | 0.00 | 30 | 1010.5 |
| 20260905043933 | 94 | 360 | 2.0 | 6.0 | 0.00 | 0.00 | 0.00 | 31 | 1010.6 |
| 20260905043834 | 94 | 360 | 1.0 | 5.0 | 0.00 | 0.00 | 0.00 | 30 | 1010.6 |
| 20260905043720 | 94 | 360 | 1.0 | 5.0 | 0.00 | 0.00 | 0.00 | 31 | 1010.5 |
| 20260905043630 | 94 | 360 | 2.0 | 5.0 | 0.00 | 0.00 | 0.00 | 31 | 1010.5 |
| 20260905043533 | 94 | 360 | 2.0 | 5.0 | 0.00 | 0.00 | 0.00 | 30 | 1010.6 |
| 20260905043502 | 94 | 360 | 2.0 | 4.0 | 0.00 | 0.00 | 0.00 | 31 | 1010.5 |
| 20260905043323 | 94 | 360 | 2.0 | 4.0 | 0.00 | 0.00 | 0.00 | 30 | 1010.6 |
| 20260905043223 | 94 | 360 | 2.0 | 4.0 | 0.00 | 0.00 | 0.00 | 30 | 1010.6 |
| 20260905043139 | 94 | 360 | 1.0 | 3.0 | 0.00 | 0.00 | 0.00 | 30 | 1010.6 |
| 20260905043040 | 94 | 360 | 1.0 | 3.0 | 0.00 | 0.00 | 0.00 | 30 | 1010.6 |
| 20260905042922 | 94 | 360 | 0.0 | 3.0 | 0.00 | 0.00 | 0.00 | 30 | 1010.5 |
| 20260905042852 | 94 | 360 | 0.0 | 3.0 | 0.00 | 0.00 | 0.00 | 30 | 1010.5 |
| 20260905042733 | 94 | 360 | 1.0 | 3.0 | 0.00 | 0.00 | 0.00 | 30 | 1010.5 |
| 20260905042615 | 94 | 360 | 1.0 | 3.0 | 0.00 | 0.00 | 0.00 | 30 | 1010.5 |
| 20260905042521 | 95 | 360 | 1.0 | 3.0 | 0.00 | 0.00 | 0.00 | 30 | 1010.6 |
| 20260905042430 | 95 | 360 | 1.0 | 3.0 | 0.00 | 0.00 | 0.00 | 30 | 1010.6 |
| 20260905042359 | 95 | 360 | 1.0 | 4.0 | 0.00 | 0.00 | 0.00 | 30 | 1010.5 |
| 20260905042240 | 95 | 360 | 1.0 | 5.0 | 0.00 | 0.00 | 0.00 | 30 | 1010.5 |
| 20260905042121 | 95 | 360 | 0.0 | 6.0 | 0.00 | 0.00 | 0.00 | 30 | 1010.5 |
| 20260905042051 | 95 | 360 | 1.0 | 6.0 | 0.00 | 0.00 | 0.00 | 30 | 1010.5 |
| 20260905041933 | 95 | 360 | 1.0 | 6.0 | 0.00 | 0.00 | 0.00 | 30 | 1010.5 |
| 20260905041816 | 95 | 360 | 1.0 | 6.0 | 0.00 | 0.00 | 0.00 | 30 | 1010.4 |
| 20260905041728 | 95 | 360 | 1.0 | 6.0 | 0.00 | 0.00 | 0.00 | 30 | 1010.4 |
| 20260905041632 | 95 | 360 | 1.0 | 6.0 | 0.00 | 0.00 | 0.00 | 30 | 1010.4 |
| 20260905041541 | 95 | 360 | 2.0 | 6.0 | 0.00 | 0.00 | 0.00 | 29 | 1010.4 |
| 20260905041422 | 95 | 360 | 2.0 | 6.0 | 0.00 | 0.00 | 0.00 | 29 | 1010.3 |
| 20260905041324 | 95 | 360 | 1.0 | 4.0 | 0.00 | 0.00 | 0.00 | 29 | 1010.4 |
| 20260905041234 | 95 | 360 | 1.0 | 4.0 | 0.00 | 0.00 | 0.00 | 30 | 1010.4 |
| 20260905041120 | 95 | 360 | 1.0 | 4.0 | 0.00 | 0.00 | 0.00 | 29 | 1010.4 |
| 20260905041021 | 95 | 360 | 1.0 | 4.0 | 0.00 | 0.00 | 0.00 | 29 | 1010.3 |
| 20260905040949 | 95 | 360 | 1.0 | 4.0 | 0.00 | 0.00 | 0.00 | 29 | 1010.3 |
| 20260905040831 | 95 | 360 | 1.0 | 4.0 | 0.00 | 0.00 | 0.00 | 29 | 1010.3 |
| 20260905040734 | 96 | 360 | 0.0 | 5.0 | 0.00 | 0.00 | 0.00 | 29 | 1010.3 |
| 20260905040616 | 96 | 360 | 1.0 | 5.0 | 0.00 | 0.00 | 0.00 | 29 | 1010.4 |
| 20260905040531 | 96 | 360 | 1.0 | 5.0 | 0.00 | 0.00 | 0.00 | 29 | 1010.4 |
| 20260905040431 | 96 | 360 | 0.0 | 5.0 | 0.00 | 0.00 | 0.00 | 29 | 1010.4 |
| 20260905040331 | 96 | 360 | 0.0 | 5.0 | 0.00 | 0.00 | 0.00 | 29 | 1010.4 |
| 20260905040240 | 96 | 360 | 0.0 | 5.0 | 0.00 | 0.00 | 0.00 | 29 | 1010.3 |
| 20260905040121 | 96 | 360 | 1.0 | 5.0 | 0.00 | 0.00 | 0.00 | 29 | 1010.4 |
| 20260905040103 | 96 | 360 | 1.0 | 5.0 | 0.00 | 0.00 | 0.00 | 29 | 1010.4 |
| 20260905035917 | 96 | 360 | 2.0 | 5.0 | 0.00 | 0.00 | 0.00 | 29 | 1010.3 |
| 20260905035840 | 96 | 360 | 3.0 | 5.0 | 0.00 | 0.00 | 0.00 | 29 | 1010.4 |
| 20260905035747 | 96 | 360 | 3.0 | 6.0 | 0.00 | 0.00 | 0.00 | 29 | 1010.4 |
| 20260905035626 | 96 | 360 | 2.0 | 6.0 | 0.00 | 0.00 | 0.00 | 29 | 1010.3 |
| 20260905035537 | 96 | 360 | 2.0 | 7.0 | 0.00 | 0.00 | 0.00 | 29 | 1010.3 |
| 20260905035418 | 96 | 360 | 1.0 | 7.0 | 0.00 | 0.00 | 0.00 | 29 | 1010.3 |
| 20260905035320 | 96 | 360 | 1.0 | 7.0 | 0.00 | 0.00 | 0.00 | 29 | 1010.3 |
| 20260905035224 | 96 | 360 | 2.0 | 7.0 | 0.00 | 0.00 | 0.00 | 29 | 1010.3 |
| 20260905035132 | 96 | 360 | 2.0 | 7.0 | 0.00 | 0.00 | 0.00 | 29 | 1010.3 |
| 20260905035101 | 96 | 360 | 3.0 | 7.0 | 0.00 | 0.00 | 0.00 | 29 | 1010.2 |
| 20260905034923 | 96 | 360 | 3.0 | 9.0 | 0.00 | 0.00 | 0.00 | 29 | 1010.2 |
| 20260905034824 | 96 | 360 | 3.0 | 9.0 | 0.00 | 0.00 | 0.00 | 29 | 1010.2 |
| 20260905034725 | 96 | 360 | 3.0 | 9.0 | 0.00 | 0.00 | 0.00 | 29 | 1010.2 |
| 20260905034635 | 96 | 360 | 2.0 | 9.0 | 0.00 | 0.00 | 0.00 | 29 | 1010.2 |
| 20260905034521 | 96 | 360 | 3.0 | 10.0 | 0.00 | 0.00 | 0.00 | 29 | 1010.1 |
| 20260905034421 | 96 | 360 | 3.0 | 10.0 | 0.00 | 0.00 | 0.00 | 29 | 1010.1 |
| 20260905034331 | 96 | 360 | 3.0 | 10.0 | 0.00 | 0.00 | 0.00 | 29 | 1010.1 |
| 20260905034233 | 96 | 360 | 4.0 | 10.0 | 0.00 | 0.00 | 0.00 | 29 | 1010.1 |
| 20260905034135 | 96 | 360 | 4.0 | 10.0 | 0.00 | 0.00 | 0.00 | 29 | 1010.1 |
| 20260905034017 | 96 | 360 | 3.0 | 10.0 | 0.00 | 0.00 | 0.00 | 29 | 1010.1 |
| 20260905033931 | 96 | 360 | 3.0 | 10.0 | 0.00 | 0.00 | 0.00 | 29 | 1010.1 |
| 20260905033833 | 96 | 360 | 3.0 | 10.0 | 0.00 | 0.00 | 0.00 | 29 | 1010.1 |
| 20260905033801 | 96 | 360 | 3.0 | 10.0 | 0.00 | 0.00 | 0.00 | 29 | 1010.1 |
| 20260905033622 | 97 | 360 | 4.0 | 10.0 | 0.00 | 0.00 | 0.00 | 29 | 1010.1 |
| 20260905033543 | 97 | 360 | 3.0 | 9.0 | 0.00 | 0.00 | 0.00 | 29 | 1010.1 |
| 20260905033431 | 97 | 360 | 3.0 | 9.0 | 0.00 | 0.00 | 0.00 | 29 | 1010.1 |
| 20260905033341 | 97 | 360 | 4.0 | 9.0 | 0.00 | 0.00 | 0.00 | 29 | 1010.1 |
| 20260905033245 | 97 | 360 | 4.0 | 9.0 | 0.00 | 0.00 | 0.00 | 29 | 1010.0 |
| 20260905033155 | 97 | 360 | 4.0 | 9.0 | 0.00 | 0.00 | 0.00 | 29 | 1010.0 |
| 20260905033016 | 97 | 360 | 4.0 | 10.0 | 0.00 | 0.00 | 0.00 | 29 | 1010.0 |
| 20260905032919 | 97 | 360 | 4.0 | 10.0 | 0.00 | 0.00 | 0.00 | 29 | 1009.9 |
| 20260905032821 | 97 | 360 | 4.0 | 10.0 | 0.00 | 0.00 | 0.00 | 29 | 1010.0 |
| 20260905032731 | 97 | 360 | 4.0 | 10.0 | 0.00 | 0.00 | 0.00 | 29 | 1010.0 |
| 20260905032617 | 97 | 360 | 3.0 | 10.0 | 0.00 | 0.00 | 0.00 | 29 | 1009.9 |
| 20260905032520 | 97 | 360 | 2.0 | 10.0 | 0.00 | 0.00 | 0.00 | 29 | 1009.9 |
| 20260905032428 | 97 | 360 | 3.0 | 10.0 | 0.00 | 0.00 | 0.00 | 29 | 1009.9 |
| 20260905032331 | 97 | 360 | 4.0 | 10.0 | 0.00 | 0.00 | 0.00 | 29 | 1009.9 |
| 20260905032233 | 97 | 360 | 4.0 | 10.0 | 0.00 | 0.00 | 0.00 | 30 | 1009.9 |
| 20260905032139 | 97 | 360 | 4.0 | 8.0 | 0.00 | 0.00 | 0.00 | 30 | 1009.9 |
| 20260905032020 | 97 | 360 | 5.0 | 8.0 | 0.00 | 0.00 | 0.00 | 30 | 1009.8 |
| 20260905031924 | 96 | 360 | 4.0 | 7.0 | 0.00 | 0.00 | 0.00 | 30 | 1009.8 |
| 20260905031827 | 97 | 360 | 3.0 | 6.0 | 0.00 | 0.00 | 0.00 | 30 | 1009.9 |
| 20260905031715 | 97 | 360 | 2.0 | 6.0 | 0.00 | 0.00 | 0.00 | 30 | 1009.8 |
| 20260905031618 | 96 | 360 | 2.0 | 6.0 | 0.00 | 0.00 | 0.00 | 30 | 1009.8 |
| 20260905031547 | 97 | 360 | 3.0 | 6.0 | 0.00 | 0.00 | 0.00 | 30 | 1009.8 |
| 20260905031427 | 97 | 360 | 2.0 | 6.0 | 0.00 | 0.00 | 0.00 | 31 | 1009.8 |
| 20260905031357 | 97 | 360 | 2.0 | 6.0 | 0.00 | 0.00 | 0.00 | 30 | 1009.8 |
| 20260905031221 | 97 | 360 | 1.0 | 6.0 | 0.00 | 0.00 | 0.00 | 31 | 1009.9 |
| 20260905031124 | 97 | 360 | 2.0 | 5.0 | 0.00 | 0.00 | 0.00 | 31 | 1009.8 |
| 20260905031033 | 97 | 360 | 2.0 | 6.0 | 0.00 | 0.00 | 0.00 | 30 | 1009.8 |
| 20260905030915 | 97 | 360 | 2.0 | 8.0 | 0.00 | 0.00 | 0.00 | 30 | 1009.8 |
| 20260905030816 | 97 | 360 | 2.0 | 8.0 | 0.00 | 0.00 | 0.00 | 30 | 1009.8 |
| 20260905030726 | 97 | 360 | 2.0 | 8.0 | 0.00 | 0.00 | 0.00 | 30 | 1009.8 |
| 20260905030649 | 97 | 360 | 2.0 | 8.0 | 0.00 | 0.00 | 0.00 | 30 | 1009.8 |
| 20260905030519 | 97 | 360 | 2.0 | 8.0 | 0.00 | 0.00 | 0.00 | 30 | 1009.8 |
| 20260905030421 | 97 | 360 | 2.0 | 8.0 | 0.00 | 0.00 | 0.00 | 30 | 1009.8 |
| 20260905030324 | 97 | 360 | 4.0 | 8.0 | 0.00 | 0.00 | 0.00 | 30 | 1009.7 |
| 20260905030234 | 97 | 360 | 4.0 | 8.0 | 0.00 | 0.00 | 0.00 | 30 | 1009.7 |
| 20260905030115 | 97 | 360 | 4.0 | 8.0 | 0.00 | 0.00 | 0.00 | 30 | 1009.7 |
| 20260905030030 | 97 | 360 | 4.0 | 8.0 | 0.00 | 0.00 | 0.00 | 30 | 1009.7 |
| 20260905025931 | 97 | 360 | 4.0 | 7.0 | 0.00 | 0.00 | 0.00 | 30 | 1009.6 |
| 20260905025832 | 97 | 360 | 4.0 | 7.0 | 0.00 | 0.00 | 0.00 | 30 | 1009.6 |
| 20260905025801 | 97 | 360 | 3.0 | 7.0 | 0.00 | 0.00 | 0.00 | 30 | 1009.7 |
| 20260905025621 | 97 | 360 | 1.0 | 7.0 | 0.00 | 0.00 | 0.00 | 30 | 1009.6 |
| 20260905025522 | 97 | 360 | 2.0 | 7.0 | 0.00 | 0.00 | 0.00 | 30 | 1009.5 |
| 20260905025432 | 97 | 360 | 3.0 | 7.0 | 0.00 | 0.00 | 0.00 | 30 | 1009.5 |
| 20260905025316 | 97 | 360 | 4.0 | 7.0 | 0.00 | 0.00 | 0.00 | 30 | 1009.5 |
| 20260905025245 | 97 | 360 | 3.0 | 7.0 | 0.00 | 0.00 | 0.00 | 30 | 1009.5 |
| 20260905025126 | 97 | 360 | 3.0 | 9.0 | 0.00 | 0.00 | 0.00 | 30 | 1009.5 |
| 20260905025035 | 97 | 360 | 3.0 | 9.0 | 0.00 | 0.00 | 0.00 | 30 | 1009.5 |
| 20260905024916 | 97 | 360 | 2.0 | 9.0 | 0.00 | 0.00 | 0.00 | 30 | 1009.4 |
| 20260905024820 | 97 | 360 | 3.0 | 9.0 | 0.00 | 0.00 | 0.00 | 30 | 1009.4 |
| 20260905024720 | 97 | 360 | 4.0 | 9.0 | 0.00 | 0.00 | 0.00 | 30 | 1009.3 |
| 20260905024630 | 97 | 360 | 4.0 | 9.0 | 0.00 | 0.00 | 0.00 | 30 | 1009.3 |
| 20260905024541 | 97 | 360 | 3.0 | 9.0 | 0.00 | 0.00 | 0.00 | 30 | 1009.3 |
| 20260905024424 | 97 | 360 | 4.0 | 9.0 | 0.00 | 0.00 | 0.00 | 30 | 1009.3 |
| 20260905024345 | 98 | 360 | 4.0 | 9.0 | 0.00 | 0.00 | 0.00 | 29 | 1009.2 |
| 20260905024234 | 97 | 360 | 3.0 | 9.0 | 0.00 | 0.00 | 0.00 | 29 | 1009.2 |
| 20260905024116 | 98 | 360 | 4.0 | 8.0 | 0.00 | 0.00 | 0.00 | 29 | 1009.2 |
| 20260905024020 | 98 | 360 | 4.0 | 8.0 | 0.00 | 0.00 | 0.00 | 29 | 1009.2 |
| 20260905023924 | 98 | 360 | 4.0 | 8.0 | 0.00 | 0.00 | 0.00 | 29 | 1009.3 |
| 20260905023834 | 98 | 360 | 4.0 | 8.0 | 0.00 | 0.00 | 0.00 | 29 | 1009.3 |
| 20260905023717 | 98 | 360 | 3.0 | 8.0 | 0.00 | 0.00 | 0.00 | 29 | 1009.3 |
| 20260905023619 | 98 | 360 | 4.0 | 8.0 | 0.00 | 0.00 | 0.00 | 29 | 1009.2 |
| 20260905023547 | 98 | 360 | 4.0 | 8.0 | 0.00 | 0.00 | 0.00 | 29 | 1009.1 |
| 20260905023428 | 98 | 360 | 4.0 | 8.0 | 0.00 | 0.00 | 0.00 | 29 | 1009.1 |
| 20260905023337 | 98 | 360 | 3.0 | 8.0 | 0.00 | 0.00 | 0.00 | 29 | 1009.2 |
| 20260905023223 | 98 | 360 | 3.0 | 8.0 | 0.00 | 0.00 | 0.00 | 28 | 1009.1 |
| 20260905023125 | 98 | 360 | 2.0 | 8.0 | 0.00 | 0.00 | 0.00 | 28 | 1009.1 |
| 20260905023055 | 98 | 360 | 1.0 | 7.0 | 0.00 | 0.00 | 0.00 | 28 | 1009.1 |
| 20260905023002 | 98 | 360 | 2.0 | 10.0 | 0.00 | 0.00 | 0.00 | 28 | 1009.1 |
| 20260905022843 | 98 | 360 | 3.0 | 11.0 | 0.00 | 0.00 | 0.00 | 28 | 1009.1 |
| 20260905022724 | 98 | 360 | 4.0 | 11.0 | 0.00 | 0.00 | 0.00 | 28 | 1009.1 |
| 20260905022633 | 98 | 224 | 4.0 | 11.0 | 0.00 | 0.00 | 0.00 | 28 | 1009.1 |
| 20260905022520 | 98 | 222 | 4.0 | 11.0 | 0.00 | 0.00 | 0.00 | 28 | 1009.2 |
| 20260905022421 | 98 | 217 | 2.0 | 11.0 | 0.00 | 0.00 | 0.00 | 28 | 1009.1 |
| 20260905022349 | 98 | 216 | 2.0 | 11.0 | 0.00 | 0.00 | 0.00 | 28 | 1009.2 |
| 20260905022231 | 98 | 215 | 5.0 | 11.0 | 0.00 | 0.00 | 0.00 | 28 | 1009.2 |
| 20260905022200 | 98 | 215 | 5.0 | 11.0 | 0.00 | 0.00 | 0.00 | 28 | 1009.1 |
| 20260905022020 | 98 | 231 | 4.0 | 9.0 | 0.00 | 0.00 | 0.00 | 27 | 1009.1 |
| 20260905021929 | 98 | 233 | 5.0 | 9.0 | 0.00 | 0.00 | 0.00 | 27 | 1009.1 |
| 20260905021815 | 98 | 221 | 4.0 | 9.0 | 0.00 | 0.00 | 0.00 | 27 | 1009.1 |
| 20260905021717 | 98 | 234 | 4.0 | 8.0 | 0.00 | 0.00 | 0.00 | 27 | 1009.1 |
| 20260905021618 | 98 | 245 | 4.0 | 8.0 | 0.00 | 0.00 | 0.00 | 27 | 1009.1 |
| 20260905021527 | 98 | 238 | 4.0 | 8.0 | 0.00 | 0.00 | 0.00 | 27 | 1009.1 |
| 20260905021431 | 99 | 235 | 4.0 | 8.0 | 0.00 | 0.00 | 0.00 | 27 | 1009.1 |
| 20260905021331 | 98 | 233 | 3.0 | 8.0 | 0.00 | 0.00 | 0.00 | 27 | 1009.1 |
| 20260905021217 | 99 | 234 | 3.0 | 8.0 | 0.00 | 0.00 | 0.00 | 27 | 1009.1 |
| 20260905021127 | 99 | 235 | 4.0 | 8.0 | 0.00 | 0.00 | 0.00 | 27 | 1009.1 |
| 20260905021030 | 99 | 233 | 4.0 | 8.0 | 0.00 | 0.00 | 0.00 | 26 | 1009.1 |
| 20260905020931 | 99 | 235 | 4.0 | 8.0 | 0.00 | 0.00 | 0.00 | 26 | 1009.1 |
| 20260905020840 | 99 | 236 | 4.0 | 8.0 | 0.00 | 0.00 | 0.00 | 26 | 1009.1 |
| 20260905020722 | 99 | 233 | 3.0 | 7.0 | 0.00 | 0.00 | 0.00 | 26 | 1009.0 |
| 20260905020628 | 99 | 232 | 3.0 | 7.0 | 0.00 | 0.00 | 0.00 | 26 | 1009.2 |
| 20260905020530 | 99 | 231 | 3.0 | 9.0 | 0.00 | 0.00 | 0.00 | 26 | 1009.2 |
| 20260905020439 | 99 | 231 | 2.0 | 11.0 | 0.00 | 0.00 | 0.00 | 26 | 1009.0 |
| 20260905020321 | 99 | 231 | 2.0 | 11.0 | 0.00 | 0.00 | 0.00 | 25 | 1008.9 |
| 20260905020223 | 99 | 229 | 3.0 | 11.0 | 0.00 | 0.00 | 0.00 | 25 | 1008.9 |
| 20260905020132 | 99 | 226 | 3.0 | 11.0 | 0.00 | 0.00 | 0.00 | 25 | 1008.9 |
| 20260905020030 | 99 | 230 | 3.0 | 11.0 | 0.00 | 0.00 | 0.00 | 25 | 1008.9 |
| 20260905015919 | 99 | 229 | 3.0 | 11.0 | 0.00 | 0.00 | 0.00 | 25 | 1008.9 |
| 20260905015830 | 99 | 219 | 4.0 | 11.0 | 0.00 | 0.00 | 0.00 | 25 | 1008.9 |
| 20260905015733 | 99 | 270 | 4.0 | 11.0 | 0.00 | 0.00 | 0.00 | 25 | 1008.9 |
| 20260905015634 | 99 | 257 | 5.0 | 11.0 | 0.00 | 0.00 | 0.00 | 25 | 1008.8 |
| 20260905015516 | 99 | 254 | 5.0 | 11.0 | 0.00 | 0.00 | 0.00 | 25 | 1008.8 |
| 20260905015430 | 99 | 238 | 4.0 | 11.0 | 0.00 | 0.00 | 0.00 | 25 | 1008.8 |
| 20260905015351 | 99 | 234 | 4.0 | 11.0 | 0.00 | 0.00 | 0.00 | 25 | 1008.9 |
| 20260905015238 | 99 | 236 | 5.0 | 11.0 | 0.00 | 0.00 | 0.00 | 25 | 1008.9 |
| 20260905015116 | 99 | 228 | 6.0 | 11.0 | 0.00 | 0.00 | 0.00 | 25 | 1008.9 |
| 20260905015047 | 99 | 250 | 6.0 | 11.0 | 0.00 | 0.00 | 0.00 | 25 | 1008.8 |
| 20260905014927 | 100 | 229 | 6.0 | 11.0 | 0.00 | 0.00 | 0.00 | 25 | 1008.8 |
| 20260905014857 | 100 | 229 | 5.0 | 11.0 | 0.00 | 0.00 | 0.00 | 25 | 1008.8 |
| 20260905014721 | 100 | 226 | 5.0 | 10.0 | 0.00 | 0.00 | 0.00 | 25 | 1008.8 |
| 20260905014622 | 100 | 227 | 6.0 | 10.0 | 0.00 | 0.00 | 0.00 | 25 | 1008.6 |
| 20260905014532 | 100 | 226 | 5.0 | 10.0 | 0.00 | 0.00 | 0.00 | 25 | 1008.6 |
| 20260905014435 | 100 | 226 | 5.0 | 10.0 | 0.00 | 0.00 | 0.00 | 25 | 1008.7 |
| 20260905014403 | 100 | 226 | 5.0 | 10.0 | 0.00 | 0.00 | 0.00 | 25 | 1008.6 |
| 20260905014243 | 100 | 226 | 5.0 | 10.0 | 0.00 | 0.00 | 0.00 | 25 | 1008.7 |
| 20260905014153 | 100 | 227 | 5.0 | 10.0 | 0.00 | 0.00 | 0.00 | 25 | 1008.7 |
| 20260905014017 | 100 | 227 | 5.0 | 10.0 | 0.00 | 0.00 | 0.00 | 25 | 1008.7 |
| 20260905013920 | 100 | 229 | 5.0 | 10.0 | 0.00 | 0.00 | 0.00 | 24 | 1008.7 |
| 20260905013822 | 100 | 229 | 5.0 | 10.0 | 0.00 | 0.00 | 0.00 | 24 | 1008.7 |
| 20260905013733 | 100 | 186 | 5.0 | 10.0 | 0.00 | 0.00 | 0.00 | 24 | 1008.7 |
| 20260905013634 | 100 | 239 | 5.0 | 11.0 | 0.00 | 0.00 | 0.00 | 24 | 1008.7 |
| 20260905013516 | 100 | 230 | 5.0 | 11.0 | 0.00 | 0.00 | 0.00 | 24 | 1008.7 |
| 20260905013422 | 100 | 233 | 5.0 | 11.0 | 0.00 | 0.00 | 0.00 | 24 | 1008.8 |
| 20260905013332 | 100 | 233 | 5.0 | 11.0 | 0.00 | 0.00 | 0.00 | 24 | 1008.8 |
| 20260905013234 | 100 | 222 | 6.0 | 11.0 | 0.00 | 0.00 | 0.00 | 24 | 1008.8 |
| 20260905013122 | 100 | 224 | 6.0 | 11.0 | 0.00 | 0.00 | 0.00 | 24 | 1008.9 |
| 20260905013024 | 100 | 229 | 6.0 | 11.0 | 0.00 | 0.00 | 0.00 | 24 | 1008.8 |
| 20260905012926 | 101 | 259 | 6.0 | 11.0 | 0.00 | 0.00 | 0.00 | 24 | 1008.8 |
| 20260905012835 | 101 | 231 | 6.0 | 11.0 | 0.00 | 0.00 | 0.00 | 24 | 1008.8 |
| 20260905012719 | 101 | 225 | 4.0 | 11.0 | 0.00 | 0.00 | 0.00 | 25 | 1008.8 |
| 20260905012621 | 101 | 227 | 4.0 | 11.0 | 0.00 | 0.00 | 0.00 | 24 | 1008.8 |
| 20260905012531 | 101 | 227 | 4.0 | 11.0 | 0.00 | 0.00 | 0.00 | 24 | 1008.8 |
| 20260905012432 | 101 | 221 | 5.0 | 11.0 | 0.00 | 0.00 | 0.00 | 24 | 1008.8 |
| 20260905012333 | 101 | 218 | 7.0 | 11.0 | 0.00 | 0.00 | 0.00 | 24 | 1008.8 |
| 20260905012241 | 101 | 258 | 7.0 | 11.0 | 0.00 | 0.00 | 0.00 | 24 | 1008.9 |
| 20260905012127 | 101 | 230 | 6.0 | 11.0 | 0.00 | 0.00 | 0.00 | 24 | 1008.8 |
| 20260905012049 | 101 | 253 | 6.0 | 11.0 | 0.00 | 0.00 | 0.00 | 24 | 1008.7 |
| 20260905011938 | 101 | 227 | 6.0 | 11.0 | 0.00 | 0.00 | 0.00 | 24 | 1008.7 |
| 20260905011820 | 101 | 257 | 4.0 | 9.0 | 0.00 | 0.00 | 0.00 | 24 | 1008.7 |
| 20260905011723 | 102 | 289 | 6.0 | 9.0 | 0.00 | 0.00 | 0.00 | 24 | 1008.7 |
| 20260905011625 | 102 | 255 | 6.0 | 9.0 | 0.00 | 0.00 | 0.00 | 24 | 1008.7 |
| 20260905011517 | 102 | 242 | 4.0 | 8.0 | 0.00 | 0.00 | 0.00 | 24 | 1008.7 |
| 20260905011419 | 102 | 238 | 4.0 | 8.0 | 0.00 | 0.00 | 0.00 | 24 | 1008.6 |
| 20260905011328 | 102 | 238 | 5.0 | 8.0 | 0.00 | 0.00 | 0.00 | 24 | 1008.7 |
| 20260905011232 | 102 | 238 | 4.0 | 8.0 | 0.00 | 0.00 | 0.00 | 24 | 1008.7 |
| 20260905011200 | 102 | 243 | 4.0 | 8.0 | 0.00 | 0.00 | 0.00 | 24 | 1008.7 |
| 20260905011042 | 102 | 249 | 3.0 | 8.0 | 0.00 | 0.00 | 0.00 | 23 | 1008.6 |
| 20260905010923 | 102 | 250 | 3.0 | 8.0 | 0.00 | 0.00 | 0.00 | 23 | 1008.6 |
| 20260905010837 | 102 | 244 | 4.0 | 14.0 | 0.00 | 0.00 | 0.00 | 23 | 1008.6 |
| 20260905010719 | 102 | 245 | 3.0 | 14.0 | 0.00 | 0.00 | 0.00 | 23 | 1008.6 |
| 20260905010621 | 102 | 247 | 3.0 | 14.0 | 0.00 | 0.00 | 0.00 | 24 | 1008.6 |
| 20260905010523 | 102 | 247 | 5.0 | 14.0 | 0.00 | 0.00 | 0.00 | 23 | 1008.7 |
| 20260905010433 | 102 | 247 | 5.0 | 14.0 | 0.00 | 0.00 | 0.00 | 24 | 1008.7 |
| 20260905010355 | 102 | 245 | 4.0 | 14.0 | 0.00 | 0.00 | 0.00 | 24 | 1008.6 |
| 20260905010219 | 102 | 244 | 5.0 | 14.0 | 0.00 | 0.00 | 0.00 | 24 | 1008.6 |
| 20260905010130 | 102 | 245 | 6.0 | 14.0 | 0.00 | 0.00 | 0.00 | 24 | 1008.6 |
| 20260905010109 | 102 | 246 | 6.0 | 14.0 | 0.00 | 0.00 | 0.00 | 24 | 1008.6 |
| 20260905010020 | 102 | 235 | 3.0 | 10.0 | 0.00 | 0.00 | 0.00 | 24 | 1008.6 |
| 20260905005841 | 102 | 235 | 5.0 | 10.0 | 0.00 | 0.00 | 0.00 | 24 | 1008.6 |
| 20260905005720 | 103 | 228 | 5.0 | 9.0 | 0.00 | 0.00 | 0.00 | 23 | 1008.5 |
| 20260905005649 | 103 | 229 | 4.0 | 9.0 | 0.00 | 0.00 | 0.00 | 23 | 1008.5 |
| 20260905005531 | 103 | 229 | 3.0 | 9.0 | 0.00 | 0.00 | 0.00 | 24 | 1008.5 |
| 20260905005416 | 103 | 227 | 3.0 | 11.0 | 0.00 | 0.00 | 0.00 | 24 | 1008.5 |
| 20260905005345 | 103 | 227 | 4.0 | 11.0 | 0.00 | 0.00 | 0.00 | 24 | 1008.5 |
| 20260905005228 | 103 | 228 | 5.0 | 11.0 | 0.00 | 0.00 | 0.00 | 24 | 1008.5 |
| 20260905005128 | 103 | 224 | 4.0 | 11.0 | 0.00 | 0.00 | 0.00 | 24 | 1008.6 |
| 20260905005038 | 103 | 224 | 5.0 | 11.0 | 0.00 | 0.00 | 0.00 | 24 | 1008.6 |
| 20260905004940 | 103 | 224 | 5.0 | 11.0 | 0.00 | 0.00 | 0.00 | 24 | 1008.7 |
| 20260905004827 | 103 | 223 | 5.0 | 11.0 | 0.00 | 0.00 | 0.00 | 24 | 1008.7 |
| 20260905004748 | 103 | 217 | 5.0 | 11.0 | 0.00 | 0.00 | 0.00 | 24 | 1008.8 |
| 20260905004637 | 103 | 215 | 5.0 | 11.0 | 0.00 | 0.00 | 0.00 | 24 | 1008.8 |
| 20260905004524 | 103 | 244 | 3.0 | 9.0 | 0.00 | 0.00 | 0.00 | 25 | 1008.7 |
| 20260905004425 | 103 | 261 | 4.0 | 9.0 | 0.00 | 0.00 | 0.00 | 24 | 1008.7 |
| 20260905004334 | 103 | 261 | 5.0 | 9.0 | 0.00 | 0.00 | 0.00 | 24 | 1008.7 |
| 20260905004216 | 103 | 228 | 3.0 | 9.0 | 0.00 | 0.00 | 0.00 | 24 | 1008.7 |
| 20260905004118 | 103 | 229 | 3.0 | 9.0 | 0.00 | 0.00 | 0.00 | 24 | 1008.6 |
| 20260905004019 | 103 | 243 | 3.0 | 9.0 | 0.00 | 0.00 | 0.00 | 24 | 1008.6 |
| 20260905003934 | 103 | 243 | 4.0 | 9.0 | 0.00 | 0.00 | 0.00 | 24 | 1008.6 |
| 20260905003903 | 103 | 253 | 5.0 | 9.0 | 0.00 | 0.00 | 0.00 | 24 | 1008.6 |
| 20260905003724 | 103 | 209 | 5.0 | 9.0 | 0.00 | 0.00 | 0.00 | 24 | 1008.6 |
| 20260905003644 | 103 | 252 | 5.0 | 9.0 | 0.00 | 0.00 | 0.00 | 24 | 1008.6 |
| 20260905003533 | 103 | 224 | 4.0 | 8.0 | 0.00 | 0.00 | 0.00 | 24 | 1008.6 |
| 20260905003434 | 103 | 224 | 4.0 | 8.0 | 0.00 | 0.00 | 0.00 | 24 | 1008.5 |
| 20260905003320 | 103 | 224 | 3.0 | 8.0 | 0.00 | 0.00 | 0.00 | 24 | 1008.4 |
| 20260905003222 | 103 | 221 | 3.0 | 8.0 | 0.00 | 0.00 | 0.00 | 24 | 1008.5 |
| 20260905003132 | 103 | 221 | 3.0 | 8.0 | 0.00 | 0.00 | 0.00 | 24 | 1008.5 |
| 20260905003033 | 103 | 219 | 4.0 | 10.0 | 0.00 | 0.00 | 0.00 | 24 | 1008.5 |
| 20260905002916 | 103 | 219 | 4.0 | 10.0 | 0.00 | 0.00 | 0.00 | 23 | 1008.6 |
| 20260905002845 | 103 | 222 | 4.0 | 10.0 | 0.00 | 0.00 | 0.00 | 23 | 1008.6 |
| 20260905002725 | 103 | 221 | 4.0 | 10.0 | 0.00 | 0.00 | 0.00 | 23 | 1008.5 |
| 20260905002633 | 103 | 221 | 3.0 | 10.0 | 0.00 | 0.00 | 0.00 | 23 | 1008.5 |
| 20260905002515 | 103 | 219 | 3.0 | 11.0 | 0.00 | 0.00 | 0.00 | 23 | 1008.6 |
| 20260905002445 | 103 | 219 | 3.0 | 12.0 | 0.00 | 0.00 | 0.00 | 22 | 1008.7 |
| 20260905002326 | 103 | 219 | 5.0 | 12.0 | 0.00 | 0.00 | 0.00 | 23 | 1008.6 |
| 20260905002236 | 103 | 219 | 6.0 | 12.0 | 0.00 | 0.00 | 0.00 | 23 | 1008.6 |
| 20260905002137 | 103 | 243 | 4.0 | 12.0 | 0.00 | 0.00 | 0.00 | 23 | 1008.7 |
| 20260905002031 | 103 | 205 | 4.0 | 12.0 | 0.00 | 0.00 | 0.00 | 23 | 1008.7 |
| 20260905001932 | 103 | 205 | 5.0 | 12.0 | 0.00 | 0.00 | 0.00 | 23 | 1008.7 |
| 20260905001900 | 103 | 202 | 5.0 | 12.0 | 0.00 | 0.00 | 0.00 | 23 | 1008.7 |
| 20260905001721 | 103 | 195 | 7.0 | 12.0 | 0.00 | 0.00 | 0.00 | 23 | 1008.7 |
| 20260905001642 | 103 | 180 | 7.0 | 12.0 | 0.00 | 0.00 | 0.00 | 23 | 1008.7 |
| 20260905001552 | 104 | 205 | 7.0 | 12.0 | 0.00 | 0.00 | 0.00 | 24 | 1008.7 |
| 20260905001432 | 104 | 242 | 4.0 | 10.0 | 0.00 | 0.00 | 0.00 | 24 | 1008.6 |
| 20260905001317 | 103 | 232 | 3.0 | 9.0 | 0.00 | 0.00 | 0.00 | 24 | 1008.7 |
| 20260905001248 | 103 | 285 | 3.0 | 9.0 | 0.00 | 0.00 | 0.00 | 24 | 1008.7 |
| 20260905001128 | 103 | 285 | 5.0 | 9.0 | 0.00 | 0.00 | 0.00 | 24 | 1008.7 |
| 20260905001016 | 103 | 285 | 4.0 | 9.0 | 0.00 | 0.00 | 0.00 | 24 | 1008.6 |
| 20260905000918 | 103 | 285 | 4.0 | 9.0 | 0.00 | 0.00 | 0.00 | 24 | 1008.6 |
| 20260905000819 | 103 | 286 | 4.0 | 9.0 | 0.00 | 0.00 | 0.00 | 24 | 1008.7 |
| 20260905000728 | 104 | 286 | 3.0 | 9.0 | 0.00 | 0.00 | 0.00 | 24 | 1008.7 |
| 20260905000615 | 104 | 286 | 2.0 | 9.0 | 0.00 | 0.00 | 0.00 | 24 | 1008.7 |
| 20260905000518 | 104 | 286 | 3.0 | 11.0 | 0.00 | 0.00 | 0.00 | 24 | 1008.7 |
| 20260905000426 | 104 | 286 | 3.0 | 11.0 | 0.00 | 0.00 | 0.00 | 24 | 1008.7 |
| 20260905000348 | 104 | 285 | 3.0 | 11.0 | 0.00 | 0.00 | 0.00 | 24 | 1008.7 |
| 20260905000236 | 104 | 285 | 4.0 | 11.0 | 0.00 | 0.00 | 0.00 | 24 | 1008.7 |
| 20260905000118 | 105 | 285 | 4.0 | 11.0 | 0.00 | 0.00 | 0.00 | 24 | 1008.7 |
| 20260905000037 | 105 | 301 | 4.0 | 11.0 | 0.00 | 0.00 | 0.00 | 24 | 1008.7 |
| 20260904235934 | 105 | 197 | 4.0 | 11.0 | 0.00 | 0.00 | 0.00 | 24 | 1008.7 |
| 20260904235816 | 105 | 209 | 4.0 | 11.0 | 0.00 | 0.00 | 0.00 | 24 | 1008.7 |
| 20260904235719 | 105 | 210 | 3.0 | 11.0 | 0.00 | 0.00 | 0.00 | 25 | 1008.7 |
| 20260904235620 | 104 | 233 | 3.0 | 10.0 | 0.00 | 0.00 | 0.00 | 25 | 1008.7 |
| 20260904235531 | 104 | 233 | 3.0 | 10.0 | 0.00 | 0.00 | 0.00 | 24 | 1008.7 |
| 20260904235430 | 104 | 233 | 2.0 | 10.0 | 0.00 | 0.00 | 0.00 | 24 | 1008.7 |
| 20260904235342 | 104 | 233 | 3.0 | 10.0 | 0.00 | 0.00 | 0.00 | 25 | 1008.7 |
| 20260904235224 | 104 | 233 | 4.0 | 10.0 | 0.00 | 0.00 | 0.00 | 24 | 1008.7 |
| 20260904235126 | 104 | 230 | 4.0 | 10.0 | 0.00 | 0.00 | 0.00 | 24 | 1008.7 |
| 20260904235027 | 104 | 235 | 5.0 | 11.0 | 0.00 | 0.00 | 0.00 | 24 | 1008.7 |
| 20260904234936 | 104 | 240 | 6.0 | 11.0 | 0.00 | 0.00 | 0.00 | 24 | 1008.7 |
| 20260904234823 | 105 | 243 | 6.0 | 11.0 | 0.00 | 0.00 | 0.00 | 24 | 1008.8 |
| 20260904234725 | 105 | 252 | 5.0 | 11.0 | 0.00 | 0.00 | 0.00 | 24 | 1008.7 |
| 20260904234626 | 104 | 252 | 5.0 | 11.0 | 0.00 | 0.00 | 0.00 | 24 | 1008.7 |
| 20260904234537 | 104 | 250 | 5.0 | 11.0 | 0.00 | 0.00 | 0.00 | 24 | 1008.7 |
| 20260904234419 | 104 | 248 | 4.0 | 11.0 | 0.00 | 0.00 | 0.00 | 24 | 1008.7 |
| 20260904234322 | 104 | 248 | 5.0 | 11.0 | 0.00 | 0.00 | 0.00 | 24 | 1008.7 |
| 20260904234227 | 104 | 249 | 5.0 | 11.0 | 0.00 | 0.00 | 0.00 | 24 | 1008.7 |
| 20260904234137 | 104 | 235 | 5.0 | 11.0 | 0.00 | 0.00 | 0.00 | 25 | 1008.7 |
| 20260904234020 | 104 | 217 | 5.0 | 11.0 | 0.00 | 0.00 | 0.00 | 25 | 1008.7 |
| 20260904233922 | 104 | 264 | 5.0 | 11.0 | 0.00 | 0.00 | 0.00 | 25 | 1008.7 |
| 20260904233852 | 104 | 207 | 4.0 | 8.0 | 0.00 | 0.00 | 0.00 | 25 | 1008.7 |
| 20260904233734 | 104 | 203 | 3.0 | 8.0 | 0.00 | 0.00 | 0.00 | 25 | 1008.7 |
| 20260904233620 | 104 | 204 | 3.0 | 8.0 | 0.00 | 0.00 | 0.00 | 25 | 1008.7 |
| 20260904233530 | 104 | 217 | 3.0 | 8.0 | 0.00 | 0.00 | 0.00 | 25 | 1008.7 |
| 20260904233452 | 104 | 221 | 3.0 | 8.0 | 0.00 | 0.00 | 0.00 | 25 | 1008.7 |
| 20260904233339 | 104 | 223 | 3.0 | 8.0 | 0.00 | 0.00 | 0.00 | 25 | 1008.7 |
| 20260904233221 | 104 | 223 | 3.0 | 8.0 | 0.00 | 0.00 | 0.00 | 25 | 1008.7 |
| 20260904233122 | 104 | 222 | 3.0 | 8.0 | 0.00 | 0.00 | 0.00 | 26 | 1008.7 |
| 20260904233031 | 104 | 222 | 4.0 | 8.0 | 0.00 | 0.00 | 0.00 | 26 | 1008.7 |
| 20260904232917 | 104 | 222 | 4.0 | 8.0 | 0.00 | 0.00 | 0.00 | 25 | 1008.6 |
| 20260904232819 | 104 | 222 | 4.0 | 8.0 | 0.00 | 0.00 | 0.00 | 26 | 1008.6 |
| 20260904232727 | 103 | 222 | 4.0 | 8.0 | 0.00 | 0.00 | 0.00 | 26 | 1008.6 |
| 20260904232631 | 103 | 222 | 5.0 | 12.0 | 0.00 | 0.00 | 0.00 | 25 | 1008.6 |
| 20260904232533 | 103 | 222 | 5.0 | 12.0 | 0.00 | 0.00 | 0.00 | 25 | 1008.6 |
| 20260904232420 | 103 | 221 | 4.0 | 12.0 | 0.00 | 0.00 | 0.00 | 25 | 1008.7 |
| 20260904232351 | 103 | 221 | 4.0 | 12.0 | 0.00 | 0.00 | 0.00 | 25 | 1008.7 |
| 20260904232216 | 103 | 221 | 4.0 | 12.0 | 0.00 | 0.00 | 0.00 | 25 | 1008.7 |
| 20260904232138 | 103 | 221 | 4.0 | 12.0 | 0.00 | 0.00 | 0.00 | 25 | 1008.7 |
| 20260904232027 | 104 | 217 | 4.0 | 12.0 | 0.00 | 0.00 | 0.00 | 25 | 1008.6 |
| 20260904231929 | 104 | 216 | 6.0 | 12.0 | 0.00 | 0.00 | 0.00 | 25 | 1008.6 |
| 20260904231830 | 104 | 215 | 6.0 | 12.0 | 0.00 | 0.00 | 0.00 | 25 | 1008.8 |
| 20260904231739 | 104 | 229 | 6.0 | 12.0 | 0.00 | 0.00 | 0.00 | 25 | 1008.7 |
| 20260904231641 | 104 | 243 | 6.0 | 11.0 | 0.00 | 0.00 | 0.00 | 25 | 1008.7 |
| 20260904231527 | 104 | 243 | 6.0 | 11.0 | 0.00 | 0.00 | 0.00 | 25 | 1008.8 |
| 20260904231435 | 104 | 233 | 4.0 | 10.0 | 0.00 | 0.00 | 0.00 | 26 | 1008.8 |
| 20260904231346 | 104 | 225 | 3.0 | 7.0 | 0.00 | 0.00 | 0.00 | 26 | 1008.8 |
| 20260904231236 | 104 | 224 | 3.0 | 7.0 | 0.00 | 0.00 | 0.00 | 26 | 1008.8 |
| 20260904231117 | 104 | 224 | 2.0 | 7.0 | 0.00 | 0.00 | 0.00 | 27 | 1008.8 |
| 20260904231018 | 103 | 223 | 1.0 | 3.0 | 0.00 | 0.00 | 0.00 | 26 | 1008.8 |
| 20260904230934 | 103 | 223 | 1.0 | 3.0 | 0.00 | 0.00 | 0.00 | 26 | 1008.8 |
| 20260904230816 | 103 | 225 | 1.0 | 2.0 | 0.00 | 0.00 | 0.00 | 26 | 1008.9 |
| 20260904230717 | 104 | 225 | 1.0 | 6.0 | 0.00 | 0.00 | 0.00 | 26 | 1008.9 |
| 20260904230625 | 103 | 225 | 0.0 | 8.0 | 0.00 | 0.00 | 0.00 | 27 | 1008.9 |
| 20260904230545 | 103 | 225 | 0.0 | 8.0 | 0.00 | 0.00 | 0.00 | 27 | 1008.9 |
| 20260904230434 | 103 | 225 | 0.0 | 8.0 | 0.00 | 0.00 | 0.00 | 27 | 1008.9 |
| 20260904230317 | 103 | 225 | 0.0 | 8.0 | 0.00 | 0.00 | 0.00 | 27 | 1008.9 |
| 20260904230222 | 103 | 225 | 1.0 | 8.0 | 0.00 | 0.00 | 0.00 | 27 | 1009.0 |
| 20260904230124 | 103 | 225 | 2.0 | 8.0 | 0.00 | 0.00 | 0.00 | 27 | 1009.0 |
| 20260904230105 | 103 | 225 | 3.0 | 8.0 | 0.00 | 0.00 | 0.00 | 26 | 1009.0 |
| 20260904225901 | 104 | 223 | 4.0 | 7.0 | 0.00 | 0.00 | 0.00 | 26 | 1009.0 |
| 20260904225844 | 104 | 223 | 4.0 | 7.0 | 0.00 | 0.00 | 0.00 | 26 | 1009.0 |
| 20260904225615 | 104 | 223 | 4.0 | 7.0 | 0.00 | 0.00 | 0.00 | 26 | 1009.0 |
| 20260904225518 | 104 | 221 | 3.0 | 7.0 | 0.00 | 0.00 | 0.00 | 26 | 1009.0 |
| 20260904225420 | 104 | 221 | 3.0 | 7.0 | 0.00 | 0.00 | 0.00 | 26 | 1009.0 |
| 20260904225351 | 104 | 221 | 3.0 | 7.0 | 0.00 | 0.00 | 0.00 | 26 | 1009.0 |
| 20260904225300 | 104 | 221 | 2.0 | 7.0 | 0.00 | 0.00 | 0.00 | 26 | 1009.0 |
| 20260904225120 | 104 | 219 | 2.0 | 7.0 | 0.00 | 0.00 | 0.00 | 26 | 1009.1 |
| 20260904225041 | 104 | 219 | 2.0 | 7.0 | 0.00 | 0.00 | 0.00 | 26 | 1009.1 |
| 20260904224951 | 104 | 219 | 1.0 | 7.0 | 0.00 | 0.00 | 0.00 | 26 | 1009.1 |
| 20260904224844 | 104 | 219 | 2.0 | 7.0 | 0.00 | 0.00 | 0.00 | 26 | 1009.1 |
| 20260904224724 | 104 | 219 | 4.0 | 9.0 | 0.00 | 0.00 | 0.00 | 26 | 1009.1 |
| 20260904224623 | 104 | 219 | 3.0 | 9.0 | 0.00 | 0.00 | 0.00 | 26 | 1009.1 |
| 20260904224526 | 104 | 218 | 2.0 | 9.0 | 0.00 | 0.00 | 0.00 | 26 | 1009.1 |
| 20260904224436 | 104 | 218 | 2.0 | 9.0 | 0.00 | 0.00 | 0.00 | 26 | 1009.1 |
| 20260904224355 | 104 | 219 | 2.0 | 12.0 | 0.00 | 0.00 | 0.00 | 26 | 1009.1 |
| 20260904224243 | 104 | 219 | 2.0 | 12.0 | 0.00 | 0.00 | 0.00 | 26 | 1009.1 |
| 20260904224130 | 104 | 219 | 2.0 | 12.0 | 0.00 | 0.00 | 0.00 | 26 | 1009.1 |
| 20260904224031 | 104 | 219 | 4.0 | 12.0 | 0.00 | 0.00 | 0.00 | 26 | 1009.1 |
| 20260904223941 | 104 | 218 | 4.0 | 12.0 | 0.00 | 0.00 | 0.00 | 26 | 1009.1 |
| 20260904223823 | 104 | 219 | 3.0 | 12.0 | 0.00 | 0.00 | 0.00 | 26 | 1009.1 |
| 20260904223723 | 104 | 215 | 3.0 | 12.0 | 0.00 | 0.00 | 0.00 | 26 | 1009.1 |
| 20260904223625 | 104 | 226 | 5.0 | 12.0 | 0.00 | 0.00 | 0.00 | 26 | 1009.1 |
| 20260904223539 | 105 | 234 | 5.0 | 12.0 | 0.00 | 0.00 | 0.00 | 26 | 1009.1 |
| 20260904223421 | 105 | 233 | 5.0 | 10.0 | 0.00 | 0.00 | 0.00 | 25 | 1009.2 |
| 20260904223324 | 105 | 252 | 5.0 | 10.0 | 0.00 | 0.00 | 0.00 | 25 | 1009.2 |
| 20260904223226 | 105 | 250 | 4.0 | 9.0 | 0.00 | 0.00 | 0.00 | 26 | 1009.1 |
| 20260904223136 | 105 | 251 | 3.0 | 9.0 | 0.00 | 0.00 | 0.00 | 26 | 1009.1 |
| 20260904223039 | 105 | 256 | 4.0 | 9.0 | 0.00 | 0.00 | 0.00 | 25 | 1009.1 |
| 20260904222923 | 105 | 265 | 4.0 | 9.0 | 0.00 | 0.00 | 0.00 | 25 | 1009.2 |
| 20260904222853 | 105 | 282 | 4.0 | 9.0 | 0.00 | 0.00 | 0.00 | 25 | 1009.2 |
| 20260904222741 | 105 | 283 | 3.0 | 8.0 | 0.00 | 0.00 | 0.00 | 26 | 1009.2 |
| 20260904222643 | 105 | 275 | 3.0 | 8.0 | 0.00 | 0.00 | 0.00 | 25 | 1009.3 |
| 20260904222522 | 105 | 275 | 3.0 | 8.0 | 0.00 | 0.00 | 0.00 | 25 | 1009.4 |
| 20260904222433 | 105 | 276 | 3.0 | 8.0 | 0.00 | 0.00 | 0.00 | 26 | 1009.4 |
| 20260904222319 | 105 | 307 | 1.0 | 8.0 | 0.00 | 0.00 | 0.00 | 29 | 1009.4 |
| 20260904222218 | 105 | 166 | 0.0 | 7.0 | 0.00 | 0.00 | 0.00 | 27 | 1009.5 |
| 20260904222119 | 104 | 166 | 0.0 | 7.0 | 0.00 | 0.00 | 0.00 | 27 | 1009.5 |
| 20260904222030 | 104 | 166 | 0.0 | 7.0 | 0.00 | 0.00 | 0.00 | 28 | 1009.5 |
| 20260904221952 | 103 | 166 | 1.0 | 7.0 | 0.00 | 0.00 | 0.00 | 28 | 1009.5 |
| 20260904221838 | 103 | 166 | 1.0 | 7.0 | 0.00 | 0.00 | 0.00 | 30 | 1009.5 |
| 20260904221720 | 103 | 166 | 2.0 | 7.0 | 0.00 | 0.00 | 0.00 | 28 | 1009.6 |
| 20260904221626 | 103 | 166 | 1.0 | 7.0 | 0.00 | 0.00 | 0.00 | 28 | 1009.6 |
| 20260904221530 | 103 | 141 | 0.0 | 6.0 | 0.00 | 0.00 | 0.00 | 28 | 1009.6 |
| 20260904221439 | 103 | 141 | 1.0 | 6.0 | 0.00 | 0.00 | 0.00 | 29 | 1009.6 |
| 20260904221321 | 103 | 141 | 3.0 | 6.0 | 0.00 | 0.00 | 0.00 | 29 | 1009.6 |
| 20260904221154 | 103 | 141 | 2.0 | 6.0 | 0.00 | 0.00 | 0.00 | 30 | 1009.5 |
| 20260904221019 | 103 | 217 | 1.0 | 2.0 | 0.00 | 0.00 | 0.00 | 29 | 1009.6 |
| 20260904220949 | 103 | 217 | 0.0 | 2.0 | 0.00 | 0.00 | 0.00 | 29 | 1009.6 |
| 20260904220827 | 102 | 217 | 0.0 | 2.0 | 0.00 | 0.00 | 0.00 | 31 | 1009.6 |
| 20260904220738 | 102 | 217 | 0.0 | 2.0 | 0.00 | 0.00 | 0.00 | 32 | 1009.6 |
| 20260904220640 | 102 | 217 | 1.0 | 3.0 | 0.00 | 0.00 | 0.00 | 29 | 1009.7 |
| 20260904220521 | 102 | 217 | 0.0 | 6.0 | 0.00 | 0.00 | 0.00 | 30 | 1009.7 |
| 20260904220451 | 102 | 217 | 0.0 | 7.0 | 0.00 | 0.00 | 0.00 | 29 | 1009.7 |
| 20260904220316 | 102 | 217 | 0.0 | 7.0 | 0.00 | 0.00 | 0.00 | 30 | 1009.8 |
| 20260904220216 | 102 | 217 | 0.0 | 7.0 | 0.00 | 0.00 | 0.00 | 30 | 1009.8 |
| 20260904220126 | 102 | 217 | 0.0 | 7.0 | 0.00 | 0.00 | 0.00 | 30 | 1009.8 |
| 20260904215915 | 102 | 217 | 1.0 | 7.0 | 0.00 | 0.00 | 0.00 | 29 | 1009.8 |
| 20260904215818 | 102 | 217 | 1.0 | 7.0 | 0.00 | 0.00 | 0.00 | 30 | 1009.8 |
| 20260904215727 | 102 | 217 | 3.0 | 7.0 | 0.00 | 0.00 | 0.00 | 30 | 1009.9 |
| 20260904215650 | 102 | 217 | 3.0 | 7.0 | 0.00 | 0.00 | 0.00 | 29 | 1009.9 |
| 20260904215515 | 102 | 212 | 2.0 | 5.0 | 0.00 | 0.00 | 0.00 | 29 | 1009.8 |
| 20260904215424 | 102 | 212 | 2.0 | 5.0 | 0.00 | 0.00 | 0.00 | 29 | 1009.9 |
| 20260904215345 | 102 | 212 | 2.0 | 4.0 | 0.00 | 0.00 | 0.00 | 29 | 1009.9 |
| 20260904215233 | 102 | 212 | 2.0 | 4.0 | 0.00 | 0.00 | 0.00 | 29 | 1009.9 |
| 20260904215155 | 102 | 212 | 2.0 | 4.0 | 0.00 | 0.00 | 0.00 | 29 | 1009.9 |
| 20260904215015 | 102 | 212 | 1.0 | 3.0 | 0.00 | 0.00 | 0.00 | 30 | 1009.9 |
| 20260904214930 | 102 | 212 | 1.0 | 3.0 | 0.00 | 0.00 | 0.00 | 30 | 1009.9 |
| 20260904214834 | 102 | 212 | 0.0 | 2.0 | 0.00 | 0.00 | 0.00 | 28 | 1009.9 |
| 20260904214716 | 102 | 211 | 0.0 | 2.0 | 0.00 | 0.00 | 0.00 | 28 | 1009.9 |
| 20260904214625 | 103 | 212 | 0.0 | 2.0 | 0.00 | 0.00 | 0.00 | 29 | 1009.9 |
| 20260904214546 | 103 | 212 | 0.0 | 2.0 | 0.00 | 0.00 | 0.00 | 29 | 1009.9 |
| 20260904214435 | 103 | 212 | 0.0 | 2.0 | 0.00 | 0.00 | 0.00 | 29 | 1009.9 |
| 20260904214322 | 103 | 211 | 0.0 | 3.0 | 0.00 | 0.00 | 0.00 | 30 | 1009.9 |
| 20260904214244 | 103 | 212 | 0.0 | 4.0 | 0.00 | 0.00 | 0.00 | 29 | 1009.9 |
| 20260904214135 | 103 | 212 | 0.0 | 4.0 | 0.00 | 0.00 | 0.00 | 29 | 1009.9 |
| 20260904214017 | 103 | 212 | 1.0 | 4.0 | 0.00 | 0.00 | 0.00 | 30 | 1009.9 |
| 20260904213920 | 102 | 212 | 1.0 | 4.0 | 0.00 | 0.00 | 0.00 | 30 | 1009.9 |
| 20260904213822 | 102 | 212 | 1.0 | 4.0 | 0.00 | 0.00 | 0.00 | 31 | 1009.9 |
| 20260904213733 | 101 | 212 | 1.0 | 4.0 | 0.00 | 0.00 | 0.00 | 31 | 1009.9 |
| 20260904213638 | 101 | 212 | 2.0 | 5.0 | 0.00 | 0.00 | 0.00 | 30 | 1009.9 |
| 20260904213519 | 101 | 212 | 2.0 | 5.0 | 0.00 | 0.00 | 0.00 | 30 | 1010.0 |
| 20260904213429 | 101 | 213 | 2.0 | 5.0 | 0.00 | 0.00 | 0.00 | 30 | 1010.0 |
| 20260904213349 | 101 | 215 | 1.0 | 5.0 | 0.00 | 0.00 | 0.00 | 30 | 1010.0 |
| 20260904213236 | 101 | 215 | 0.0 | 5.0 | 0.00 | 0.00 | 0.00 | 30 | 1010.0 |
| 20260904213118 | 101 | 215 | 0.0 | 5.0 | 0.00 | 0.00 | 0.00 | 30 | 1010.1 |
| 20260904213039 | 101 | 215 | 1.0 | 5.0 | 0.00 | 0.00 | 0.00 | 29 | 1010.1 |
| 20260904212933 | 102 | 215 | 2.0 | 5.0 | 0.00 | 0.00 | 0.00 | 29 | 1010.1 |
| 20260904212833 | 102 | 215 | 3.0 | 5.0 | 0.00 | 0.00 | 0.00 | 29 | 1010.1 |
| 20260904212716 | 102 | 216 | 3.0 | 5.0 | 0.00 | 0.00 | 0.00 | 29 | 1010.1 |
| 20260904212625 | 102 | 216 | 3.0 | 5.0 | 0.00 | 0.00 | 0.00 | 29 | 1010.1 |
| 20260904212527 | 102 | 215 | 2.0 | 5.0 | 0.00 | 0.00 | 0.00 | 29 | 1010.1 |
| 20260904212430 | 102 | 214 | 1.0 | 6.0 | 0.00 | 0.00 | 0.00 | 29 | 1010.1 |
| 20260904212315 | 102 | 213 | 1.0 | 7.0 | 0.00 | 0.00 | 0.00 | 29 | 1010.1 |
| 20260904212225 | 102 | 214 | 1.0 | 7.0 | 0.00 | 0.00 | 0.00 | 29 | 1010.1 |
| 20260904212126 | 103 | 214 | 1.0 | 8.0 | 0.00 | 0.00 | 0.00 | 29 | 1010.1 |
| 20260904212030 | 103 | 214 | 2.0 | 8.0 | 0.00 | 0.00 | 0.00 | 28 | 1010.1 |
| 20260904211939 | 103 | 214 | 3.0 | 11.0 | 0.00 | 0.00 | 0.00 | 29 | 1010.2 |
| 20260904211821 | 103 | 214 | 3.0 | 11.0 | 0.00 | 0.00 | 0.00 | 29 | 1010.2 |
| 20260904211727 | 103 | 214 | 3.0 | 11.0 | 0.00 | 0.00 | 0.00 | 29 | 1010.2 |
| 20260904211637 | 103 | 214 | 4.0 | 11.0 | 0.00 | 0.00 | 0.00 | 29 | 1010.2 |
| 20260904211518 | 103 | 225 | 4.0 | 11.0 | 0.00 | 0.00 | 0.00 | 29 | 1010.3 |
| 20260904211420 | 103 | 223 | 4.0 | 11.0 | 0.00 | 0.00 | 0.00 | 29 | 1010.2 |
| 20260904211330 | 103 | 223 | 5.0 | 11.0 | 0.00 | 0.00 | 0.00 | 29 | 1010.2 |
| 20260904211232 | 103 | 215 | 5.0 | 11.0 | 0.00 | 0.00 | 0.00 | 29 | 1010.2 |
| 20260904211144 | 103 | 214 | 4.0 | 11.0 | 0.00 | 0.00 | 0.00 | 28 | 1010.2 |
| 20260904211025 | 104 | 217 | 2.0 | 7.0 | 0.00 | 0.00 | 0.00 | 28 | 1010.2 |
| 20260904210954 | 104 | 228 | 3.0 | 7.0 | 0.00 | 0.00 | 0.00 | 28 | 1010.2 |
| 20260904210815 | 104 | 228 | 3.0 | 7.0 | 0.00 | 0.00 | 0.00 | 28 | 1010.4 |
| 20260904210719 | 103 | 125 | 2.0 | 6.0 | 0.00 | 0.00 | 0.00 | 29 | 1010.4 |
| 20260904210622 | 103 | 120 | 1.0 | 5.0 | 0.00 | 0.00 | 0.00 | 32 | 1010.4 |
| 20260904210551 | 103 | 120 | 1.0 | 5.0 | 0.00 | 0.00 | 0.00 | 31 | 1010.4 |
| 20260904210457 | 103 | 118 | 0.0 | 3.0 | 0.00 | 0.00 | 0.00 | 31 | 1010.3 |
| 20260904210322 | 103 | 118 | 1.0 | 3.0 | 0.00 | 0.00 | 0.00 | 31 | 1010.5 |
| 20260904210225 | 103 | 118 | 1.0 | 4.0 | 0.00 | 0.00 | 0.00 | 32 | 1010.5 |
| 20260904210127 | 103 | 118 | 1.0 | 6.0 | 0.00 | 0.00 | 0.00 | 32 | 1010.5 |
| 20260904210029 | 103 | 118 | 1.0 | 6.0 | 0.00 | 0.00 | 0.00 | 33 | 1010.5 |
| 20260904205917 | 103 | 118 | 0.0 | 6.0 | 0.00 | 0.00 | 0.00 | 32 | 1010.6 |
| 20260904205827 | 104 | 118 | 1.0 | 8.0 | 0.00 | 0.00 | 0.00 | 31 | 1010.6 |
| 20260904205734 | 103 | 118 | 1.0 | 8.0 | 0.00 | 0.00 | 0.00 | 33 | 1010.6 |
| 20260904205617 | 103 | 118 | 1.0 | 8.0 | 0.00 | 0.00 | 0.00 | 32 | 1010.6 |
| 20260904205519 | 103 | 118 | 2.0 | 8.0 | 0.00 | 0.00 | 0.00 | 33 | 1010.6 |
| 20260904205430 | 103 | 118 | 2.0 | 8.0 | 0.00 | 0.00 | 0.00 | 34 | 1010.6 |
| 20260904205352 | 102 | 120 | 2.0 | 8.0 | 0.00 | 0.00 | 0.00 | 32 | 1010.5 |
| 20260904205218 | 103 | 122 | 2.0 | 8.0 | 0.00 | 0.00 | 0.00 | 32 | 1010.6 |
| 20260904205139 | 103 | 122 | 2.0 | 8.0 | 0.00 | 0.00 | 0.00 | 31 | 1010.6 |
| 20260904205032 | 104 | 122 | 2.0 | 8.0 | 0.00 | 0.00 | 0.00 | 32 | 1010.6 |
| 20260904204939 | 104 | 116 | 2.0 | 5.0 | 0.00 | 0.00 | 0.00 | 31 | 1010.5 |
| 20260904204822 | 104 | 116 | 1.0 | 4.0 | 0.00 | 0.00 | 0.00 | 32 | 1010.6 |
| 20260904204724 | 104 | 116 | 1.0 | 4.0 | 0.00 | 0.00 | 0.00 | 34 | 1010.6 |
| 20260904204655 | 104 | 117 | 1.0 | 4.0 | 0.00 | 0.00 | 0.00 | 33 | 1010.6 |
| 20260904204535 | 104 | 117 | 1.0 | 4.0 | 0.00 | 0.00 | 0.00 | 34 | 1010.7 |
| 20260904204444 | 103 | 123 | 0.0 | 4.0 | 0.00 | 0.00 | 0.00 | 34 | 1010.5 |
| 20260904204344 | 103 | 123 | 0.0 | 4.0 | 0.00 | 0.00 | 0.00 | 36 | 1010.6 |
| 20260904204237 | 103 | 123 | 1.0 | 4.0 | 0.00 | 0.00 | 0.00 | 34 | 1010.6 |
| 20260904204119 | 103 | 123 | 1.0 | 4.0 | 0.00 | 0.00 | 0.00 | 36 | 1010.6 |
| 20260904204041 | 103 | 123 | 1.0 | 4.0 | 0.00 | 0.00 | 0.00 | 36 | 1010.6 |
| 20260904203929 | 102 | 126 | 1.0 | 4.0 | 0.00 | 0.00 | 0.00 | 36 | 1010.7 |
| 20260904203831 | 102 | 128 | 1.0 | 3.0 | 0.00 | 0.00 | 0.00 | 35 | 1010.7 |
| 20260904203733 | 102 | 123 | 1.0 | 3.0 | 0.00 | 0.00 | 0.00 | 38 | 1010.7 |
| 20260904203626 | 102 | 124 | 1.0 | 3.0 | 0.00 | 0.00 | 0.00 | 37 | 1010.8 |
| 20260904203530 | 101 | 124 | 1.0 | 3.0 | 0.00 | 0.00 | 0.00 | 36 | 1010.8 |
| 20260904203431 | 101 | 126 | 0.0 | 3.0 | 0.00 | 0.00 | 0.00 | 37 | 1010.7 |
| 20260904203340 | 101 | 126 | 0.0 | 3.0 | 0.00 | 0.00 | 0.00 | 36 | 1010.8 |
| 20260904203223 | 101 | 125 | 0.0 | 3.0 | 0.00 | 0.00 | 0.00 | 37 | 1010.8 |
| 20260904203125 | 100 | 125 | 0.0 | 3.0 | 0.00 | 0.00 | 0.00 | 37 | 1010.8 |
| 20260904203059 | 100 | 125 | 1.0 | 3.0 | 0.00 | 0.00 | 0.00 | 38 | 1010.9 |
| 20260904202939 | 100 | 125 | 1.0 | 3.0 | 0.00 | 0.00 | 0.00 | 37 | 1010.8 |
| 20260904202827 | 100 | 130 | 0.0 | 2.0 | 0.00 | 0.00 | 0.00 | 37 | 1010.8 |
| 20260904202727 | 99 | 130 | 0.0 | 3.0 | 0.00 | 0.00 | 0.00 | 37 | 1010.9 |
| 20260904202629 | 99 | 130 | 0.0 | 3.0 | 0.00 | 0.00 | 0.00 | 37 | 1010.9 |
| 20260904202538 | 99 | 130 | 0.0 | 3.0 | 0.00 | 0.00 | 0.00 | 36 | 1010.9 |
| 20260904202420 | 99 | 130 | 1.0 | 5.0 | 0.00 | 0.00 | 0.00 | 37 | 1011.0 |
| 20260904202346 | 99 | 130 | 1.0 | 5.0 | 0.00 | 0.00 | 0.00 | 37 | 1011.0 |
| 20260904202235 | 99 | 130 | 1.0 | 5.0 | 0.00 | 0.00 | 0.00 | 36 | 1011.0 |
| 20260904202137 | 99 | 130 | 1.0 | 5.0 | 0.00 | 0.00 | 0.00 | 36 | 1011.1 |
| 20260904202019 | 99 | 130 | 1.0 | 5.0 | 0.00 | 0.00 | 0.00 | 35 | 1011.1 |
| 20260904201927 | 100 | 130 | 1.0 | 5.0 | 0.00 | 0.00 | 0.00 | 36 | 1011.1 |
| 20260904201830 | 100 | 130 | 1.0 | 5.0 | 0.00 | 0.00 | 0.00 | 35 | 1011.1 |
| 20260904201738 | 100 | 130 | 2.0 | 5.0 | 0.00 | 0.00 | 0.00 | 36 | 1011.0 |
| 20260904201623 | 100 | 130 | 2.0 | 7.0 | 0.00 | 0.00 | 0.00 | 35 | 1011.1 |
| 20260904201554 | 100 | 131 | 1.0 | 7.0 | 0.00 | 0.00 | 0.00 | 36 | 1011.1 |
| 20260904201434 | 100 | 131 | 2.0 | 7.0 | 0.00 | 0.00 | 0.00 | 36 | 1011.2 |
| 20260904201316 | 101 | 131 | 2.0 | 7.0 | 0.00 | 0.00 | 0.00 | 36 | 1011.2 |
| 20260904201218 | 100 | 92 | 2.0 | 7.0 | 0.00 | 0.00 | 0.00 | 37 | 1011.1 |
| 20260904201126 | 100 | 85 | 2.0 | 7.0 | 0.00 | 0.00 | 0.00 | 37 | 1011.2 |
| 20260904201032 | 100 | 89 | 1.0 | 7.0 | 0.00 | 0.00 | 0.00 | 36 | 1011.2 |
| 20260904200934 | 100 | 94 | 1.0 | 7.0 | 0.00 | 0.00 | 0.00 | 36 | 1011.2 |
| 20260904200816 | 101 | 87 | 0.0 | 7.0 | 0.00 | 0.00 | 0.00 | 36 | 1011.3 |
| 20260904200725 | 101 | 87 | 0.0 | 4.0 | 0.00 | 0.00 | 0.00 | 35 | 1011.3 |
| 20260904200647 | 101 | 86 | 1.0 | 4.0 | 0.00 | 0.00 | 0.00 | 36 | 1011.4 |
| 20260904200536 | 101 | 113 | 1.0 | 4.0 | 0.00 | 0.00 | 0.00 | 36 | 1011.4 |
| 20260904200417 | 100 | 113 | 1.0 | 4.0 | 0.00 | 0.00 | 0.00 | 36 | 1011.3 |
| 20260904200332 | 100 | 113 | 1.0 | 4.0 | 0.00 | 0.00 | 0.00 | 36 | 1011.3 |
| 20260904200233 | 100 | 113 | 2.0 | 4.0 | 0.00 | 0.00 | 0.00 | 37 | 1011.3 |
| 20260904200135 | 100 | 113 | 1.0 | 4.0 | 0.00 | 0.00 | 0.00 | 35 | 1011.3 |
| 20260904200035 | 100 | 113 | 0.0 | 4.0 | 0.00 | 0.00 | 0.00 | 36 | 1011.3 |
| 20260904195926 | 100 | 113 | 2.0 | 4.0 | 0.00 | 0.00 | 0.00 | 36 | 1011.4 |
| 20260904195827 | 100 | 113 | 3.0 | 4.0 | 0.00 | 0.00 | 0.00 | 38 | 1011.4 |
| 20260904195741 | 100 | 113 | 2.0 | 4.0 | 0.00 | 0.00 | 0.00 | 36 | 1011.4 |
| 20260904195623 | 100 | 113 | 1.0 | 5.0 | 0.00 | 0.00 | 0.00 | 37 | 1011.5 |
| 20260904195533 | 99 | 113 | 2.0 | 5.0 | 0.00 | 0.00 | 0.00 | 36 | 1011.5 |
| 20260904195415 | 99 | 113 | 1.0 | 5.0 | 0.00 | 0.00 | 0.00 | 36 | 1011.5 |
| 20260904195316 | 99 | 115 | 2.0 | 5.0 | 0.00 | 0.00 | 0.00 | 36 | 1011.4 |
| 20260904195217 | 100 | 115 | 2.0 | 5.0 | 0.00 | 0.00 | 0.00 | 35 | 1011.6 |
| 20260904195132 | 100 | 115 | 2.0 | 5.0 | 0.00 | 0.00 | 0.00 | 35 | 1011.6 |
| 20260904195034 | 100 | 115 | 2.0 | 5.0 | 0.00 | 0.00 | 0.00 | 35 | 1011.6 |
| 20260904194934 | 100 | 114 | 2.0 | 5.0 | 0.00 | 0.00 | 0.00 | 35 | 1011.5 |
| 20260904194816 | 101 | 108 | 1.0 | 5.0 | 0.00 | 0.00 | 0.00 | 35 | 1011.5 |
| 20260904194725 | 101 | 103 | 2.0 | 5.0 | 0.00 | 0.00 | 0.00 | 34 | 1011.6 |
| 20260904194625 | 101 | 101 | 2.0 | 4.0 | 0.00 | 0.00 | 0.00 | 35 | 1011.6 |
| 20260904194532 | 101 | 98 | 2.0 | 4.0 | 0.00 | 0.00 | 0.00 | 36 | 1011.6 |
| 20260904194440 | 101 | 96 | 2.0 | 4.0 | 0.00 | 0.00 | 0.00 | 35 | 1011.6 |
| 20260904194323 | 101 | 96 | 2.0 | 4.0 | 0.00 | 0.00 | 0.00 | 36 | 1011.6 |
| 20260904194226 | 101 | 95 | 1.0 | 4.0 | 0.00 | 0.00 | 0.00 | 37 | 1011.7 |
| 20260904194127 | 100 | 98 | 1.0 | 5.0 | 0.00 | 0.00 | 0.00 | 38 | 1011.6 |
| 20260904194037 | 101 | 98 | 1.0 | 5.0 | 0.00 | 0.00 | 0.00 | 36 | 1011.6 |
| 20260904193943 | 101 | 98 | 1.0 | 5.0 | 0.00 | 0.00 | 0.00 | 36 | 1011.6 |
| 20260904193851 | 101 | 94 | 0.0 | 5.0 | 0.00 | 0.00 | 0.00 | 36 | 1011.6 |
| 20260904193733 | 101 | 94 | 0.0 | 5.0 | 0.00 | 0.00 | 0.00 | 37 | 1011.6 |
| 20260904193643 | 100 | 94 | 1.0 | 5.0 | 0.00 | 0.00 | 0.00 | 36 | 1011.6 |
| 20260904193517 | 100 | 94 | 0.0 | 5.0 | 0.00 | 0.00 | 0.00 | 36 | 1011.6 |
| 20260904193445 | 100 | 94 | 1.0 | 5.0 | 0.00 | 0.00 | 0.00 | 35 | 1011.6 |
| 20260904193333 | 101 | 94 | 1.0 | 5.0 | 0.00 | 0.00 | 0.00 | 36 | 1011.6 |
| 20260904193241 | 101 | 93 | 0.0 | 6.0 | 0.00 | 0.00 | 0.00 | 36 | 1011.6 |
| 20260904193147 | 101 | 87 | 1.0 | 6.0 | 0.00 | 0.00 | 0.00 | 37 | 1011.7 |
| 20260904193029 | 101 | 87 | 2.0 | 6.0 | 0.00 | 0.00 | 0.00 | 37 | 1011.7 |
| 20260904192936 | 101 | 89 | 2.0 | 6.0 | 0.00 | 0.00 | 0.00 | 36 | 1011.7 |
| 20260904192818 | 100 | 90 | 2.0 | 6.0 | 0.00 | 0.00 | 0.00 | 37 | 1011.7 |
| 20260904192720 | 100 | 95 | 2.0 | 6.0 | 0.00 | 0.00 | 0.00 | 37 | 1011.7 |
| 20260904192623 | 100 | 48 | 2.0 | 6.0 | 0.00 | 0.00 | 0.00 | 37 | 1011.8 |
| 20260904192515 | 100 | 77 | 2.0 | 6.0 | 0.00 | 0.00 | 0.00 | 37 | 1011.7 |
| 20260904192418 | 100 | 98 | 2.0 | 6.0 | 0.00 | 0.00 | 0.00 | 37 | 1011.7 |
| 20260904192320 | 100 | 115 | 2.0 | 7.0 | 0.00 | 0.00 | 0.00 | 37 | 1011.8 |
| 20260904192230 | 100 | 117 | 2.0 | 7.0 | 0.00 | 0.00 | 0.00 | 38 | 1011.8 |
| 20260904192130 | 100 | 115 | 2.0 | 7.0 | 0.00 | 0.00 | 0.00 | 37 | 1011.8 |
| 20260904192031 | 100 | 115 | 1.0 | 7.0 | 0.00 | 0.00 | 0.00 | 38 | 1011.8 |
| 20260904191939 | 100 | 120 | 2.0 | 7.0 | 0.00 | 0.00 | 0.00 | 38 | 1011.8 |
| 20260904191823 | 100 | 119 | 3.0 | 7.0 | 0.00 | 0.00 | 0.00 | 38 | 1011.9 |
| 20260904191733 | 100 | 119 | 2.0 | 7.0 | 0.00 | 0.00 | 0.00 | 38 | 1011.9 |
| 20260904191634 | 100 | 105 | 2.0 | 7.0 | 0.00 | 0.00 | 0.00 | 38 | 1011.8 |
| 20260904191516 | 99 | 105 | 1.0 | 6.0 | 0.00 | 0.00 | 0.00 | 40 | 1011.9 |
| 20260904191426 | 99 | 105 | 1.0 | 6.0 | 0.00 | 0.00 | 0.00 | 40 | 1011.9 |
| 20260904191329 | 98 | 108 | 1.0 | 6.0 | 0.00 | 0.00 | 0.00 | 39 | 1011.9 |
| 20260904191234 | 99 | 107 | 1.0 | 6.0 | 0.00 | 0.00 | 0.00 | 39 | 1011.9 |
| 20260904191117 | 99 | 107 | 2.0 | 6.0 | 0.00 | 0.00 | 0.00 | 39 | 1012.1 |
| 20260904191026 | 99 | 108 | 2.0 | 7.0 | 0.00 | 0.00 | 0.00 | 39 | 1012.0 |
| 20260904190927 | 99 | 125 | 2.0 | 7.0 | 0.00 | 0.00 | 0.00 | 39 | 1012.0 |
| 20260904190827 | 99 | 127 | 2.0 | 7.0 | 0.00 | 0.00 | 0.00 | 39 | 1012.0 |
| 20260904190737 | 99 | 127 | 2.0 | 7.0 | 0.00 | 0.00 | 0.00 | 39 | 1012.0 |
| 20260904190622 | 99 | 126 | 2.0 | 9.0 | 0.00 | 0.00 | 0.00 | 38 | 1012.0 |
| 20260904190524 | 99 | 126 | 2.0 | 9.0 | 0.00 | 0.00 | 0.00 | 38 | 1012.0 |
| 20260904190422 | 99 | 124 | 1.0 | 9.0 | 0.00 | 0.00 | 0.00 | 38 | 1012.0 |
| 20260904190332 | 99 | 121 | 1.0 | 9.0 | 0.00 | 0.00 | 0.00 | 38 | 1012.0 |
| 20260904190231 | 99 | 121 | 2.0 | 9.0 | 0.00 | 0.00 | 0.00 | 39 | 1012.0 |
| 20260904190130 | 99 | 121 | 2.0 | 9.0 | 0.00 | 0.00 | 0.00 | 37 | 1012.0 |
| 20260904190055 | 99 | 121 | 3.0 | 9.0 | 0.00 | 0.00 | 0.00 | 38 | 1012.2 |
| 20260904185925 | 100 | 119 | 4.0 | 9.0 | 0.00 | 0.00 | 0.00 | 37 | 1012.2 |
| 20260904185835 | 100 | 121 | 3.0 | 9.0 | 0.00 | 0.00 | 0.00 | 37 | 1012.2 |